<?xml version="1.0" encoding="UTF-8" standalone="no" ?>
<gpx xmlns="http://www.topografix.com/GPX/1/1" xmlns:xsi="http://www.w3.org/2001/XMLSchema-instance" xsi:schemaLocation="http://www.topografix.com/GPX/1/1 http://www.topografix.com/GPX/1/1/gpx.xsd" version="1.1" creator="VisuGPX - https://www.visugpx.com">
  <metadata>
    <name>Randonnée Les Marettes</name>
    <desc><![CDATA[Circuit au départ de Franqueville St Pierre avec un retour par les Marettes]]></desc>
  </metadata>
  <trk>
    <name><![CDATA[Randonnée Les Marettes_1]]></name>
    <trkseg>
      <trkpt lat="49.4059" lon="1.17459">
        <ele>158</ele>
        <time>2017-08-08T13:42:25Z</time>
      </trkpt>
      <trkpt lat="49.40592" lon="1.1746">
        <ele>158</ele>
        <time>2017-08-08T13:42:25Z</time>
      </trkpt>
      <trkpt lat="49.40607" lon="1.1747">
        <ele>158</ele>
        <time>2017-08-08T13:42:25Z</time>
      </trkpt>
      <trkpt lat="49.40609" lon="1.17482">
        <ele>158</ele>
        <time>2017-08-08T13:42:25Z</time>
      </trkpt>
      <trkpt lat="49.40613" lon="1.17487">
        <ele>158</ele>
        <time>2017-08-08T13:42:25Z</time>
      </trkpt>
      <trkpt lat="49.40614" lon="1.17492">
        <ele>158</ele>
        <time>2017-08-08T13:43:01Z</time>
      </trkpt>
      <trkpt lat="49.40612" lon="1.17493">
        <ele>158</ele>
        <time>2017-08-08T13:43:01Z</time>
      </trkpt>
      <trkpt lat="49.40609" lon="1.1749">
        <ele>158</ele>
        <time>2017-08-08T13:43:01Z</time>
      </trkpt>
      <trkpt lat="49.40606" lon="1.17486">
        <ele>158</ele>
        <time>2017-08-08T13:43:01Z</time>
      </trkpt>
      <trkpt lat="49.40604" lon="1.17483">
        <ele>158</ele>
        <time>2017-08-08T13:43:01Z</time>
      </trkpt>
      <trkpt lat="49.40602" lon="1.17478">
        <ele>158</ele>
        <time>2017-08-08T13:43:33Z</time>
      </trkpt>
      <trkpt lat="49.40605" lon="1.17484">
        <ele>158</ele>
        <time>2017-08-08T13:43:33Z</time>
      </trkpt>
      <trkpt lat="49.40611" lon="1.1749">
        <ele>158</ele>
        <time>2017-08-08T13:43:33Z</time>
      </trkpt>
      <trkpt lat="49.40617" lon="1.17499">
        <ele>158</ele>
        <time>2017-08-08T13:43:33Z</time>
      </trkpt>
      <trkpt lat="49.40627" lon="1.17515">
        <ele>159</ele>
        <time>2017-08-08T13:43:33Z</time>
      </trkpt>
      <trkpt lat="49.4063" lon="1.17522">
        <ele>159</ele>
        <time>2017-08-08T13:43:50Z</time>
      </trkpt>
      <trkpt lat="49.40634" lon="1.17531">
        <ele>159</ele>
        <time>2017-08-08T13:43:50Z</time>
      </trkpt>
      <trkpt lat="49.40635" lon="1.17534">
        <ele>159</ele>
        <time>2017-08-08T13:43:50Z</time>
      </trkpt>
      <trkpt lat="49.40639" lon="1.17542">
        <ele>158</ele>
        <time>2017-08-08T13:43:50Z</time>
      </trkpt>
      <trkpt lat="49.40642" lon="1.17548">
        <ele>158</ele>
        <time>2017-08-08T13:44:06Z</time>
      </trkpt>
      <trkpt lat="49.40645" lon="1.17557">
        <ele>158</ele>
        <time>2017-08-08T13:44:06Z</time>
      </trkpt>
      <trkpt lat="49.40648" lon="1.17566">
        <ele>158</ele>
        <time>2017-08-08T13:44:06Z</time>
      </trkpt>
      <trkpt lat="49.40649" lon="1.17573">
        <ele>158</ele>
        <time>2017-08-08T13:44:06Z</time>
      </trkpt>
      <trkpt lat="49.4065" lon="1.17577">
        <ele>158</ele>
        <time>2017-08-08T13:44:22Z</time>
      </trkpt>
      <trkpt lat="49.4065" lon="1.17582">
        <ele>158</ele>
        <time>2017-08-08T13:44:22Z</time>
      </trkpt>
      <trkpt lat="49.4065" lon="1.17588">
        <ele>158</ele>
        <time>2017-08-08T13:44:22Z</time>
      </trkpt>
      <trkpt lat="49.40649" lon="1.17592">
        <ele>158</ele>
        <time>2017-08-08T13:44:22Z</time>
      </trkpt>
      <trkpt lat="49.40649" lon="1.17597">
        <ele>158</ele>
        <time>2017-08-08T13:44:38Z</time>
      </trkpt>
      <trkpt lat="49.40648" lon="1.17604">
        <ele>158</ele>
        <time>2017-08-08T13:44:38Z</time>
      </trkpt>
      <trkpt lat="49.40648" lon="1.17606">
        <ele>158</ele>
        <time>2017-08-08T13:44:38Z</time>
      </trkpt>
      <trkpt lat="49.40646" lon="1.1761">
        <ele>158</ele>
        <time>2017-08-08T13:44:38Z</time>
      </trkpt>
      <trkpt lat="49.40644" lon="1.17614">
        <ele>158</ele>
        <time>2017-08-08T13:44:54Z</time>
      </trkpt>
      <trkpt lat="49.40643" lon="1.17619">
        <ele>158</ele>
        <time>2017-08-08T13:44:54Z</time>
      </trkpt>
      <trkpt lat="49.40641" lon="1.17624">
        <ele>158</ele>
        <time>2017-08-08T13:44:54Z</time>
      </trkpt>
      <trkpt lat="49.4064" lon="1.17629">
        <ele>158</ele>
        <time>2017-08-08T13:44:54Z</time>
      </trkpt>
      <trkpt lat="49.40635" lon="1.17633">
        <ele>158</ele>
        <time>2017-08-08T13:45:22Z</time>
      </trkpt>
      <trkpt lat="49.40634" lon="1.17633">
        <ele>158</ele>
        <time>2017-08-08T13:45:22Z</time>
      </trkpt>
      <trkpt lat="49.40632" lon="1.17636">
        <ele>158</ele>
        <time>2017-08-08T13:45:22Z</time>
      </trkpt>
      <trkpt lat="49.40632" lon="1.17637">
        <ele>158</ele>
        <time>2017-08-08T13:45:22Z</time>
      </trkpt>
      <trkpt lat="49.4063" lon="1.17639">
        <ele>158</ele>
        <time>2017-08-08T13:45:22Z</time>
      </trkpt>
      <trkpt lat="49.40628" lon="1.17645">
        <ele>158</ele>
        <time>2017-08-08T13:45:54Z</time>
      </trkpt>
      <trkpt lat="49.40627" lon="1.17648">
        <ele>158</ele>
        <time>2017-08-08T13:45:54Z</time>
      </trkpt>
      <trkpt lat="49.40626" lon="1.1765">
        <ele>158</ele>
        <time>2017-08-08T13:45:54Z</time>
      </trkpt>
      <trkpt lat="49.40625" lon="1.17653">
        <ele>158</ele>
        <time>2017-08-08T13:45:54Z</time>
      </trkpt>
      <trkpt lat="49.40624" lon="1.17654">
        <ele>158</ele>
        <time>2017-08-08T13:45:54Z</time>
      </trkpt>
      <trkpt lat="49.40622" lon="1.17655">
        <ele>158</ele>
        <time>2017-08-08T13:47:15Z</time>
      </trkpt>
      <trkpt lat="49.40619" lon="1.17656">
        <ele>158</ele>
        <time>2017-08-08T13:47:15Z</time>
      </trkpt>
      <trkpt lat="49.40617" lon="1.17658">
        <ele>158</ele>
        <time>2017-08-08T13:47:15Z</time>
      </trkpt>
      <trkpt lat="49.40617" lon="1.17658">
        <ele>158</ele>
        <time>2017-08-08T13:47:15Z</time>
      </trkpt>
      <trkpt lat="49.40583" lon="1.17727">
        <ele>159</ele>
        <time>2017-08-08T13:47:15Z</time>
      </trkpt>
      <trkpt lat="49.40557" lon="1.18047">
        <ele>159</ele>
        <time>2017-08-08T13:48:17Z</time>
      </trkpt>
      <trkpt lat="49.40557" lon="1.18047">
        <ele>159</ele>
        <time>2017-08-08T13:48:17Z</time>
      </trkpt>
      <trkpt lat="49.40557" lon="1.18047">
        <ele>159</ele>
        <time>2017-08-08T13:48:17Z</time>
      </trkpt>
      <trkpt lat="49.40557" lon="1.18047">
        <ele>159</ele>
        <time>2017-08-08T13:48:17Z</time>
      </trkpt>
      <trkpt lat="49.40558" lon="1.18047">
        <ele>159</ele>
        <time>2017-08-08T13:48:17Z</time>
      </trkpt>
      <trkpt lat="49.40557" lon="1.18047">
        <ele>159</ele>
        <time>2017-08-08T13:49:29Z</time>
      </trkpt>
      <trkpt lat="49.40557" lon="1.18047">
        <ele>159</ele>
        <time>2017-08-08T13:49:29Z</time>
      </trkpt>
      <trkpt lat="49.40557" lon="1.18047">
        <ele>159</ele>
        <time>2017-08-08T13:49:29Z</time>
      </trkpt>
      <trkpt lat="49.40557" lon="1.18047">
        <ele>159</ele>
        <time>2017-08-08T13:49:29Z</time>
      </trkpt>
      <trkpt lat="49.40528" lon="1.18141">
        <ele>159</ele>
        <time>2017-08-08T13:49:29Z</time>
      </trkpt>
      <trkpt lat="49.40527" lon="1.18213">
        <ele>158</ele>
        <time>2017-08-08T13:50:13Z</time>
      </trkpt>
      <trkpt lat="49.40531" lon="1.18212">
        <ele>158</ele>
        <time>2017-08-08T13:50:13Z</time>
      </trkpt>
      <trkpt lat="49.40535" lon="1.18213">
        <ele>158</ele>
        <time>2017-08-08T13:50:13Z</time>
      </trkpt>
      <trkpt lat="49.40539" lon="1.18212">
        <ele>158</ele>
        <time>2017-08-08T13:50:13Z</time>
      </trkpt>
      <trkpt lat="49.40528" lon="1.18239">
        <ele>158</ele>
        <time>2017-08-08T13:50:13Z</time>
      </trkpt>
      <trkpt lat="49.40519" lon="1.18263">
        <ele>158</ele>
        <time>2017-08-08T13:50:29Z</time>
      </trkpt>
      <trkpt lat="49.4051" lon="1.18285">
        <ele>158</ele>
        <time>2017-08-08T13:50:29Z</time>
      </trkpt>
      <trkpt lat="49.40505" lon="1.18299">
        <ele>158</ele>
        <time>2017-08-08T13:50:29Z</time>
      </trkpt>
      <trkpt lat="49.40501" lon="1.18305">
        <ele>158</ele>
        <time>2017-08-08T13:50:29Z</time>
      </trkpt>
      <trkpt lat="49.40497" lon="1.1831">
        <ele>158</ele>
        <time>2017-08-08T13:50:45Z</time>
      </trkpt>
      <trkpt lat="49.40495" lon="1.18316">
        <ele>158</ele>
        <time>2017-08-08T13:50:45Z</time>
      </trkpt>
      <trkpt lat="49.40496" lon="1.18318">
        <ele>158</ele>
        <time>2017-08-08T13:50:45Z</time>
      </trkpt>
      <trkpt lat="49.40494" lon="1.18325">
        <ele>158</ele>
        <time>2017-08-08T13:50:45Z</time>
      </trkpt>
      <trkpt lat="49.40491" lon="1.18327">
        <ele>158</ele>
        <time>2017-08-08T13:51:01Z</time>
      </trkpt>
      <trkpt lat="49.40488" lon="1.18331">
        <ele>158</ele>
        <time>2017-08-08T13:51:01Z</time>
      </trkpt>
      <trkpt lat="49.40486" lon="1.1834">
        <ele>158</ele>
        <time>2017-08-08T13:51:01Z</time>
      </trkpt>
      <trkpt lat="49.40484" lon="1.1835">
        <ele>158</ele>
        <time>2017-08-08T13:51:01Z</time>
      </trkpt>
      <trkpt lat="49.40482" lon="1.18358">
        <ele>158</ele>
        <time>2017-08-08T13:51:18Z</time>
      </trkpt>
      <trkpt lat="49.40479" lon="1.18363">
        <ele>158</ele>
        <time>2017-08-08T13:51:18Z</time>
      </trkpt>
      <trkpt lat="49.40477" lon="1.1837">
        <ele>158</ele>
        <time>2017-08-08T13:51:18Z</time>
      </trkpt>
      <trkpt lat="49.40477" lon="1.18378">
        <ele>158</ele>
        <time>2017-08-08T13:51:18Z</time>
      </trkpt>
      <trkpt lat="49.40477" lon="1.18384">
        <ele>158</ele>
        <time>2017-08-08T13:51:35Z</time>
      </trkpt>
      <trkpt lat="49.4048" lon="1.18395">
        <ele>158</ele>
        <time>2017-08-08T13:51:35Z</time>
      </trkpt>
      <trkpt lat="49.40481" lon="1.18402">
        <ele>158</ele>
        <time>2017-08-08T13:51:35Z</time>
      </trkpt>
      <trkpt lat="49.40482" lon="1.18411">
        <ele>158</ele>
        <time>2017-08-08T13:51:35Z</time>
      </trkpt>
      <trkpt lat="49.40485" lon="1.18417">
        <ele>158</ele>
        <time>2017-08-08T13:51:54Z</time>
      </trkpt>
      <trkpt lat="49.40486" lon="1.18421">
        <ele>158</ele>
        <time>2017-08-08T13:51:54Z</time>
      </trkpt>
      <trkpt lat="49.40487" lon="1.18423">
        <ele>158</ele>
        <time>2017-08-08T13:51:54Z</time>
      </trkpt>
      <trkpt lat="49.40489" lon="1.18427">
        <ele>158</ele>
        <time>2017-08-08T13:51:54Z</time>
      </trkpt>
      <trkpt lat="49.40489" lon="1.18431">
        <ele>158</ele>
        <time>2017-08-08T13:51:54Z</time>
      </trkpt>
      <trkpt lat="49.40489" lon="1.1844">
        <ele>158</ele>
        <time>2017-08-08T13:52:10Z</time>
      </trkpt>
      <trkpt lat="49.40496" lon="1.18452">
        <ele>158</ele>
        <time>2017-08-08T13:52:10Z</time>
      </trkpt>
      <trkpt lat="49.405" lon="1.18458">
        <ele>158</ele>
        <time>2017-08-08T13:52:10Z</time>
      </trkpt>
      <trkpt lat="49.40502" lon="1.18462">
        <ele>157</ele>
        <time>2017-08-08T13:52:10Z</time>
      </trkpt>
      <trkpt lat="49.40502" lon="1.18465">
        <ele>157</ele>
        <time>2017-08-08T13:52:54Z</time>
      </trkpt>
      <trkpt lat="49.40541" lon="1.18559">
        <ele>158</ele>
        <time>2017-08-08T13:52:54Z</time>
      </trkpt>
      <trkpt lat="49.4055" lon="1.18562">
        <ele>157</ele>
        <time>2017-08-08T13:52:54Z</time>
      </trkpt>
      <trkpt lat="49.40549" lon="1.18567">
        <ele>157</ele>
        <time>2017-08-08T13:52:54Z</time>
      </trkpt>
      <trkpt lat="49.40554" lon="1.18574">
        <ele>157</ele>
        <time>2017-08-08T13:53:10Z</time>
      </trkpt>
      <trkpt lat="49.40559" lon="1.1858">
        <ele>157</ele>
        <time>2017-08-08T13:53:10Z</time>
      </trkpt>
      <trkpt lat="49.40562" lon="1.18584">
        <ele>157</ele>
        <time>2017-08-08T13:53:10Z</time>
      </trkpt>
      <trkpt lat="49.40566" lon="1.18595">
        <ele>157</ele>
        <time>2017-08-08T13:53:10Z</time>
      </trkpt>
      <trkpt lat="49.40568" lon="1.18605">
        <ele>157</ele>
        <time>2017-08-08T13:53:26Z</time>
      </trkpt>
      <trkpt lat="49.4057" lon="1.18614">
        <ele>157</ele>
        <time>2017-08-08T13:53:26Z</time>
      </trkpt>
      <trkpt lat="49.40572" lon="1.18621">
        <ele>157</ele>
        <time>2017-08-08T13:53:26Z</time>
      </trkpt>
      <trkpt lat="49.40572" lon="1.18627">
        <ele>155</ele>
        <time>2017-08-08T13:53:26Z</time>
      </trkpt>
      <trkpt lat="49.40574" lon="1.18634">
        <ele>155</ele>
        <time>2017-08-08T13:53:42Z</time>
      </trkpt>
      <trkpt lat="49.40578" lon="1.1864">
        <ele>155</ele>
        <time>2017-08-08T13:53:42Z</time>
      </trkpt>
      <trkpt lat="49.4058" lon="1.18645">
        <ele>155</ele>
        <time>2017-08-08T13:53:42Z</time>
      </trkpt>
      <trkpt lat="49.40582" lon="1.18648">
        <ele>155</ele>
        <time>2017-08-08T13:53:42Z</time>
      </trkpt>
      <trkpt lat="49.40588" lon="1.18661">
        <ele>155</ele>
        <time>2017-08-08T13:54:06Z</time>
      </trkpt>
      <trkpt lat="49.40589" lon="1.18662">
        <ele>155</ele>
        <time>2017-08-08T13:54:06Z</time>
      </trkpt>
      <trkpt lat="49.40589" lon="1.18663">
        <ele>155</ele>
        <time>2017-08-08T13:54:06Z</time>
      </trkpt>
      <trkpt lat="49.40589" lon="1.18663">
        <ele>155</ele>
        <time>2017-08-08T13:54:06Z</time>
      </trkpt>
      <trkpt lat="49.40591" lon="1.18666">
        <ele>155</ele>
        <time>2017-08-08T13:54:06Z</time>
      </trkpt>
      <trkpt lat="49.40593" lon="1.1867">
        <ele>155</ele>
        <time>2017-08-08T13:54:22Z</time>
      </trkpt>
      <trkpt lat="49.40596" lon="1.18675">
        <ele>155</ele>
        <time>2017-08-08T13:54:22Z</time>
      </trkpt>
      <trkpt lat="49.40598" lon="1.18678">
        <ele>155</ele>
        <time>2017-08-08T13:54:22Z</time>
      </trkpt>
      <trkpt lat="49.406" lon="1.18682">
        <ele>155</ele>
        <time>2017-08-08T13:54:22Z</time>
      </trkpt>
      <trkpt lat="49.40602" lon="1.18689">
        <ele>155</ele>
        <time>2017-08-08T13:54:38Z</time>
      </trkpt>
      <trkpt lat="49.40604" lon="1.18693">
        <ele>155</ele>
        <time>2017-08-08T13:54:38Z</time>
      </trkpt>
      <trkpt lat="49.40607" lon="1.187">
        <ele>155</ele>
        <time>2017-08-08T13:54:38Z</time>
      </trkpt>
      <trkpt lat="49.4061" lon="1.18704">
        <ele>155</ele>
        <time>2017-08-08T13:54:38Z</time>
      </trkpt>
      <trkpt lat="49.40613" lon="1.18711">
        <ele>155</ele>
        <time>2017-08-08T13:54:59Z</time>
      </trkpt>
      <trkpt lat="49.40614" lon="1.18715">
        <ele>155</ele>
        <time>2017-08-08T13:54:59Z</time>
      </trkpt>
      <trkpt lat="49.40616" lon="1.18718">
        <ele>155</ele>
        <time>2017-08-08T13:54:59Z</time>
      </trkpt>
      <trkpt lat="49.40616" lon="1.18719">
        <ele>155</ele>
        <time>2017-08-08T13:54:59Z</time>
      </trkpt>
      <trkpt lat="49.40616" lon="1.18724">
        <ele>155</ele>
        <time>2017-08-08T13:54:59Z</time>
      </trkpt>
      <trkpt lat="49.40617" lon="1.18727">
        <ele>155</ele>
        <time>2017-08-08T13:55:18Z</time>
      </trkpt>
      <trkpt lat="49.40618" lon="1.1873">
        <ele>155</ele>
        <time>2017-08-08T13:55:18Z</time>
      </trkpt>
      <trkpt lat="49.40619" lon="1.18735">
        <ele>155</ele>
        <time>2017-08-08T13:55:18Z</time>
      </trkpt>
      <trkpt lat="49.4062" lon="1.18737">
        <ele>155</ele>
        <time>2017-08-08T13:55:18Z</time>
      </trkpt>
      <trkpt lat="49.40622" lon="1.18742">
        <ele>155</ele>
        <time>2017-08-08T13:55:18Z</time>
      </trkpt>
      <trkpt lat="49.40624" lon="1.18748">
        <ele>155</ele>
        <time>2017-08-08T13:55:39Z</time>
      </trkpt>
      <trkpt lat="49.40626" lon="1.18754">
        <ele>152</ele>
        <time>2017-08-08T13:55:39Z</time>
      </trkpt>
      <trkpt lat="49.40627" lon="1.18757">
        <ele>152</ele>
        <time>2017-08-08T13:55:39Z</time>
      </trkpt>
      <trkpt lat="49.40628" lon="1.1876">
        <ele>152</ele>
        <time>2017-08-08T13:55:39Z</time>
      </trkpt>
      <trkpt lat="49.40631" lon="1.18764">
        <ele>152</ele>
        <time>2017-08-08T13:55:39Z</time>
      </trkpt>
      <trkpt lat="49.40633" lon="1.18776">
        <ele>152</ele>
        <time>2017-08-08T13:56:18Z</time>
      </trkpt>
      <trkpt lat="49.40633" lon="1.18778">
        <ele>152</ele>
        <time>2017-08-08T13:56:18Z</time>
      </trkpt>
      <trkpt lat="49.40633" lon="1.18779">
        <ele>152</ele>
        <time>2017-08-08T13:56:18Z</time>
      </trkpt>
      <trkpt lat="49.40633" lon="1.1878">
        <ele>152</ele>
        <time>2017-08-08T13:56:18Z</time>
      </trkpt>
      <trkpt lat="49.40634" lon="1.18781">
        <ele>152</ele>
        <time>2017-08-08T13:56:18Z</time>
      </trkpt>
      <trkpt lat="49.40635" lon="1.18785">
        <ele>152</ele>
        <time>2017-08-08T13:58:30Z</time>
      </trkpt>
      <trkpt lat="49.40635" lon="1.18785">
        <ele>152</ele>
        <time>2017-08-08T13:58:30Z</time>
      </trkpt>
      <trkpt lat="49.40635" lon="1.18786">
        <ele>152</ele>
        <time>2017-08-08T13:58:30Z</time>
      </trkpt>
      <trkpt lat="49.40634" lon="1.18787">
        <ele>152</ele>
        <time>2017-08-08T13:58:30Z</time>
      </trkpt>
      <trkpt lat="49.40629" lon="1.18845">
        <ele>151</ele>
        <time>2017-08-08T13:58:30Z</time>
      </trkpt>
      <trkpt lat="49.40628" lon="1.18854">
        <ele>151</ele>
        <time>2017-08-08T13:59:06Z</time>
      </trkpt>
      <trkpt lat="49.40809" lon="1.19173">
        <ele>142</ele>
        <time>2017-08-08T13:59:06Z</time>
      </trkpt>
      <trkpt lat="49.4081" lon="1.19176">
        <ele>142</ele>
        <time>2017-08-08T13:59:06Z</time>
      </trkpt>
      <trkpt lat="49.40813" lon="1.19184">
        <ele>142</ele>
        <time>2017-08-08T13:59:06Z</time>
      </trkpt>
      <trkpt lat="49.40816" lon="1.19191">
        <ele>142</ele>
        <time>2017-08-08T13:59:22Z</time>
      </trkpt>
      <trkpt lat="49.40817" lon="1.19195">
        <ele>142</ele>
        <time>2017-08-08T13:59:22Z</time>
      </trkpt>
      <trkpt lat="49.40819" lon="1.19202">
        <ele>142</ele>
        <time>2017-08-08T13:59:22Z</time>
      </trkpt>
      <trkpt lat="49.40822" lon="1.19209">
        <ele>140</ele>
        <time>2017-08-08T13:59:22Z</time>
      </trkpt>
      <trkpt lat="49.40826" lon="1.1922">
        <ele>140</ele>
        <time>2017-08-08T13:59:37Z</time>
      </trkpt>
      <trkpt lat="49.40828" lon="1.19225">
        <ele>140</ele>
        <time>2017-08-08T13:59:37Z</time>
      </trkpt>
      <trkpt lat="49.40832" lon="1.19232">
        <ele>140</ele>
        <time>2017-08-08T13:59:37Z</time>
      </trkpt>
      <trkpt lat="49.40834" lon="1.19238">
        <ele>140</ele>
        <time>2017-08-08T13:59:37Z</time>
      </trkpt>
      <trkpt lat="49.40837" lon="1.19245">
        <ele>140</ele>
        <time>2017-08-08T13:59:54Z</time>
      </trkpt>
      <trkpt lat="49.40839" lon="1.19253">
        <ele>140</ele>
        <time>2017-08-08T13:59:54Z</time>
      </trkpt>
      <trkpt lat="49.40841" lon="1.19258">
        <ele>140</ele>
        <time>2017-08-08T13:59:54Z</time>
      </trkpt>
      <trkpt lat="49.40844" lon="1.19265">
        <ele>140</ele>
        <time>2017-08-08T13:59:54Z</time>
      </trkpt>
      <trkpt lat="49.40846" lon="1.19271">
        <ele>140</ele>
        <time>2017-08-08T14:00:10Z</time>
      </trkpt>
      <trkpt lat="49.40848" lon="1.19279">
        <ele>140</ele>
        <time>2017-08-08T14:00:10Z</time>
      </trkpt>
      <trkpt lat="49.40851" lon="1.19285">
        <ele>140</ele>
        <time>2017-08-08T14:00:10Z</time>
      </trkpt>
      <trkpt lat="49.40855" lon="1.19294">
        <ele>140</ele>
        <time>2017-08-08T14:00:10Z</time>
      </trkpt>
      <trkpt lat="49.40857" lon="1.19301">
        <ele>140</ele>
        <time>2017-08-08T14:00:25Z</time>
      </trkpt>
      <trkpt lat="49.40858" lon="1.19307">
        <ele>140</ele>
        <time>2017-08-08T14:00:25Z</time>
      </trkpt>
      <trkpt lat="49.4086" lon="1.19311">
        <ele>140</ele>
        <time>2017-08-08T14:00:25Z</time>
      </trkpt>
      <trkpt lat="49.40863" lon="1.19318">
        <ele>140</ele>
        <time>2017-08-08T14:00:25Z</time>
      </trkpt>
      <trkpt lat="49.40866" lon="1.19323">
        <ele>140</ele>
        <time>2017-08-08T14:00:42Z</time>
      </trkpt>
      <trkpt lat="49.4087" lon="1.1933">
        <ele>140</ele>
        <time>2017-08-08T14:00:42Z</time>
      </trkpt>
      <trkpt lat="49.40872" lon="1.19335">
        <ele>140</ele>
        <time>2017-08-08T14:00:42Z</time>
      </trkpt>
      <trkpt lat="49.40875" lon="1.19342">
        <ele>136</ele>
        <time>2017-08-08T14:00:42Z</time>
      </trkpt>
      <trkpt lat="49.40878" lon="1.19346">
        <ele>136</ele>
        <time>2017-08-08T14:00:58Z</time>
      </trkpt>
      <trkpt lat="49.4088" lon="1.19352">
        <ele>136</ele>
        <time>2017-08-08T14:00:58Z</time>
      </trkpt>
      <trkpt lat="49.40883" lon="1.19358">
        <ele>136</ele>
        <time>2017-08-08T14:00:58Z</time>
      </trkpt>
      <trkpt lat="49.40887" lon="1.19366">
        <ele>136</ele>
        <time>2017-08-08T14:00:58Z</time>
      </trkpt>
      <trkpt lat="49.40888" lon="1.1937">
        <ele>136</ele>
        <time>2017-08-08T14:01:13Z</time>
      </trkpt>
      <trkpt lat="49.40891" lon="1.19378">
        <ele>136</ele>
        <time>2017-08-08T14:01:13Z</time>
      </trkpt>
      <trkpt lat="49.40894" lon="1.19384">
        <ele>136</ele>
        <time>2017-08-08T14:01:13Z</time>
      </trkpt>
      <trkpt lat="49.40897" lon="1.1939">
        <ele>136</ele>
        <time>2017-08-08T14:01:13Z</time>
      </trkpt>
      <trkpt lat="49.409" lon="1.19396">
        <ele>136</ele>
        <time>2017-08-08T14:01:30Z</time>
      </trkpt>
      <trkpt lat="49.40904" lon="1.19404">
        <ele>136</ele>
        <time>2017-08-08T14:01:30Z</time>
      </trkpt>
      <trkpt lat="49.40909" lon="1.19412">
        <ele>136</ele>
        <time>2017-08-08T14:01:30Z</time>
      </trkpt>
      <trkpt lat="49.40911" lon="1.19416">
        <ele>136</ele>
        <time>2017-08-08T14:01:30Z</time>
      </trkpt>
      <trkpt lat="49.40914" lon="1.19423">
        <ele>136</ele>
        <time>2017-08-08T14:01:46Z</time>
      </trkpt>
      <trkpt lat="49.40919" lon="1.19432">
        <ele>136</ele>
        <time>2017-08-08T14:01:46Z</time>
      </trkpt>
      <trkpt lat="49.40922" lon="1.19439">
        <ele>136</ele>
        <time>2017-08-08T14:01:46Z</time>
      </trkpt>
      <trkpt lat="49.40925" lon="1.19446">
        <ele>136</ele>
        <time>2017-08-08T14:01:46Z</time>
      </trkpt>
      <trkpt lat="49.40927" lon="1.19451">
        <ele>136</ele>
        <time>2017-08-08T14:02:01Z</time>
      </trkpt>
      <trkpt lat="49.40929" lon="1.19454">
        <ele>136</ele>
        <time>2017-08-08T14:02:01Z</time>
      </trkpt>
      <trkpt lat="49.40932" lon="1.19464">
        <ele>135</ele>
        <time>2017-08-08T14:02:01Z</time>
      </trkpt>
      <trkpt lat="49.40935" lon="1.1947">
        <ele>135</ele>
        <time>2017-08-08T14:02:01Z</time>
      </trkpt>
      <trkpt lat="49.40938" lon="1.19477">
        <ele>135</ele>
        <time>2017-08-08T14:02:18Z</time>
      </trkpt>
      <trkpt lat="49.40942" lon="1.19484">
        <ele>135</ele>
        <time>2017-08-08T14:02:18Z</time>
      </trkpt>
      <trkpt lat="49.40944" lon="1.19488">
        <ele>135</ele>
        <time>2017-08-08T14:02:18Z</time>
      </trkpt>
      <trkpt lat="49.40947" lon="1.19492">
        <ele>135</ele>
        <time>2017-08-08T14:02:18Z</time>
      </trkpt>
      <trkpt lat="49.40948" lon="1.19501">
        <ele>135</ele>
        <time>2017-08-08T14:02:33Z</time>
      </trkpt>
      <trkpt lat="49.40952" lon="1.19509">
        <ele>135</ele>
        <time>2017-08-08T14:02:33Z</time>
      </trkpt>
      <trkpt lat="49.40957" lon="1.19514">
        <ele>135</ele>
        <time>2017-08-08T14:02:33Z</time>
      </trkpt>
      <trkpt lat="49.40956" lon="1.19523">
        <ele>135</ele>
        <time>2017-08-08T14:02:33Z</time>
      </trkpt>
      <trkpt lat="49.40956" lon="1.1953">
        <ele>135</ele>
        <time>2017-08-08T14:02:49Z</time>
      </trkpt>
      <trkpt lat="49.4096" lon="1.19535">
        <ele>134</ele>
        <time>2017-08-08T14:02:49Z</time>
      </trkpt>
      <trkpt lat="49.40961" lon="1.19543">
        <ele>132</ele>
        <time>2017-08-08T14:02:49Z</time>
      </trkpt>
      <trkpt lat="49.40963" lon="1.1955">
        <ele>132</ele>
        <time>2017-08-08T14:02:49Z</time>
      </trkpt>
      <trkpt lat="49.40965" lon="1.19556">
        <ele>132</ele>
        <time>2017-08-08T14:03:06Z</time>
      </trkpt>
      <trkpt lat="49.40968" lon="1.19564">
        <ele>132</ele>
        <time>2017-08-08T14:03:06Z</time>
      </trkpt>
      <trkpt lat="49.40969" lon="1.19566">
        <ele>132</ele>
        <time>2017-08-08T14:03:06Z</time>
      </trkpt>
      <trkpt lat="49.40973" lon="1.19571">
        <ele>132</ele>
        <time>2017-08-08T14:03:06Z</time>
      </trkpt>
      <trkpt lat="49.40976" lon="1.19577">
        <ele>132</ele>
        <time>2017-08-08T14:03:21Z</time>
      </trkpt>
      <trkpt lat="49.40976" lon="1.19591">
        <ele>132</ele>
        <time>2017-08-08T14:03:21Z</time>
      </trkpt>
      <trkpt lat="49.40977" lon="1.19599">
        <ele>132</ele>
        <time>2017-08-08T14:03:21Z</time>
      </trkpt>
      <trkpt lat="49.40978" lon="1.19607">
        <ele>132</ele>
        <time>2017-08-08T14:03:21Z</time>
      </trkpt>
      <trkpt lat="49.40978" lon="1.19612">
        <ele>132</ele>
        <time>2017-08-08T14:04:11Z</time>
      </trkpt>
      <trkpt lat="49.40993" lon="1.19678">
        <ele>131</ele>
        <time>2017-08-08T14:04:11Z</time>
      </trkpt>
      <trkpt lat="49.40999" lon="1.19685">
        <ele>131</ele>
        <time>2017-08-08T14:04:11Z</time>
      </trkpt>
      <trkpt lat="49.41002" lon="1.19694">
        <ele>131</ele>
        <time>2017-08-08T14:04:11Z</time>
      </trkpt>
      <trkpt lat="49.41002" lon="1.19701">
        <ele>131</ele>
        <time>2017-08-08T14:04:25Z</time>
      </trkpt>
      <trkpt lat="49.41003" lon="1.19707">
        <ele>131</ele>
        <time>2017-08-08T14:04:25Z</time>
      </trkpt>
      <trkpt lat="49.41007" lon="1.19713">
        <ele>131</ele>
        <time>2017-08-08T14:04:25Z</time>
      </trkpt>
      <trkpt lat="49.41007" lon="1.19719">
        <ele>131</ele>
        <time>2017-08-08T14:04:25Z</time>
      </trkpt>
      <trkpt lat="49.41008" lon="1.19727">
        <ele>131</ele>
        <time>2017-08-08T14:04:41Z</time>
      </trkpt>
      <trkpt lat="49.4101" lon="1.19736">
        <ele>131</ele>
        <time>2017-08-08T14:04:41Z</time>
      </trkpt>
      <trkpt lat="49.41011" lon="1.19744">
        <ele>131</ele>
        <time>2017-08-08T14:04:41Z</time>
      </trkpt>
      <trkpt lat="49.41013" lon="1.19752">
        <ele>131</ele>
        <time>2017-08-08T14:04:41Z</time>
      </trkpt>
      <trkpt lat="49.41013" lon="1.19759">
        <ele>131</ele>
        <time>2017-08-08T14:04:58Z</time>
      </trkpt>
      <trkpt lat="49.41014" lon="1.19768">
        <ele>131</ele>
        <time>2017-08-08T14:04:58Z</time>
      </trkpt>
      <trkpt lat="49.41014" lon="1.19776">
        <ele>131</ele>
        <time>2017-08-08T14:04:58Z</time>
      </trkpt>
      <trkpt lat="49.41014" lon="1.19784">
        <ele>131</ele>
        <time>2017-08-08T14:04:58Z</time>
      </trkpt>
      <trkpt lat="49.41014" lon="1.19791">
        <ele>131</ele>
        <time>2017-08-08T14:05:19Z</time>
      </trkpt>
      <trkpt lat="49.41014" lon="1.19794">
        <ele>132</ele>
        <time>2017-08-08T14:05:19Z</time>
      </trkpt>
      <trkpt lat="49.41014" lon="1.19797">
        <ele>132</ele>
        <time>2017-08-08T14:05:19Z</time>
      </trkpt>
      <trkpt lat="49.41014" lon="1.198">
        <ele>132</ele>
        <time>2017-08-08T14:05:19Z</time>
      </trkpt>
      <trkpt lat="49.41014" lon="1.19806">
        <ele>132</ele>
        <time>2017-08-08T14:05:19Z</time>
      </trkpt>
      <trkpt lat="49.41014" lon="1.19815">
        <ele>132</ele>
        <time>2017-08-08T14:05:33Z</time>
      </trkpt>
      <trkpt lat="49.41014" lon="1.19822">
        <ele>132</ele>
        <time>2017-08-08T14:05:33Z</time>
      </trkpt>
      <trkpt lat="49.41013" lon="1.19826">
        <ele>132</ele>
        <time>2017-08-08T14:05:33Z</time>
      </trkpt>
      <trkpt lat="49.41012" lon="1.1983">
        <ele>132</ele>
        <time>2017-08-08T14:05:33Z</time>
      </trkpt>
      <trkpt lat="49.41012" lon="1.19835">
        <ele>132</ele>
        <time>2017-08-08T14:05:49Z</time>
      </trkpt>
      <trkpt lat="49.41012" lon="1.19839">
        <ele>132</ele>
        <time>2017-08-08T14:05:49Z</time>
      </trkpt>
      <trkpt lat="49.41012" lon="1.19846">
        <ele>132</ele>
        <time>2017-08-08T14:05:49Z</time>
      </trkpt>
      <trkpt lat="49.41012" lon="1.19856">
        <ele>132</ele>
        <time>2017-08-08T14:05:49Z</time>
      </trkpt>
      <trkpt lat="49.41012" lon="1.19863">
        <ele>132</ele>
        <time>2017-08-08T14:06:06Z</time>
      </trkpt>
      <trkpt lat="49.41012" lon="1.19869">
        <ele>132</ele>
        <time>2017-08-08T14:06:06Z</time>
      </trkpt>
      <trkpt lat="49.41012" lon="1.19875">
        <ele>132</ele>
        <time>2017-08-08T14:06:06Z</time>
      </trkpt>
      <trkpt lat="49.41011" lon="1.19881">
        <ele>132</ele>
        <time>2017-08-08T14:06:06Z</time>
      </trkpt>
      <trkpt lat="49.41011" lon="1.19886">
        <ele>132</ele>
        <time>2017-08-08T14:06:21Z</time>
      </trkpt>
      <trkpt lat="49.41011" lon="1.19888">
        <ele>132</ele>
        <time>2017-08-08T14:06:21Z</time>
      </trkpt>
      <trkpt lat="49.41009" lon="1.19898">
        <ele>132</ele>
        <time>2017-08-08T14:06:21Z</time>
      </trkpt>
      <trkpt lat="49.41007" lon="1.19904">
        <ele>132</ele>
        <time>2017-08-08T14:06:21Z</time>
      </trkpt>
      <trkpt lat="49.41005" lon="1.19905">
        <ele>132</ele>
        <time>2017-08-08T14:06:41Z</time>
      </trkpt>
      <trkpt lat="49.41003" lon="1.19908">
        <ele>132</ele>
        <time>2017-08-08T14:06:41Z</time>
      </trkpt>
      <trkpt lat="49.41" lon="1.1991">
        <ele>132</ele>
        <time>2017-08-08T14:06:41Z</time>
      </trkpt>
      <trkpt lat="49.40998" lon="1.19913">
        <ele>132</ele>
        <time>2017-08-08T14:06:41Z</time>
      </trkpt>
      <trkpt lat="49.40996" lon="1.19916">
        <ele>132</ele>
        <time>2017-08-08T14:06:41Z</time>
      </trkpt>
      <trkpt lat="49.40994" lon="1.1992">
        <ele>132</ele>
        <time>2017-08-08T14:07:01Z</time>
      </trkpt>
      <trkpt lat="49.40995" lon="1.19923">
        <ele>132</ele>
        <time>2017-08-08T14:07:01Z</time>
      </trkpt>
      <trkpt lat="49.40994" lon="1.19927">
        <ele>132</ele>
        <time>2017-08-08T14:07:01Z</time>
      </trkpt>
      <trkpt lat="49.40993" lon="1.19931">
        <ele>132</ele>
        <time>2017-08-08T14:07:01Z</time>
      </trkpt>
      <trkpt lat="49.40992" lon="1.19936">
        <ele>132</ele>
        <time>2017-08-08T14:07:01Z</time>
      </trkpt>
      <trkpt lat="49.40991" lon="1.1994">
        <ele>132</ele>
        <time>2017-08-08T14:07:21Z</time>
      </trkpt>
      <trkpt lat="49.4099" lon="1.19944">
        <ele>132</ele>
        <time>2017-08-08T14:07:21Z</time>
      </trkpt>
      <trkpt lat="49.40989" lon="1.19948">
        <ele>132</ele>
        <time>2017-08-08T14:07:21Z</time>
      </trkpt>
      <trkpt lat="49.40988" lon="1.19953">
        <ele>132</ele>
        <time>2017-08-08T14:07:21Z</time>
      </trkpt>
      <trkpt lat="49.40988" lon="1.19957">
        <ele>132</ele>
        <time>2017-08-08T14:07:21Z</time>
      </trkpt>
      <trkpt lat="49.40987" lon="1.19961">
        <ele>132</ele>
        <time>2017-08-08T14:07:42Z</time>
      </trkpt>
      <trkpt lat="49.40986" lon="1.19965">
        <ele>132</ele>
        <time>2017-08-08T14:07:42Z</time>
      </trkpt>
      <trkpt lat="49.40985" lon="1.1997">
        <ele>132</ele>
        <time>2017-08-08T14:07:42Z</time>
      </trkpt>
      <trkpt lat="49.40984" lon="1.19974">
        <ele>132</ele>
        <time>2017-08-08T14:07:42Z</time>
      </trkpt>
      <trkpt lat="49.40983" lon="1.19978">
        <ele>132</ele>
        <time>2017-08-08T14:07:42Z</time>
      </trkpt>
      <trkpt lat="49.40978" lon="1.2004">
        <ele>132</ele>
        <time>2017-08-08T14:07:58Z</time>
      </trkpt>
      <trkpt lat="49.40971" lon="1.20063">
        <ele>132</ele>
        <time>2017-08-08T14:07:58Z</time>
      </trkpt>
      <trkpt lat="49.40966" lon="1.20079">
        <ele>132</ele>
        <time>2017-08-08T14:07:58Z</time>
      </trkpt>
      <trkpt lat="49.40964" lon="1.20089">
        <ele>132</ele>
        <time>2017-08-08T14:07:58Z</time>
      </trkpt>
      <trkpt lat="49.40961" lon="1.20099">
        <ele>132</ele>
        <time>2017-08-08T14:08:14Z</time>
      </trkpt>
      <trkpt lat="49.40958" lon="1.20106">
        <ele>135</ele>
        <time>2017-08-08T14:08:14Z</time>
      </trkpt>
      <trkpt lat="49.40955" lon="1.20115">
        <ele>135</ele>
        <time>2017-08-08T14:08:14Z</time>
      </trkpt>
      <trkpt lat="49.40952" lon="1.20125">
        <ele>135</ele>
        <time>2017-08-08T14:08:14Z</time>
      </trkpt>
      <trkpt lat="49.40951" lon="1.20131">
        <ele>134</ele>
        <time>2017-08-08T14:09:01Z</time>
      </trkpt>
      <trkpt lat="49.40952" lon="1.20138">
        <ele>134</ele>
        <time>2017-08-08T14:09:01Z</time>
      </trkpt>
      <trkpt lat="49.40955" lon="1.20144">
        <ele>134</ele>
        <time>2017-08-08T14:09:01Z</time>
      </trkpt>
      <trkpt lat="49.40956" lon="1.20148">
        <ele>134</ele>
        <time>2017-08-08T14:09:01Z</time>
      </trkpt>
      <trkpt lat="49.40981" lon="1.20215">
        <ele>130</ele>
        <time>2017-08-08T14:09:26Z</time>
      </trkpt>
      <trkpt lat="49.40984" lon="1.20225">
        <ele>130</ele>
        <time>2017-08-08T14:09:26Z</time>
      </trkpt>
      <trkpt lat="49.40987" lon="1.20231">
        <ele>130</ele>
        <time>2017-08-08T14:09:26Z</time>
      </trkpt>
      <trkpt lat="49.40991" lon="1.20237">
        <ele>130</ele>
        <time>2017-08-08T14:09:26Z</time>
      </trkpt>
      <trkpt lat="49.40994" lon="1.20242">
        <ele>130</ele>
        <time>2017-08-08T14:09:26Z</time>
      </trkpt>
      <trkpt lat="49.40997" lon="1.20248">
        <ele>130</ele>
        <time>2017-08-08T14:09:42Z</time>
      </trkpt>
      <trkpt lat="49.40999" lon="1.20253">
        <ele>130</ele>
        <time>2017-08-08T14:09:42Z</time>
      </trkpt>
      <trkpt lat="49.41003" lon="1.20261">
        <ele>130</ele>
        <time>2017-08-08T14:09:42Z</time>
      </trkpt>
      <trkpt lat="49.41005" lon="1.20265">
        <ele>130</ele>
        <time>2017-08-08T14:09:42Z</time>
      </trkpt>
      <trkpt lat="49.41008" lon="1.20271">
        <ele>130</ele>
        <time>2017-08-08T14:09:58Z</time>
      </trkpt>
      <trkpt lat="49.41012" lon="1.20279">
        <ele>130</ele>
        <time>2017-08-08T14:09:58Z</time>
      </trkpt>
      <trkpt lat="49.41014" lon="1.20284">
        <ele>130</ele>
        <time>2017-08-08T14:09:58Z</time>
      </trkpt>
      <trkpt lat="49.41017" lon="1.20289">
        <ele>130</ele>
        <time>2017-08-08T14:09:58Z</time>
      </trkpt>
      <trkpt lat="49.41022" lon="1.20299">
        <ele>129</ele>
        <time>2017-08-08T14:10:13Z</time>
      </trkpt>
      <trkpt lat="49.41025" lon="1.20304">
        <ele>129</ele>
        <time>2017-08-08T14:10:13Z</time>
      </trkpt>
      <trkpt lat="49.41028" lon="1.20311">
        <ele>129</ele>
        <time>2017-08-08T14:10:13Z</time>
      </trkpt>
      <trkpt lat="49.4103" lon="1.20314">
        <ele>129</ele>
        <time>2017-08-08T14:10:13Z</time>
      </trkpt>
      <trkpt lat="49.41033" lon="1.20322">
        <ele>129</ele>
        <time>2017-08-08T14:10:30Z</time>
      </trkpt>
      <trkpt lat="49.41035" lon="1.20328">
        <ele>129</ele>
        <time>2017-08-08T14:10:30Z</time>
      </trkpt>
      <trkpt lat="49.41038" lon="1.20333">
        <ele>129</ele>
        <time>2017-08-08T14:10:30Z</time>
      </trkpt>
      <trkpt lat="49.41041" lon="1.20339">
        <ele>129</ele>
        <time>2017-08-08T14:10:30Z</time>
      </trkpt>
      <trkpt lat="49.41043" lon="1.2034">
        <ele>123</ele>
        <time>2017-08-08T14:10:46Z</time>
      </trkpt>
      <trkpt lat="49.41047" lon="1.20346">
        <ele>123</ele>
        <time>2017-08-08T14:10:46Z</time>
      </trkpt>
      <trkpt lat="49.41051" lon="1.2035">
        <ele>123</ele>
        <time>2017-08-08T14:10:46Z</time>
      </trkpt>
      <trkpt lat="49.41055" lon="1.20354">
        <ele>123</ele>
        <time>2017-08-08T14:10:46Z</time>
      </trkpt>
      <trkpt lat="49.4106" lon="1.20357">
        <ele>123</ele>
        <time>2017-08-08T14:11:02Z</time>
      </trkpt>
      <trkpt lat="49.41067" lon="1.2036">
        <ele>123</ele>
        <time>2017-08-08T14:11:02Z</time>
      </trkpt>
      <trkpt lat="49.4107" lon="1.2036">
        <ele>123</ele>
        <time>2017-08-08T14:11:02Z</time>
      </trkpt>
      <trkpt lat="49.41078" lon="1.20362">
        <ele>123</ele>
        <time>2017-08-08T14:11:02Z</time>
      </trkpt>
      <trkpt lat="49.41083" lon="1.20364">
        <ele>123</ele>
        <time>2017-08-08T14:11:18Z</time>
      </trkpt>
      <trkpt lat="49.41089" lon="1.20365">
        <ele>123</ele>
        <time>2017-08-08T14:11:18Z</time>
      </trkpt>
      <trkpt lat="49.41094" lon="1.20366">
        <ele>123</ele>
        <time>2017-08-08T14:11:18Z</time>
      </trkpt>
      <trkpt lat="49.41099" lon="1.20366">
        <ele>123</ele>
        <time>2017-08-08T14:11:18Z</time>
      </trkpt>
      <trkpt lat="49.41101" lon="1.20366">
        <ele>123</ele>
        <time>2017-08-08T14:11:34Z</time>
      </trkpt>
      <trkpt lat="49.41107" lon="1.20367">
        <ele>123</ele>
        <time>2017-08-08T14:11:34Z</time>
      </trkpt>
      <trkpt lat="49.41109" lon="1.20368">
        <ele>123</ele>
        <time>2017-08-08T14:11:34Z</time>
      </trkpt>
      <trkpt lat="49.41113" lon="1.20372">
        <ele>123</ele>
        <time>2017-08-08T14:11:34Z</time>
      </trkpt>
      <trkpt lat="49.41117" lon="1.20375">
        <ele>123</ele>
        <time>2017-08-08T14:11:50Z</time>
      </trkpt>
      <trkpt lat="49.41125" lon="1.20382">
        <ele>120</ele>
        <time>2017-08-08T14:11:50Z</time>
      </trkpt>
      <trkpt lat="49.41128" lon="1.20386">
        <ele>120</ele>
        <time>2017-08-08T14:11:50Z</time>
      </trkpt>
      <trkpt lat="49.41132" lon="1.20394">
        <ele>120</ele>
        <time>2017-08-08T14:11:50Z</time>
      </trkpt>
      <trkpt lat="49.41131" lon="1.20397">
        <ele>120</ele>
        <time>2017-08-08T14:12:06Z</time>
      </trkpt>
      <trkpt lat="49.41134" lon="1.20398">
        <ele>120</ele>
        <time>2017-08-08T14:12:06Z</time>
      </trkpt>
      <trkpt lat="49.41138" lon="1.20401">
        <ele>120</ele>
        <time>2017-08-08T14:12:06Z</time>
      </trkpt>
      <trkpt lat="49.41141" lon="1.20406">
        <ele>120</ele>
        <time>2017-08-08T14:12:06Z</time>
      </trkpt>
      <trkpt lat="49.41146" lon="1.20414">
        <ele>120</ele>
        <time>2017-08-08T14:12:22Z</time>
      </trkpt>
      <trkpt lat="49.41146" lon="1.20423">
        <ele>120</ele>
        <time>2017-08-08T14:12:22Z</time>
      </trkpt>
      <trkpt lat="49.41148" lon="1.20432">
        <ele>120</ele>
        <time>2017-08-08T14:12:22Z</time>
      </trkpt>
      <trkpt lat="49.41152" lon="1.20438">
        <ele>120</ele>
        <time>2017-08-08T14:12:22Z</time>
      </trkpt>
      <trkpt lat="49.41153" lon="1.20444">
        <ele>120</ele>
        <time>2017-08-08T14:12:38Z</time>
      </trkpt>
      <trkpt lat="49.41156" lon="1.20449">
        <ele>120</ele>
        <time>2017-08-08T14:12:38Z</time>
      </trkpt>
      <trkpt lat="49.41156" lon="1.20457">
        <ele>120</ele>
        <time>2017-08-08T14:12:38Z</time>
      </trkpt>
      <trkpt lat="49.41158" lon="1.20465">
        <ele>115</ele>
        <time>2017-08-08T14:12:38Z</time>
      </trkpt>
      <trkpt lat="49.41159" lon="1.20473">
        <ele>115</ele>
        <time>2017-08-08T14:12:55Z</time>
      </trkpt>
      <trkpt lat="49.41158" lon="1.20484">
        <ele>115</ele>
        <time>2017-08-08T14:12:55Z</time>
      </trkpt>
      <trkpt lat="49.41158" lon="1.20489">
        <ele>115</ele>
        <time>2017-08-08T14:12:55Z</time>
      </trkpt>
      <trkpt lat="49.41161" lon="1.20497">
        <ele>115</ele>
        <time>2017-08-08T14:12:55Z</time>
      </trkpt>
      <trkpt lat="49.4117" lon="1.20506">
        <ele>115</ele>
        <time>2017-08-08T14:14:10Z</time>
      </trkpt>
      <trkpt lat="49.41169" lon="1.20508">
        <ele>115</ele>
        <time>2017-08-08T14:14:10Z</time>
      </trkpt>
      <trkpt lat="49.41176" lon="1.20512">
        <ele>115</ele>
        <time>2017-08-08T14:14:10Z</time>
      </trkpt>
      <trkpt lat="49.41181" lon="1.20567">
        <ele>105</ele>
        <time>2017-08-08T14:14:10Z</time>
      </trkpt>
      <trkpt lat="49.41182" lon="1.20577">
        <ele>105</ele>
        <time>2017-08-08T14:14:10Z</time>
      </trkpt>
      <trkpt lat="49.4118" lon="1.2058">
        <ele>105</ele>
        <time>2017-08-08T14:14:26Z</time>
      </trkpt>
      <trkpt lat="49.41181" lon="1.2058">
        <ele>105</ele>
        <time>2017-08-08T14:14:26Z</time>
      </trkpt>
      <trkpt lat="49.41183" lon="1.20584">
        <ele>105</ele>
        <time>2017-08-08T14:14:26Z</time>
      </trkpt>
      <trkpt lat="49.4119" lon="1.20584">
        <ele>105</ele>
        <time>2017-08-08T14:14:26Z</time>
      </trkpt>
      <trkpt lat="49.41195" lon="1.2059">
        <ele>105</ele>
        <time>2017-08-08T14:15:06Z</time>
      </trkpt>
      <trkpt lat="49.41201" lon="1.20604">
        <ele>105</ele>
        <time>2017-08-08T14:15:06Z</time>
      </trkpt>
      <trkpt lat="49.41204" lon="1.20613">
        <ele>105</ele>
        <time>2017-08-08T14:15:06Z</time>
      </trkpt>
      <trkpt lat="49.41205" lon="1.20615">
        <ele>105</ele>
        <time>2017-08-08T14:15:06Z</time>
      </trkpt>
      <trkpt lat="49.41205" lon="1.20615">
        <ele>105</ele>
        <time>2017-08-08T14:15:06Z</time>
      </trkpt>
      <trkpt lat="49.41207" lon="1.20625">
        <ele>92</ele>
        <time>2017-08-08T14:15:42Z</time>
      </trkpt>
      <trkpt lat="49.41209" lon="1.20633">
        <ele>80</ele>
        <time>2017-08-08T14:15:42Z</time>
      </trkpt>
      <trkpt lat="49.4121" lon="1.20638">
        <ele>80</ele>
        <time>2017-08-08T14:15:42Z</time>
      </trkpt>
      <trkpt lat="49.41207" lon="1.20645">
        <ele>92</ele>
        <time>2017-08-08T14:15:42Z</time>
      </trkpt>
      <trkpt lat="49.41205" lon="1.20656">
        <ele>92</ele>
        <time>2017-08-08T14:15:42Z</time>
      </trkpt>
      <trkpt lat="49.41205" lon="1.20672">
        <ele>92</ele>
        <time>2017-08-08T14:15:58Z</time>
      </trkpt>
      <trkpt lat="49.41206" lon="1.20684">
        <ele>92</ele>
        <time>2017-08-08T14:15:58Z</time>
      </trkpt>
      <trkpt lat="49.41206" lon="1.20698">
        <ele>92</ele>
        <time>2017-08-08T14:15:58Z</time>
      </trkpt>
      <trkpt lat="49.41206" lon="1.20706">
        <ele>92</ele>
        <time>2017-08-08T14:15:58Z</time>
      </trkpt>
      <trkpt lat="49.41206" lon="1.20711">
        <ele>83</ele>
        <time>2017-08-08T14:16:14Z</time>
      </trkpt>
      <trkpt lat="49.41207" lon="1.20717">
        <ele>83</ele>
        <time>2017-08-08T14:16:14Z</time>
      </trkpt>
      <trkpt lat="49.41206" lon="1.20725">
        <ele>83</ele>
        <time>2017-08-08T14:16:14Z</time>
      </trkpt>
      <trkpt lat="49.41207" lon="1.20729">
        <ele>83</ele>
        <time>2017-08-08T14:16:14Z</time>
      </trkpt>
      <trkpt lat="49.4121" lon="1.2073">
        <ele>78</ele>
        <time>2017-08-08T14:19:07Z</time>
      </trkpt>
      <trkpt lat="49.4121" lon="1.2073">
        <ele>78</ele>
        <time>2017-08-08T14:19:07Z</time>
      </trkpt>
      <trkpt lat="49.4121" lon="1.20728">
        <ele>78</ele>
        <time>2017-08-08T14:19:07Z</time>
      </trkpt>
      <trkpt lat="49.4121" lon="1.20728">
        <ele>78</ele>
        <time>2017-08-08T14:19:07Z</time>
      </trkpt>
      <trkpt lat="49.41216" lon="1.20741">
        <ele>78</ele>
        <time>2017-08-08T14:19:07Z</time>
      </trkpt>
      <trkpt lat="49.41214" lon="1.20744">
        <ele>78</ele>
        <time>2017-08-08T14:19:22Z</time>
      </trkpt>
      <trkpt lat="49.4122" lon="1.2074">
        <ele>78</ele>
        <time>2017-08-08T14:19:22Z</time>
      </trkpt>
      <trkpt lat="49.41224" lon="1.20741">
        <ele>78</ele>
        <time>2017-08-08T14:19:22Z</time>
      </trkpt>
      <trkpt lat="49.41226" lon="1.20744">
        <ele>78</ele>
        <time>2017-08-08T14:19:22Z</time>
      </trkpt>
      <trkpt lat="49.41231" lon="1.20748">
        <ele>78</ele>
        <time>2017-08-08T14:19:38Z</time>
      </trkpt>
      <trkpt lat="49.41237" lon="1.20751">
        <ele>78</ele>
        <time>2017-08-08T14:19:38Z</time>
      </trkpt>
      <trkpt lat="49.41238" lon="1.20753">
        <ele>78</ele>
        <time>2017-08-08T14:19:38Z</time>
      </trkpt>
      <trkpt lat="49.41241" lon="1.20754">
        <ele>78</ele>
        <time>2017-08-08T14:19:38Z</time>
      </trkpt>
      <trkpt lat="49.41246" lon="1.20757">
        <ele>78</ele>
        <time>2017-08-08T14:19:54Z</time>
      </trkpt>
      <trkpt lat="49.41252" lon="1.20763">
        <ele>78</ele>
        <time>2017-08-08T14:19:54Z</time>
      </trkpt>
      <trkpt lat="49.41256" lon="1.20766">
        <ele>78</ele>
        <time>2017-08-08T14:19:54Z</time>
      </trkpt>
      <trkpt lat="49.41257" lon="1.20767">
        <ele>78</ele>
        <time>2017-08-08T14:19:54Z</time>
      </trkpt>
      <trkpt lat="49.41261" lon="1.20771">
        <ele>78</ele>
        <time>2017-08-08T14:20:10Z</time>
      </trkpt>
      <trkpt lat="49.41266" lon="1.20776">
        <ele>78</ele>
        <time>2017-08-08T14:20:10Z</time>
      </trkpt>
      <trkpt lat="49.4127" lon="1.2078">
        <ele>78</ele>
        <time>2017-08-08T14:20:10Z</time>
      </trkpt>
      <trkpt lat="49.41274" lon="1.20783">
        <ele>78</ele>
        <time>2017-08-08T14:20:10Z</time>
      </trkpt>
      <trkpt lat="49.41277" lon="1.20785">
        <ele>78</ele>
        <time>2017-08-08T14:20:26Z</time>
      </trkpt>
      <trkpt lat="49.4128" lon="1.20788">
        <ele>78</ele>
        <time>2017-08-08T14:20:26Z</time>
      </trkpt>
      <trkpt lat="49.41284" lon="1.20792">
        <ele>76</ele>
        <time>2017-08-08T14:20:26Z</time>
      </trkpt>
      <trkpt lat="49.41289" lon="1.20797">
        <ele>76</ele>
        <time>2017-08-08T14:20:26Z</time>
      </trkpt>
      <trkpt lat="49.41294" lon="1.20801">
        <ele>73</ele>
        <time>2017-08-08T14:20:42Z</time>
      </trkpt>
      <trkpt lat="49.41301" lon="1.20807">
        <ele>73</ele>
        <time>2017-08-08T14:20:42Z</time>
      </trkpt>
      <trkpt lat="49.41306" lon="1.20811">
        <ele>73</ele>
        <time>2017-08-08T14:20:42Z</time>
      </trkpt>
      <trkpt lat="49.4131" lon="1.20814">
        <ele>73</ele>
        <time>2017-08-08T14:20:42Z</time>
      </trkpt>
      <trkpt lat="49.41313" lon="1.20817">
        <ele>73</ele>
        <time>2017-08-08T14:20:58Z</time>
      </trkpt>
      <trkpt lat="49.41318" lon="1.20819">
        <ele>73</ele>
        <time>2017-08-08T14:20:58Z</time>
      </trkpt>
      <trkpt lat="49.41324" lon="1.20823">
        <ele>73</ele>
        <time>2017-08-08T14:20:58Z</time>
      </trkpt>
      <trkpt lat="49.41331" lon="1.20827">
        <ele>73</ele>
        <time>2017-08-08T14:20:58Z</time>
      </trkpt>
      <trkpt lat="49.41336" lon="1.2083">
        <ele>73</ele>
        <time>2017-08-08T14:21:14Z</time>
      </trkpt>
      <trkpt lat="49.41341" lon="1.20832">
        <ele>73</ele>
        <time>2017-08-08T14:21:14Z</time>
      </trkpt>
      <trkpt lat="49.41345" lon="1.20833">
        <ele>73</ele>
        <time>2017-08-08T14:21:14Z</time>
      </trkpt>
      <trkpt lat="49.41352" lon="1.20836">
        <ele>73</ele>
        <time>2017-08-08T14:21:14Z</time>
      </trkpt>
      <trkpt lat="49.41356" lon="1.20836">
        <ele>73</ele>
        <time>2017-08-08T14:21:30Z</time>
      </trkpt>
      <trkpt lat="49.41362" lon="1.20839">
        <ele>73</ele>
        <time>2017-08-08T14:21:30Z</time>
      </trkpt>
      <trkpt lat="49.41365" lon="1.2084">
        <ele>73</ele>
        <time>2017-08-08T14:21:30Z</time>
      </trkpt>
      <trkpt lat="49.41368" lon="1.2084">
        <ele>73</ele>
        <time>2017-08-08T14:21:30Z</time>
      </trkpt>
      <trkpt lat="49.41373" lon="1.20842">
        <ele>73</ele>
        <time>2017-08-08T14:21:47Z</time>
      </trkpt>
      <trkpt lat="49.41379" lon="1.20844">
        <ele>65</ele>
        <time>2017-08-08T14:21:47Z</time>
      </trkpt>
      <trkpt lat="49.41385" lon="1.20846">
        <ele>65</ele>
        <time>2017-08-08T14:21:47Z</time>
      </trkpt>
      <trkpt lat="49.41393" lon="1.2085">
        <ele>65</ele>
        <time>2017-08-08T14:21:47Z</time>
      </trkpt>
      <trkpt lat="49.41396" lon="1.2085">
        <ele>65</ele>
        <time>2017-08-08T14:22:02Z</time>
      </trkpt>
      <trkpt lat="49.41401" lon="1.20852">
        <ele>65</ele>
        <time>2017-08-08T14:22:02Z</time>
      </trkpt>
      <trkpt lat="49.41406" lon="1.20854">
        <ele>65</ele>
        <time>2017-08-08T14:22:02Z</time>
      </trkpt>
      <trkpt lat="49.41412" lon="1.20856">
        <ele>65</ele>
        <time>2017-08-08T14:22:02Z</time>
      </trkpt>
      <trkpt lat="49.41418" lon="1.20859">
        <ele>65</ele>
        <time>2017-08-08T14:22:18Z</time>
      </trkpt>
      <trkpt lat="49.41422" lon="1.2086">
        <ele>65</ele>
        <time>2017-08-08T14:22:18Z</time>
      </trkpt>
      <trkpt lat="49.41426" lon="1.20864">
        <ele>65</ele>
        <time>2017-08-08T14:22:18Z</time>
      </trkpt>
      <trkpt lat="49.41429" lon="1.2087">
        <ele>65</ele>
        <time>2017-08-08T14:22:18Z</time>
      </trkpt>
      <trkpt lat="49.41433" lon="1.20876">
        <ele>65</ele>
        <time>2017-08-08T14:22:34Z</time>
      </trkpt>
      <trkpt lat="49.41431" lon="1.20882">
        <ele>65</ele>
        <time>2017-08-08T14:22:34Z</time>
      </trkpt>
      <trkpt lat="49.4143" lon="1.20891">
        <ele>65</ele>
        <time>2017-08-08T14:22:34Z</time>
      </trkpt>
      <trkpt lat="49.41428" lon="1.20897">
        <ele>65</ele>
        <time>2017-08-08T14:22:34Z</time>
      </trkpt>
      <trkpt lat="49.41426" lon="1.20903">
        <ele>65</ele>
        <time>2017-08-08T14:22:49Z</time>
      </trkpt>
      <trkpt lat="49.41427" lon="1.20907">
        <ele>65</ele>
        <time>2017-08-08T14:22:49Z</time>
      </trkpt>
      <trkpt lat="49.41428" lon="1.20914">
        <ele>65</ele>
        <time>2017-08-08T14:22:49Z</time>
      </trkpt>
      <trkpt lat="49.41427" lon="1.20921">
        <ele>65</ele>
        <time>2017-08-08T14:22:49Z</time>
      </trkpt>
      <trkpt lat="49.41423" lon="1.20931">
        <ele>65</ele>
        <time>2017-08-08T14:23:06Z</time>
      </trkpt>
      <trkpt lat="49.41422" lon="1.20937">
        <ele>65</ele>
        <time>2017-08-08T14:23:06Z</time>
      </trkpt>
      <trkpt lat="49.41421" lon="1.20945">
        <ele>65</ele>
        <time>2017-08-08T14:23:06Z</time>
      </trkpt>
      <trkpt lat="49.41419" lon="1.20953">
        <ele>65</ele>
        <time>2017-08-08T14:23:06Z</time>
      </trkpt>
      <trkpt lat="49.41419" lon="1.20961">
        <ele>65</ele>
        <time>2017-08-08T14:23:22Z</time>
      </trkpt>
      <trkpt lat="49.41418" lon="1.20967">
        <ele>65</ele>
        <time>2017-08-08T14:23:22Z</time>
      </trkpt>
      <trkpt lat="49.41418" lon="1.20975">
        <ele>65</ele>
        <time>2017-08-08T14:23:22Z</time>
      </trkpt>
      <trkpt lat="49.41415" lon="1.20985">
        <ele>65</ele>
        <time>2017-08-08T14:23:22Z</time>
      </trkpt>
      <trkpt lat="49.41414" lon="1.20994">
        <ele>65</ele>
        <time>2017-08-08T14:24:11Z</time>
      </trkpt>
      <trkpt lat="49.41409" lon="1.20999">
        <ele>65</ele>
        <time>2017-08-08T14:24:11Z</time>
      </trkpt>
      <trkpt lat="49.41401" lon="1.21062">
        <ele>68</ele>
        <time>2017-08-08T14:24:11Z</time>
      </trkpt>
      <trkpt lat="49.41407" lon="1.21072">
        <ele>68</ele>
        <time>2017-08-08T14:24:11Z</time>
      </trkpt>
      <trkpt lat="49.41407" lon="1.21076">
        <ele>68</ele>
        <time>2017-08-08T14:24:26Z</time>
      </trkpt>
      <trkpt lat="49.41409" lon="1.21084">
        <ele>68</ele>
        <time>2017-08-08T14:24:26Z</time>
      </trkpt>
      <trkpt lat="49.41409" lon="1.21091">
        <ele>68</ele>
        <time>2017-08-08T14:24:26Z</time>
      </trkpt>
      <trkpt lat="49.41408" lon="1.21097">
        <ele>68</ele>
        <time>2017-08-08T14:24:26Z</time>
      </trkpt>
      <trkpt lat="49.41407" lon="1.21105">
        <ele>68</ele>
        <time>2017-08-08T14:24:42Z</time>
      </trkpt>
      <trkpt lat="49.41405" lon="1.21114">
        <ele>68</ele>
        <time>2017-08-08T14:24:42Z</time>
      </trkpt>
      <trkpt lat="49.41406" lon="1.21118">
        <ele>68</ele>
        <time>2017-08-08T14:24:42Z</time>
      </trkpt>
      <trkpt lat="49.41406" lon="1.21126">
        <ele>72</ele>
        <time>2017-08-08T14:24:42Z</time>
      </trkpt>
      <trkpt lat="49.41406" lon="1.21133">
        <ele>72</ele>
        <time>2017-08-08T14:24:58Z</time>
      </trkpt>
      <trkpt lat="49.41406" lon="1.21141">
        <ele>72</ele>
        <time>2017-08-08T14:24:58Z</time>
      </trkpt>
      <trkpt lat="49.41407" lon="1.21148">
        <ele>72</ele>
        <time>2017-08-08T14:24:58Z</time>
      </trkpt>
      <trkpt lat="49.41409" lon="1.21149">
        <ele>72</ele>
        <time>2017-08-08T14:24:58Z</time>
      </trkpt>
      <trkpt lat="49.41406" lon="1.21154">
        <ele>72</ele>
        <time>2017-08-08T14:27:41Z</time>
      </trkpt>
      <trkpt lat="49.41411" lon="1.21156">
        <ele>72</ele>
        <time>2017-08-08T14:27:41Z</time>
      </trkpt>
      <trkpt lat="49.41415" lon="1.21157">
        <ele>72</ele>
        <time>2017-08-08T14:27:41Z</time>
      </trkpt>
      <trkpt lat="49.41419" lon="1.21158">
        <ele>72</ele>
        <time>2017-08-08T14:27:41Z</time>
      </trkpt>
      <trkpt lat="49.41423" lon="1.21158">
        <ele>72</ele>
        <time>2017-08-08T14:27:41Z</time>
      </trkpt>
      <trkpt lat="49.41427" lon="1.21159">
        <ele>72</ele>
        <time>2017-08-08T14:27:57Z</time>
      </trkpt>
      <trkpt lat="49.41431" lon="1.21161">
        <ele>72</ele>
        <time>2017-08-08T14:27:57Z</time>
      </trkpt>
      <trkpt lat="49.41436" lon="1.21163">
        <ele>72</ele>
        <time>2017-08-08T14:27:57Z</time>
      </trkpt>
      <trkpt lat="49.4144" lon="1.21164">
        <ele>72</ele>
        <time>2017-08-08T14:27:57Z</time>
      </trkpt>
      <trkpt lat="49.41444" lon="1.21166">
        <ele>72</ele>
        <time>2017-08-08T14:28:13Z</time>
      </trkpt>
      <trkpt lat="49.41448" lon="1.21167">
        <ele>72</ele>
        <time>2017-08-08T14:28:13Z</time>
      </trkpt>
      <trkpt lat="49.41452" lon="1.21169">
        <ele>72</ele>
        <time>2017-08-08T14:28:13Z</time>
      </trkpt>
      <trkpt lat="49.41456" lon="1.2117">
        <ele>72</ele>
        <time>2017-08-08T14:28:13Z</time>
      </trkpt>
      <trkpt lat="49.4146" lon="1.21172">
        <ele>64</ele>
        <time>2017-08-08T14:28:30Z</time>
      </trkpt>
      <trkpt lat="49.41471" lon="1.21175">
        <ele>64</ele>
        <time>2017-08-08T14:28:30Z</time>
      </trkpt>
      <trkpt lat="49.41478" lon="1.2117">
        <ele>64</ele>
        <time>2017-08-08T14:28:30Z</time>
      </trkpt>
      <trkpt lat="49.41481" lon="1.21161">
        <ele>64</ele>
        <time>2017-08-08T14:28:30Z</time>
      </trkpt>
      <trkpt lat="49.41478" lon="1.21203">
        <ele>64</ele>
        <time>2017-08-08T14:29:18Z</time>
      </trkpt>
      <trkpt lat="49.41476" lon="1.21211">
        <ele>62</ele>
        <time>2017-08-08T14:29:18Z</time>
      </trkpt>
      <trkpt lat="49.41475" lon="1.21217">
        <ele>62</ele>
        <time>2017-08-08T14:29:18Z</time>
      </trkpt>
      <trkpt lat="49.41473" lon="1.21224">
        <ele>62</ele>
        <time>2017-08-08T14:29:18Z</time>
      </trkpt>
      <trkpt lat="49.4147" lon="1.2123">
        <ele>62</ele>
        <time>2017-08-08T14:29:34Z</time>
      </trkpt>
      <trkpt lat="49.41467" lon="1.21237">
        <ele>62</ele>
        <time>2017-08-08T14:29:34Z</time>
      </trkpt>
      <trkpt lat="49.41465" lon="1.21247">
        <ele>62</ele>
        <time>2017-08-08T14:29:34Z</time>
      </trkpt>
      <trkpt lat="49.41464" lon="1.21252">
        <ele>62</ele>
        <time>2017-08-08T14:29:34Z</time>
      </trkpt>
      <trkpt lat="49.41462" lon="1.21262">
        <ele>62</ele>
        <time>2017-08-08T14:29:50Z</time>
      </trkpt>
      <trkpt lat="49.41461" lon="1.21268">
        <ele>62</ele>
        <time>2017-08-08T14:29:50Z</time>
      </trkpt>
      <trkpt lat="49.41459" lon="1.21276">
        <ele>62</ele>
        <time>2017-08-08T14:29:50Z</time>
      </trkpt>
      <trkpt lat="49.41458" lon="1.21282">
        <ele>75</ele>
        <time>2017-08-08T14:29:50Z</time>
      </trkpt>
      <trkpt lat="49.41455" lon="1.2129">
        <ele>75</ele>
        <time>2017-08-08T14:30:06Z</time>
      </trkpt>
      <trkpt lat="49.41453" lon="1.21299">
        <ele>74</ele>
        <time>2017-08-08T14:30:06Z</time>
      </trkpt>
      <trkpt lat="49.41453" lon="1.21305">
        <ele>74</ele>
        <time>2017-08-08T14:30:06Z</time>
      </trkpt>
      <trkpt lat="49.41452" lon="1.21311">
        <ele>74</ele>
        <time>2017-08-08T14:30:06Z</time>
      </trkpt>
      <trkpt lat="49.41449" lon="1.21319">
        <ele>74</ele>
        <time>2017-08-08T14:30:22Z</time>
      </trkpt>
      <trkpt lat="49.41448" lon="1.21327">
        <ele>74</ele>
        <time>2017-08-08T14:30:22Z</time>
      </trkpt>
      <trkpt lat="49.41446" lon="1.21334">
        <ele>74</ele>
        <time>2017-08-08T14:30:22Z</time>
      </trkpt>
      <trkpt lat="49.41445" lon="1.21341">
        <ele>74</ele>
        <time>2017-08-08T14:30:22Z</time>
      </trkpt>
      <trkpt lat="49.41443" lon="1.21351">
        <ele>74</ele>
        <time>2017-08-08T14:30:38Z</time>
      </trkpt>
      <trkpt lat="49.41442" lon="1.21357">
        <ele>74</ele>
        <time>2017-08-08T14:30:38Z</time>
      </trkpt>
      <trkpt lat="49.4144" lon="1.21368">
        <ele>74</ele>
        <time>2017-08-08T14:30:38Z</time>
      </trkpt>
      <trkpt lat="49.41439" lon="1.21375">
        <ele>74</ele>
        <time>2017-08-08T14:30:38Z</time>
      </trkpt>
      <trkpt lat="49.41438" lon="1.21384">
        <ele>75</ele>
        <time>2017-08-08T14:30:54Z</time>
      </trkpt>
      <trkpt lat="49.41437" lon="1.21392">
        <ele>75</ele>
        <time>2017-08-08T14:30:54Z</time>
      </trkpt>
      <trkpt lat="49.41436" lon="1.21398">
        <ele>75</ele>
        <time>2017-08-08T14:30:54Z</time>
      </trkpt>
      <trkpt lat="49.41435" lon="1.21407">
        <ele>75</ele>
        <time>2017-08-08T14:30:54Z</time>
      </trkpt>
      <trkpt lat="49.41435" lon="1.21415">
        <ele>75</ele>
        <time>2017-08-08T14:31:10Z</time>
      </trkpt>
      <trkpt lat="49.41435" lon="1.21422">
        <ele>75</ele>
        <time>2017-08-08T14:31:10Z</time>
      </trkpt>
      <trkpt lat="49.41434" lon="1.21428">
        <ele>75</ele>
        <time>2017-08-08T14:31:10Z</time>
      </trkpt>
      <trkpt lat="49.41434" lon="1.21436">
        <ele>75</ele>
        <time>2017-08-08T14:31:10Z</time>
      </trkpt>
      <trkpt lat="49.41434" lon="1.21445">
        <ele>75</ele>
        <time>2017-08-08T14:31:26Z</time>
      </trkpt>
      <trkpt lat="49.41434" lon="1.21453">
        <ele>75</ele>
        <time>2017-08-08T14:31:26Z</time>
      </trkpt>
      <trkpt lat="49.41434" lon="1.2146">
        <ele>77</ele>
        <time>2017-08-08T14:31:26Z</time>
      </trkpt>
      <trkpt lat="49.41434" lon="1.21469">
        <ele>77</ele>
        <time>2017-08-08T14:31:26Z</time>
      </trkpt>
      <trkpt lat="49.41434" lon="1.21476">
        <ele>77</ele>
        <time>2017-08-08T14:31:42Z</time>
      </trkpt>
      <trkpt lat="49.41434" lon="1.21484">
        <ele>77</ele>
        <time>2017-08-08T14:31:42Z</time>
      </trkpt>
      <trkpt lat="49.41435" lon="1.21491">
        <ele>77</ele>
        <time>2017-08-08T14:31:42Z</time>
      </trkpt>
      <trkpt lat="49.41436" lon="1.215">
        <ele>77</ele>
        <time>2017-08-08T14:31:42Z</time>
      </trkpt>
      <trkpt lat="49.41437" lon="1.21505">
        <ele>77</ele>
        <time>2017-08-08T14:31:58Z</time>
      </trkpt>
      <trkpt lat="49.41437" lon="1.21513">
        <ele>77</ele>
        <time>2017-08-08T14:31:58Z</time>
      </trkpt>
      <trkpt lat="49.41438" lon="1.21519">
        <ele>77</ele>
        <time>2017-08-08T14:31:58Z</time>
      </trkpt>
      <trkpt lat="49.41439" lon="1.21531">
        <ele>77</ele>
        <time>2017-08-08T14:31:58Z</time>
      </trkpt>
      <trkpt lat="49.41439" lon="1.21538">
        <ele>77</ele>
        <time>2017-08-08T14:32:14Z</time>
      </trkpt>
      <trkpt lat="49.4144" lon="1.21544">
        <ele>79</ele>
        <time>2017-08-08T14:32:14Z</time>
      </trkpt>
      <trkpt lat="49.41441" lon="1.21554">
        <ele>79</ele>
        <time>2017-08-08T14:32:14Z</time>
      </trkpt>
      <trkpt lat="49.41442" lon="1.2156">
        <ele>79</ele>
        <time>2017-08-08T14:32:14Z</time>
      </trkpt>
      <trkpt lat="49.41443" lon="1.21569">
        <ele>79</ele>
        <time>2017-08-08T14:32:30Z</time>
      </trkpt>
      <trkpt lat="49.41443" lon="1.21576">
        <ele>79</ele>
        <time>2017-08-08T14:32:30Z</time>
      </trkpt>
      <trkpt lat="49.41444" lon="1.21585">
        <ele>79</ele>
        <time>2017-08-08T14:32:30Z</time>
      </trkpt>
      <trkpt lat="49.41444" lon="1.21591">
        <ele>79</ele>
        <time>2017-08-08T14:32:30Z</time>
      </trkpt>
      <trkpt lat="49.41444" lon="1.21598">
        <ele>79</ele>
        <time>2017-08-08T14:32:46Z</time>
      </trkpt>
      <trkpt lat="49.41446" lon="1.21608">
        <ele>79</ele>
        <time>2017-08-08T14:32:46Z</time>
      </trkpt>
      <trkpt lat="49.41446" lon="1.21614">
        <ele>79</ele>
        <time>2017-08-08T14:32:46Z</time>
      </trkpt>
      <trkpt lat="49.41448" lon="1.2162">
        <ele>79</ele>
        <time>2017-08-08T14:32:46Z</time>
      </trkpt>
      <trkpt lat="49.4145" lon="1.21627">
        <ele>82</ele>
        <time>2017-08-08T14:33:02Z</time>
      </trkpt>
      <trkpt lat="49.41452" lon="1.21632">
        <ele>82</ele>
        <time>2017-08-08T14:33:02Z</time>
      </trkpt>
      <trkpt lat="49.41456" lon="1.21641">
        <ele>82</ele>
        <time>2017-08-08T14:33:02Z</time>
      </trkpt>
      <trkpt lat="49.41458" lon="1.21649">
        <ele>82</ele>
        <time>2017-08-08T14:33:02Z</time>
      </trkpt>
      <trkpt lat="49.4146" lon="1.21655">
        <ele>64</ele>
        <time>2017-08-08T14:33:19Z</time>
      </trkpt>
      <trkpt lat="49.41461" lon="1.2166">
        <ele>64</ele>
        <time>2017-08-08T14:33:19Z</time>
      </trkpt>
      <trkpt lat="49.41461" lon="1.21667">
        <ele>64</ele>
        <time>2017-08-08T14:33:19Z</time>
      </trkpt>
      <trkpt lat="49.41463" lon="1.21677">
        <ele>64</ele>
        <time>2017-08-08T14:33:19Z</time>
      </trkpt>
      <trkpt lat="49.41465" lon="1.21681">
        <ele>64</ele>
        <time>2017-08-08T14:33:35Z</time>
      </trkpt>
      <trkpt lat="49.41468" lon="1.21689">
        <ele>64</ele>
        <time>2017-08-08T14:33:35Z</time>
      </trkpt>
      <trkpt lat="49.41472" lon="1.21694">
        <ele>64</ele>
        <time>2017-08-08T14:33:35Z</time>
      </trkpt>
      <trkpt lat="49.41475" lon="1.21701">
        <ele>64</ele>
        <time>2017-08-08T14:33:35Z</time>
      </trkpt>
      <trkpt lat="49.41477" lon="1.21707">
        <ele>64</ele>
        <time>2017-08-08T14:33:50Z</time>
      </trkpt>
      <trkpt lat="49.41479" lon="1.21713">
        <ele>69</ele>
        <time>2017-08-08T14:33:50Z</time>
      </trkpt>
      <trkpt lat="49.41481" lon="1.2172">
        <ele>69</ele>
        <time>2017-08-08T14:33:50Z</time>
      </trkpt>
      <trkpt lat="49.41482" lon="1.21725">
        <ele>69</ele>
        <time>2017-08-08T14:33:50Z</time>
      </trkpt>
      <trkpt lat="49.41486" lon="1.21734">
        <ele>69</ele>
        <time>2017-08-08T14:34:06Z</time>
      </trkpt>
      <trkpt lat="49.41487" lon="1.21741">
        <ele>69</ele>
        <time>2017-08-08T14:34:06Z</time>
      </trkpt>
      <trkpt lat="49.41489" lon="1.21749">
        <ele>69</ele>
        <time>2017-08-08T14:34:06Z</time>
      </trkpt>
      <trkpt lat="49.41491" lon="1.21756">
        <ele>69</ele>
        <time>2017-08-08T14:34:06Z</time>
      </trkpt>
      <trkpt lat="49.41493" lon="1.21764">
        <ele>69</ele>
        <time>2017-08-08T14:34:22Z</time>
      </trkpt>
      <trkpt lat="49.41494" lon="1.2177">
        <ele>69</ele>
        <time>2017-08-08T14:34:22Z</time>
      </trkpt>
      <trkpt lat="49.41496" lon="1.21777">
        <ele>69</ele>
        <time>2017-08-08T14:34:22Z</time>
      </trkpt>
      <trkpt lat="49.41497" lon="1.21782">
        <ele>69</ele>
        <time>2017-08-08T14:34:22Z</time>
      </trkpt>
      <trkpt lat="49.41499" lon="1.21789">
        <ele>69</ele>
        <time>2017-08-08T14:34:39Z</time>
      </trkpt>
      <trkpt lat="49.415" lon="1.21796">
        <ele>69</ele>
        <time>2017-08-08T14:34:39Z</time>
      </trkpt>
      <trkpt lat="49.41502" lon="1.21806">
        <ele>69</ele>
        <time>2017-08-08T14:34:39Z</time>
      </trkpt>
      <trkpt lat="49.41503" lon="1.21812">
        <ele>69</ele>
        <time>2017-08-08T14:34:39Z</time>
      </trkpt>
      <trkpt lat="49.41503" lon="1.21818">
        <ele>69</ele>
        <time>2017-08-08T14:34:53Z</time>
      </trkpt>
      <trkpt lat="49.41504" lon="1.21828">
        <ele>69</ele>
        <time>2017-08-08T14:34:53Z</time>
      </trkpt>
      <trkpt lat="49.41504" lon="1.21834">
        <ele>69</ele>
        <time>2017-08-08T14:34:53Z</time>
      </trkpt>
      <trkpt lat="49.41505" lon="1.21843">
        <ele>69</ele>
        <time>2017-08-08T14:34:53Z</time>
      </trkpt>
      <trkpt lat="49.41505" lon="1.21848">
        <ele>69</ele>
        <time>2017-08-08T14:35:11Z</time>
      </trkpt>
      <trkpt lat="49.41506" lon="1.21855">
        <ele>69</ele>
        <time>2017-08-08T14:35:11Z</time>
      </trkpt>
      <trkpt lat="49.41508" lon="1.2186">
        <ele>69</ele>
        <time>2017-08-08T14:35:11Z</time>
      </trkpt>
      <trkpt lat="49.41509" lon="1.21863">
        <ele>69</ele>
        <time>2017-08-08T14:35:11Z</time>
      </trkpt>
      <trkpt lat="49.41508" lon="1.21862">
        <ele>69</ele>
        <time>2017-08-08T14:36:17Z</time>
      </trkpt>
      <trkpt lat="49.41506" lon="1.21862">
        <ele>69</ele>
        <time>2017-08-08T14:36:17Z</time>
      </trkpt>
      <trkpt lat="49.41508" lon="1.21865">
        <ele>69</ele>
        <time>2017-08-08T14:36:17Z</time>
      </trkpt>
      <trkpt lat="49.41512" lon="1.21873">
        <ele>69</ele>
        <time>2017-08-08T14:36:17Z</time>
      </trkpt>
      <trkpt lat="49.41515" lon="1.21878">
        <ele>68</ele>
        <time>2017-08-08T14:36:17Z</time>
      </trkpt>
      <trkpt lat="49.41516" lon="1.21884">
        <ele>68</ele>
        <time>2017-08-08T14:36:33Z</time>
      </trkpt>
      <trkpt lat="49.41517" lon="1.2189">
        <ele>68</ele>
        <time>2017-08-08T14:36:33Z</time>
      </trkpt>
      <trkpt lat="49.41518" lon="1.21894">
        <ele>68</ele>
        <time>2017-08-08T14:36:33Z</time>
      </trkpt>
      <trkpt lat="49.41519" lon="1.219">
        <ele>68</ele>
        <time>2017-08-08T14:36:33Z</time>
      </trkpt>
      <trkpt lat="49.41521" lon="1.21908">
        <ele>68</ele>
        <time>2017-08-08T14:36:49Z</time>
      </trkpt>
      <trkpt lat="49.41522" lon="1.21915">
        <ele>68</ele>
        <time>2017-08-08T14:36:49Z</time>
      </trkpt>
      <trkpt lat="49.41522" lon="1.21924">
        <ele>68</ele>
        <time>2017-08-08T14:36:49Z</time>
      </trkpt>
      <trkpt lat="49.41522" lon="1.21931">
        <ele>68</ele>
        <time>2017-08-08T14:36:49Z</time>
      </trkpt>
      <trkpt lat="49.41522" lon="1.21938">
        <ele>68</ele>
        <time>2017-08-08T14:37:07Z</time>
      </trkpt>
      <trkpt lat="49.41524" lon="1.21947">
        <ele>68</ele>
        <time>2017-08-08T14:37:07Z</time>
      </trkpt>
      <trkpt lat="49.41525" lon="1.21957">
        <ele>68</ele>
        <time>2017-08-08T14:37:07Z</time>
      </trkpt>
      <trkpt lat="49.41525" lon="1.21966">
        <ele>71</ele>
        <time>2017-08-08T14:37:07Z</time>
      </trkpt>
      <trkpt lat="49.41525" lon="1.21972">
        <ele>71</ele>
        <time>2017-08-08T14:37:22Z</time>
      </trkpt>
      <trkpt lat="49.41524" lon="1.21977">
        <ele>71</ele>
        <time>2017-08-08T14:37:22Z</time>
      </trkpt>
      <trkpt lat="49.41523" lon="1.21983">
        <ele>71</ele>
        <time>2017-08-08T14:37:22Z</time>
      </trkpt>
      <trkpt lat="49.41522" lon="1.21991">
        <ele>71</ele>
        <time>2017-08-08T14:37:22Z</time>
      </trkpt>
      <trkpt lat="49.41522" lon="1.22">
        <ele>71</ele>
        <time>2017-08-08T14:37:38Z</time>
      </trkpt>
      <trkpt lat="49.41521" lon="1.22012">
        <ele>71</ele>
        <time>2017-08-08T14:37:38Z</time>
      </trkpt>
      <trkpt lat="49.4152" lon="1.22021">
        <ele>71</ele>
        <time>2017-08-08T14:37:38Z</time>
      </trkpt>
      <trkpt lat="49.41521" lon="1.22026">
        <ele>71</ele>
        <time>2017-08-08T14:37:38Z</time>
      </trkpt>
      <trkpt lat="49.41521" lon="1.22037">
        <ele>71</ele>
        <time>2017-08-08T14:37:54Z</time>
      </trkpt>
      <trkpt lat="49.41521" lon="1.22044">
        <ele>73</ele>
        <time>2017-08-08T14:37:54Z</time>
      </trkpt>
      <trkpt lat="49.4152" lon="1.22052">
        <ele>73</ele>
        <time>2017-08-08T14:37:55Z</time>
      </trkpt>
      <trkpt lat="49.41519" lon="1.22062">
        <ele>73</ele>
        <time>2017-08-08T14:37:55Z</time>
      </trkpt>
      <trkpt lat="49.41518" lon="1.22068">
        <ele>73</ele>
        <time>2017-08-08T14:38:10Z</time>
      </trkpt>
      <trkpt lat="49.41519" lon="1.22079">
        <ele>73</ele>
        <time>2017-08-08T14:38:10Z</time>
      </trkpt>
      <trkpt lat="49.41519" lon="1.22087">
        <ele>73</ele>
        <time>2017-08-08T14:38:10Z</time>
      </trkpt>
      <trkpt lat="49.41519" lon="1.22091">
        <ele>73</ele>
        <time>2017-08-08T14:38:10Z</time>
      </trkpt>
      <trkpt lat="49.41519" lon="1.22101">
        <ele>73</ele>
        <time>2017-08-08T14:38:26Z</time>
      </trkpt>
      <trkpt lat="49.41517" lon="1.22108">
        <ele>73</ele>
        <time>2017-08-08T14:38:26Z</time>
      </trkpt>
      <trkpt lat="49.41515" lon="1.22115">
        <ele>73</ele>
        <time>2017-08-08T14:38:26Z</time>
      </trkpt>
      <trkpt lat="49.41514" lon="1.22125">
        <ele>73</ele>
        <time>2017-08-08T14:38:26Z</time>
      </trkpt>
      <trkpt lat="49.41514" lon="1.2213">
        <ele>73</ele>
        <time>2017-08-08T14:38:43Z</time>
      </trkpt>
      <trkpt lat="49.41512" lon="1.22138">
        <ele>73</ele>
        <time>2017-08-08T14:38:43Z</time>
      </trkpt>
      <trkpt lat="49.41513" lon="1.22146">
        <ele>73</ele>
        <time>2017-08-08T14:38:43Z</time>
      </trkpt>
      <trkpt lat="49.41512" lon="1.22155">
        <ele>73</ele>
        <time>2017-08-08T14:38:43Z</time>
      </trkpt>
      <trkpt lat="49.41511" lon="1.2216">
        <ele>73</ele>
        <time>2017-08-08T14:38:58Z</time>
      </trkpt>
      <trkpt lat="49.4151" lon="1.22167">
        <ele>73</ele>
        <time>2017-08-08T14:38:58Z</time>
      </trkpt>
      <trkpt lat="49.41509" lon="1.22179">
        <ele>73</ele>
        <time>2017-08-08T14:38:58Z</time>
      </trkpt>
      <trkpt lat="49.41508" lon="1.22185">
        <ele>73</ele>
        <time>2017-08-08T14:38:58Z</time>
      </trkpt>
      <trkpt lat="49.41509" lon="1.22196">
        <ele>73</ele>
        <time>2017-08-08T14:39:14Z</time>
      </trkpt>
      <trkpt lat="49.41509" lon="1.22203">
        <ele>73</ele>
        <time>2017-08-08T14:39:14Z</time>
      </trkpt>
      <trkpt lat="49.41507" lon="1.22214">
        <ele>74</ele>
        <time>2017-08-08T14:39:14Z</time>
      </trkpt>
      <trkpt lat="49.41506" lon="1.22221">
        <ele>74</ele>
        <time>2017-08-08T14:39:14Z</time>
      </trkpt>
      <trkpt lat="49.41507" lon="1.22226">
        <ele>74</ele>
        <time>2017-08-08T14:40:03Z</time>
      </trkpt>
      <trkpt lat="49.41506" lon="1.22237">
        <ele>74</ele>
        <time>2017-08-08T14:40:03Z</time>
      </trkpt>
      <trkpt lat="49.41504" lon="1.22243">
        <ele>74</ele>
        <time>2017-08-08T14:40:03Z</time>
      </trkpt>
      <trkpt lat="49.41485" lon="1.22314">
        <ele>72</ele>
        <time>2017-08-08T14:40:03Z</time>
      </trkpt>
      <trkpt lat="49.41492" lon="1.22325">
        <ele>72</ele>
        <time>2017-08-08T14:40:17Z</time>
      </trkpt>
      <trkpt lat="49.41493" lon="1.22334">
        <ele>72</ele>
        <time>2017-08-08T14:40:17Z</time>
      </trkpt>
      <trkpt lat="49.41491" lon="1.22339">
        <ele>72</ele>
        <time>2017-08-08T14:40:17Z</time>
      </trkpt>
      <trkpt lat="49.41489" lon="1.22343">
        <ele>72</ele>
        <time>2017-08-08T14:40:17Z</time>
      </trkpt>
      <trkpt lat="49.41487" lon="1.2235">
        <ele>72</ele>
        <time>2017-08-08T14:40:35Z</time>
      </trkpt>
      <trkpt lat="49.41486" lon="1.22358">
        <ele>72</ele>
        <time>2017-08-08T14:40:35Z</time>
      </trkpt>
      <trkpt lat="49.41486" lon="1.22366">
        <ele>72</ele>
        <time>2017-08-08T14:40:35Z</time>
      </trkpt>
      <trkpt lat="49.41485" lon="1.22373">
        <ele>72</ele>
        <time>2017-08-08T14:40:35Z</time>
      </trkpt>
      <trkpt lat="49.41485" lon="1.22379">
        <ele>68</ele>
        <time>2017-08-08T14:40:50Z</time>
      </trkpt>
      <trkpt lat="49.41485" lon="1.22388">
        <ele>68</ele>
        <time>2017-08-08T14:40:50Z</time>
      </trkpt>
      <trkpt lat="49.41484" lon="1.22394">
        <ele>68</ele>
        <time>2017-08-08T14:40:50Z</time>
      </trkpt>
      <trkpt lat="49.41483" lon="1.22404">
        <ele>68</ele>
        <time>2017-08-08T14:40:50Z</time>
      </trkpt>
      <trkpt lat="49.41482" lon="1.22413">
        <ele>68</ele>
        <time>2017-08-08T14:41:06Z</time>
      </trkpt>
      <trkpt lat="49.41481" lon="1.22421">
        <ele>68</ele>
        <time>2017-08-08T14:41:06Z</time>
      </trkpt>
      <trkpt lat="49.41481" lon="1.22428">
        <ele>68</ele>
        <time>2017-08-08T14:41:06Z</time>
      </trkpt>
      <trkpt lat="49.4148" lon="1.22436">
        <ele>68</ele>
        <time>2017-08-08T14:41:06Z</time>
      </trkpt>
      <trkpt lat="49.41479" lon="1.22443">
        <ele>68</ele>
        <time>2017-08-08T14:41:22Z</time>
      </trkpt>
      <trkpt lat="49.41479" lon="1.22447">
        <ele>68</ele>
        <time>2017-08-08T14:41:22Z</time>
      </trkpt>
      <trkpt lat="49.41478" lon="1.22455">
        <ele>68</ele>
        <time>2017-08-08T14:41:22Z</time>
      </trkpt>
      <trkpt lat="49.41478" lon="1.22463">
        <ele>67</ele>
        <time>2017-08-08T14:41:22Z</time>
      </trkpt>
      <trkpt lat="49.41478" lon="1.22468">
        <ele>67</ele>
        <time>2017-08-08T14:41:38Z</time>
      </trkpt>
      <trkpt lat="49.41477" lon="1.22476">
        <ele>67</ele>
        <time>2017-08-08T14:41:38Z</time>
      </trkpt>
      <trkpt lat="49.41476" lon="1.22487">
        <ele>67</ele>
        <time>2017-08-08T14:41:38Z</time>
      </trkpt>
      <trkpt lat="49.41477" lon="1.22494">
        <ele>67</ele>
        <time>2017-08-08T14:41:38Z</time>
      </trkpt>
      <trkpt lat="49.41476" lon="1.22503">
        <ele>67</ele>
        <time>2017-08-08T14:41:55Z</time>
      </trkpt>
      <trkpt lat="49.41477" lon="1.22509">
        <ele>67</ele>
        <time>2017-08-08T14:41:55Z</time>
      </trkpt>
      <trkpt lat="49.41477" lon="1.22512">
        <ele>67</ele>
        <time>2017-08-08T14:41:55Z</time>
      </trkpt>
      <trkpt lat="49.41478" lon="1.22521">
        <ele>67</ele>
        <time>2017-08-08T14:41:55Z</time>
      </trkpt>
      <trkpt lat="49.41479" lon="1.22527">
        <ele>67</ele>
        <time>2017-08-08T14:42:10Z</time>
      </trkpt>
      <trkpt lat="49.4148" lon="1.22538">
        <ele>67</ele>
        <time>2017-08-08T14:42:10Z</time>
      </trkpt>
      <trkpt lat="49.41481" lon="1.22544">
        <ele>72</ele>
        <time>2017-08-08T14:42:10Z</time>
      </trkpt>
      <trkpt lat="49.41481" lon="1.22549">
        <ele>72</ele>
        <time>2017-08-08T14:42:10Z</time>
      </trkpt>
      <trkpt lat="49.41482" lon="1.2256">
        <ele>72</ele>
        <time>2017-08-08T14:42:26Z</time>
      </trkpt>
      <trkpt lat="49.41481" lon="1.22566">
        <ele>72</ele>
        <time>2017-08-08T14:42:26Z</time>
      </trkpt>
      <trkpt lat="49.4148" lon="1.22573">
        <ele>72</ele>
        <time>2017-08-08T14:42:26Z</time>
      </trkpt>
      <trkpt lat="49.41478" lon="1.2258">
        <ele>72</ele>
        <time>2017-08-08T14:42:26Z</time>
      </trkpt>
      <trkpt lat="49.41477" lon="1.22587">
        <ele>72</ele>
        <time>2017-08-08T14:43:14Z</time>
      </trkpt>
      <trkpt lat="49.41475" lon="1.22597">
        <ele>72</ele>
        <time>2017-08-08T14:43:14Z</time>
      </trkpt>
      <trkpt lat="49.41474" lon="1.22602">
        <ele>72</ele>
        <time>2017-08-08T14:43:14Z</time>
      </trkpt>
      <trkpt lat="49.41469" lon="1.2267">
        <ele>74</ele>
        <time>2017-08-08T14:43:14Z</time>
      </trkpt>
      <trkpt lat="49.41468" lon="1.22677">
        <ele>74</ele>
        <time>2017-08-08T14:43:30Z</time>
      </trkpt>
      <trkpt lat="49.41468" lon="1.22682">
        <ele>74</ele>
        <time>2017-08-08T14:43:30Z</time>
      </trkpt>
      <trkpt lat="49.41467" lon="1.2269">
        <ele>74</ele>
        <time>2017-08-08T14:43:30Z</time>
      </trkpt>
      <trkpt lat="49.41468" lon="1.22699">
        <ele>74</ele>
        <time>2017-08-08T14:43:30Z</time>
      </trkpt>
      <trkpt lat="49.41469" lon="1.22707">
        <ele>74</ele>
        <time>2017-08-08T14:43:46Z</time>
      </trkpt>
      <trkpt lat="49.41469" lon="1.22713">
        <ele>71</ele>
        <time>2017-08-08T14:43:46Z</time>
      </trkpt>
      <trkpt lat="49.41469" lon="1.22719">
        <ele>71</ele>
        <time>2017-08-08T14:43:46Z</time>
      </trkpt>
      <trkpt lat="49.4147" lon="1.22725">
        <ele>71</ele>
        <time>2017-08-08T14:43:46Z</time>
      </trkpt>
      <trkpt lat="49.4147" lon="1.22733">
        <ele>71</ele>
        <time>2017-08-08T14:44:01Z</time>
      </trkpt>
      <trkpt lat="49.4147" lon="1.22741">
        <ele>71</ele>
        <time>2017-08-08T14:44:01Z</time>
      </trkpt>
      <trkpt lat="49.41471" lon="1.22745">
        <ele>71</ele>
        <time>2017-08-08T14:44:02Z</time>
      </trkpt>
      <trkpt lat="49.41472" lon="1.22752">
        <ele>71</ele>
        <time>2017-08-08T14:44:02Z</time>
      </trkpt>
      <trkpt lat="49.41474" lon="1.22759">
        <ele>71</ele>
        <time>2017-08-08T14:44:18Z</time>
      </trkpt>
      <trkpt lat="49.41474" lon="1.22765">
        <ele>71</ele>
        <time>2017-08-08T14:44:18Z</time>
      </trkpt>
      <trkpt lat="49.41474" lon="1.22775">
        <ele>71</ele>
        <time>2017-08-08T14:44:18Z</time>
      </trkpt>
      <trkpt lat="49.41475" lon="1.22783">
        <ele>71</ele>
        <time>2017-08-08T14:44:18Z</time>
      </trkpt>
      <trkpt lat="49.41477" lon="1.22788">
        <ele>71</ele>
        <time>2017-08-08T14:45:06Z</time>
      </trkpt>
      <trkpt lat="49.41477" lon="1.22797">
        <ele>70</ele>
        <time>2017-08-08T14:45:06Z</time>
      </trkpt>
      <trkpt lat="49.41482" lon="1.22868">
        <ele>70</ele>
        <time>2017-08-08T14:45:06Z</time>
      </trkpt>
      <trkpt lat="49.41484" lon="1.22869">
        <ele>70</ele>
        <time>2017-08-08T14:45:06Z</time>
      </trkpt>
      <trkpt lat="49.41488" lon="1.22873">
        <ele>70</ele>
        <time>2017-08-08T14:45:22Z</time>
      </trkpt>
      <trkpt lat="49.41492" lon="1.22875">
        <ele>70</ele>
        <time>2017-08-08T14:45:22Z</time>
      </trkpt>
      <trkpt lat="49.41497" lon="1.22874">
        <ele>70</ele>
        <time>2017-08-08T14:45:22Z</time>
      </trkpt>
      <trkpt lat="49.41499" lon="1.22875">
        <ele>70</ele>
        <time>2017-08-08T14:45:22Z</time>
      </trkpt>
      <trkpt lat="49.415" lon="1.22878">
        <ele>71</ele>
        <time>2017-08-08T14:45:38Z</time>
      </trkpt>
      <trkpt lat="49.41503" lon="1.22882">
        <ele>71</ele>
        <time>2017-08-08T14:45:38Z</time>
      </trkpt>
      <trkpt lat="49.41508" lon="1.22886">
        <ele>71</ele>
        <time>2017-08-08T14:45:38Z</time>
      </trkpt>
      <trkpt lat="49.41511" lon="1.22888">
        <ele>71</ele>
        <time>2017-08-08T14:45:38Z</time>
      </trkpt>
      <trkpt lat="49.41518" lon="1.2289">
        <ele>71</ele>
        <time>2017-08-08T14:45:54Z</time>
      </trkpt>
      <trkpt lat="49.41523" lon="1.22893">
        <ele>71</ele>
        <time>2017-08-08T14:45:54Z</time>
      </trkpt>
      <trkpt lat="49.41529" lon="1.22898">
        <ele>71</ele>
        <time>2017-08-08T14:45:54Z</time>
      </trkpt>
      <trkpt lat="49.41532" lon="1.22903">
        <ele>71</ele>
        <time>2017-08-08T14:45:54Z</time>
      </trkpt>
      <trkpt lat="49.41536" lon="1.22908">
        <ele>71</ele>
        <time>2017-08-08T14:46:10Z</time>
      </trkpt>
      <trkpt lat="49.41538" lon="1.22913">
        <ele>71</ele>
        <time>2017-08-08T14:46:10Z</time>
      </trkpt>
      <trkpt lat="49.41539" lon="1.22916">
        <ele>71</ele>
        <time>2017-08-08T14:46:10Z</time>
      </trkpt>
      <trkpt lat="49.41541" lon="1.2292">
        <ele>71</ele>
        <time>2017-08-08T14:46:10Z</time>
      </trkpt>
      <trkpt lat="49.41544" lon="1.22926">
        <ele>71</ele>
        <time>2017-08-08T14:46:25Z</time>
      </trkpt>
      <trkpt lat="49.41546" lon="1.2293">
        <ele>71</ele>
        <time>2017-08-08T14:46:25Z</time>
      </trkpt>
      <trkpt lat="49.4155" lon="1.22937">
        <ele>71</ele>
        <time>2017-08-08T14:46:25Z</time>
      </trkpt>
      <trkpt lat="49.41554" lon="1.22943">
        <ele>71</ele>
        <time>2017-08-08T14:46:25Z</time>
      </trkpt>
      <trkpt lat="49.41556" lon="1.22948">
        <ele>71</ele>
        <time>2017-08-08T14:46:42Z</time>
      </trkpt>
      <trkpt lat="49.41559" lon="1.22953">
        <ele>71</ele>
        <time>2017-08-08T14:46:42Z</time>
      </trkpt>
      <trkpt lat="49.41563" lon="1.2296">
        <ele>72</ele>
        <time>2017-08-08T14:46:42Z</time>
      </trkpt>
      <trkpt lat="49.41565" lon="1.22965">
        <ele>72</ele>
        <time>2017-08-08T14:46:42Z</time>
      </trkpt>
      <trkpt lat="49.4157" lon="1.22972">
        <ele>72</ele>
        <time>2017-08-08T14:46:57Z</time>
      </trkpt>
      <trkpt lat="49.41572" lon="1.22977">
        <ele>72</ele>
        <time>2017-08-08T14:46:57Z</time>
      </trkpt>
      <trkpt lat="49.41577" lon="1.22983">
        <ele>72</ele>
        <time>2017-08-08T14:46:57Z</time>
      </trkpt>
      <trkpt lat="49.4158" lon="1.22987">
        <ele>72</ele>
        <time>2017-08-08T14:46:57Z</time>
      </trkpt>
      <trkpt lat="49.41583" lon="1.22993">
        <ele>72</ele>
        <time>2017-08-08T14:47:15Z</time>
      </trkpt>
      <trkpt lat="49.41587" lon="1.23">
        <ele>72</ele>
        <time>2017-08-08T14:47:15Z</time>
      </trkpt>
      <trkpt lat="49.4159" lon="1.23005">
        <ele>72</ele>
        <time>2017-08-08T14:47:15Z</time>
      </trkpt>
      <trkpt lat="49.41594" lon="1.23013">
        <ele>72</ele>
        <time>2017-08-08T14:47:15Z</time>
      </trkpt>
      <trkpt lat="49.41597" lon="1.23017">
        <ele>72</ele>
        <time>2017-08-08T14:47:30Z</time>
      </trkpt>
      <trkpt lat="49.41602" lon="1.23022">
        <ele>72</ele>
        <time>2017-08-08T14:47:30Z</time>
      </trkpt>
      <trkpt lat="49.41608" lon="1.23028">
        <ele>72</ele>
        <time>2017-08-08T14:47:30Z</time>
      </trkpt>
      <trkpt lat="49.41612" lon="1.23033">
        <ele>72</ele>
        <time>2017-08-08T14:47:30Z</time>
      </trkpt>
      <trkpt lat="49.41616" lon="1.23037">
        <ele>72</ele>
        <time>2017-08-08T14:47:46Z</time>
      </trkpt>
      <trkpt lat="49.41621" lon="1.23042">
        <ele>72</ele>
        <time>2017-08-08T14:47:46Z</time>
      </trkpt>
      <trkpt lat="49.41625" lon="1.23046">
        <ele>76</ele>
        <time>2017-08-08T14:47:46Z</time>
      </trkpt>
      <trkpt lat="49.41628" lon="1.23052">
        <ele>74</ele>
        <time>2017-08-08T14:47:46Z</time>
      </trkpt>
      <trkpt lat="49.41632" lon="1.23056">
        <ele>74</ele>
        <time>2017-08-08T14:48:02Z</time>
      </trkpt>
      <trkpt lat="49.41635" lon="1.23059">
        <ele>74</ele>
        <time>2017-08-08T14:48:02Z</time>
      </trkpt>
      <trkpt lat="49.41641" lon="1.23065">
        <ele>74</ele>
        <time>2017-08-08T14:48:02Z</time>
      </trkpt>
      <trkpt lat="49.41645" lon="1.2307">
        <ele>74</ele>
        <time>2017-08-08T14:48:02Z</time>
      </trkpt>
      <trkpt lat="49.41648" lon="1.23074">
        <ele>74</ele>
        <time>2017-08-08T14:48:19Z</time>
      </trkpt>
      <trkpt lat="49.41655" lon="1.23081">
        <ele>74</ele>
        <time>2017-08-08T14:48:19Z</time>
      </trkpt>
      <trkpt lat="49.41658" lon="1.23085">
        <ele>74</ele>
        <time>2017-08-08T14:48:19Z</time>
      </trkpt>
      <trkpt lat="49.41662" lon="1.23087">
        <ele>74</ele>
        <time>2017-08-08T14:48:19Z</time>
      </trkpt>
      <trkpt lat="49.41666" lon="1.23091">
        <ele>74</ele>
        <time>2017-08-08T14:48:33Z</time>
      </trkpt>
      <trkpt lat="49.41671" lon="1.23096">
        <ele>74</ele>
        <time>2017-08-08T14:48:33Z</time>
      </trkpt>
      <trkpt lat="49.41675" lon="1.23099">
        <ele>74</ele>
        <time>2017-08-08T14:48:33Z</time>
      </trkpt>
      <trkpt lat="49.41678" lon="1.23101">
        <ele>74</ele>
        <time>2017-08-08T14:48:33Z</time>
      </trkpt>
      <trkpt lat="49.41683" lon="1.23104">
        <ele>74</ele>
        <time>2017-08-08T14:48:50Z</time>
      </trkpt>
      <trkpt lat="49.41687" lon="1.23106">
        <ele>74</ele>
        <time>2017-08-08T14:48:50Z</time>
      </trkpt>
      <trkpt lat="49.41693" lon="1.23112">
        <ele>74</ele>
        <time>2017-08-08T14:48:50Z</time>
      </trkpt>
      <trkpt lat="49.41696" lon="1.23114">
        <ele>74</ele>
        <time>2017-08-08T14:48:50Z</time>
      </trkpt>
      <trkpt lat="49.41701" lon="1.23118">
        <ele>74</ele>
        <time>2017-08-08T14:49:06Z</time>
      </trkpt>
      <trkpt lat="49.41703" lon="1.23122">
        <ele>74</ele>
        <time>2017-08-08T14:49:06Z</time>
      </trkpt>
      <trkpt lat="49.41711" lon="1.23123">
        <ele>73</ele>
        <time>2017-08-08T14:49:06Z</time>
      </trkpt>
      <trkpt lat="49.41713" lon="1.23123">
        <ele>73</ele>
        <time>2017-08-08T14:49:06Z</time>
      </trkpt>
      <trkpt lat="49.41713" lon="1.23123">
        <ele>73</ele>
        <time>2017-08-08T14:50:02Z</time>
      </trkpt>
      <trkpt lat="49.41713" lon="1.23124">
        <ele>73</ele>
        <time>2017-08-08T14:50:02Z</time>
      </trkpt>
      <trkpt lat="49.41713" lon="1.23125">
        <ele>73</ele>
        <time>2017-08-08T14:50:02Z</time>
      </trkpt>
      <trkpt lat="49.41713" lon="1.23125">
        <ele>73</ele>
        <time>2017-08-08T14:50:02Z</time>
      </trkpt>
      <trkpt lat="49.41716" lon="1.23145">
        <ele>77</ele>
        <time>2017-08-08T14:50:02Z</time>
      </trkpt>
      <trkpt lat="49.41724" lon="1.23148">
        <ele>77</ele>
        <time>2017-08-08T14:50:27Z</time>
      </trkpt>
      <trkpt lat="49.41724" lon="1.23148">
        <ele>77</ele>
        <time>2017-08-08T14:50:27Z</time>
      </trkpt>
      <trkpt lat="49.41724" lon="1.23148">
        <ele>77</ele>
        <time>2017-08-08T14:50:27Z</time>
      </trkpt>
      <trkpt lat="49.41725" lon="1.23149">
        <ele>77</ele>
        <time>2017-08-08T14:50:27Z</time>
      </trkpt>
      <trkpt lat="49.41747" lon="1.23161">
        <ele>77</ele>
        <time>2017-08-08T14:50:27Z</time>
      </trkpt>
      <trkpt lat="49.41762" lon="1.23169">
        <ele>77</ele>
        <time>2017-08-08T14:50:43Z</time>
      </trkpt>
      <trkpt lat="49.4177" lon="1.23175">
        <ele>77</ele>
        <time>2017-08-08T14:50:43Z</time>
      </trkpt>
      <trkpt lat="49.41771" lon="1.23177">
        <ele>77</ele>
        <time>2017-08-08T14:50:43Z</time>
      </trkpt>
      <trkpt lat="49.41774" lon="1.23178">
        <ele>77</ele>
        <time>2017-08-08T14:50:43Z</time>
      </trkpt>
      <trkpt lat="49.41776" lon="1.23179">
        <ele>77</ele>
        <time>2017-08-08T14:50:59Z</time>
      </trkpt>
      <trkpt lat="49.41779" lon="1.23182">
        <ele>77</ele>
        <time>2017-08-08T14:50:59Z</time>
      </trkpt>
      <trkpt lat="49.41783" lon="1.23186">
        <ele>77</ele>
        <time>2017-08-08T14:50:59Z</time>
      </trkpt>
      <trkpt lat="49.41789" lon="1.23189">
        <ele>77</ele>
        <time>2017-08-08T14:50:59Z</time>
      </trkpt>
      <trkpt lat="49.41792" lon="1.23193">
        <ele>73</ele>
        <time>2017-08-08T14:51:14Z</time>
      </trkpt>
      <trkpt lat="49.41798" lon="1.23201">
        <ele>73</ele>
        <time>2017-08-08T14:51:14Z</time>
      </trkpt>
      <trkpt lat="49.418" lon="1.23206">
        <ele>73</ele>
        <time>2017-08-08T14:51:14Z</time>
      </trkpt>
      <trkpt lat="49.41803" lon="1.23215">
        <ele>80</ele>
        <time>2017-08-08T14:51:14Z</time>
      </trkpt>
      <trkpt lat="49.41806" lon="1.23222">
        <ele>80</ele>
        <time>2017-08-08T14:51:31Z</time>
      </trkpt>
      <trkpt lat="49.4181" lon="1.2323">
        <ele>80</ele>
        <time>2017-08-08T14:51:31Z</time>
      </trkpt>
      <trkpt lat="49.41816" lon="1.23239">
        <ele>80</ele>
        <time>2017-08-08T14:51:31Z</time>
      </trkpt>
      <trkpt lat="49.41819" lon="1.23243">
        <ele>80</ele>
        <time>2017-08-08T14:51:31Z</time>
      </trkpt>
      <trkpt lat="49.41822" lon="1.23244">
        <ele>80</ele>
        <time>2017-08-08T14:51:47Z</time>
      </trkpt>
      <trkpt lat="49.41826" lon="1.23246">
        <ele>80</ele>
        <time>2017-08-08T14:51:47Z</time>
      </trkpt>
      <trkpt lat="49.4183" lon="1.23248">
        <ele>80</ele>
        <time>2017-08-08T14:51:47Z</time>
      </trkpt>
      <trkpt lat="49.41834" lon="1.23252">
        <ele>80</ele>
        <time>2017-08-08T14:51:47Z</time>
      </trkpt>
      <trkpt lat="49.41839" lon="1.23255">
        <ele>80</ele>
        <time>2017-08-08T14:52:02Z</time>
      </trkpt>
      <trkpt lat="49.41843" lon="1.23257">
        <ele>80</ele>
        <time>2017-08-08T14:52:02Z</time>
      </trkpt>
      <trkpt lat="49.41848" lon="1.2326">
        <ele>80</ele>
        <time>2017-08-08T14:52:02Z</time>
      </trkpt>
      <trkpt lat="49.41853" lon="1.23261">
        <ele>80</ele>
        <time>2017-08-08T14:52:03Z</time>
      </trkpt>
      <trkpt lat="49.41856" lon="1.23264">
        <ele>80</ele>
        <time>2017-08-08T14:52:17Z</time>
      </trkpt>
      <trkpt lat="49.41862" lon="1.23269">
        <ele>80</ele>
        <time>2017-08-08T14:52:17Z</time>
      </trkpt>
      <trkpt lat="49.41867" lon="1.23272">
        <ele>80</ele>
        <time>2017-08-08T14:52:17Z</time>
      </trkpt>
      <trkpt lat="49.41871" lon="1.23275">
        <ele>80</ele>
        <time>2017-08-08T14:52:17Z</time>
      </trkpt>
      <trkpt lat="49.41874" lon="1.23276">
        <ele>80</ele>
        <time>2017-08-08T14:52:39Z</time>
      </trkpt>
      <trkpt lat="49.41881" lon="1.23282">
        <ele>78</ele>
        <time>2017-08-08T14:52:39Z</time>
      </trkpt>
      <trkpt lat="49.41883" lon="1.23284">
        <ele>78</ele>
        <time>2017-08-08T14:52:39Z</time>
      </trkpt>
      <trkpt lat="49.41896" lon="1.23287">
        <ele>78</ele>
        <time>2017-08-08T14:52:39Z</time>
      </trkpt>
      <trkpt lat="49.41902" lon="1.23292">
        <ele>82</ele>
        <time>2017-08-08T14:52:54Z</time>
      </trkpt>
      <trkpt lat="49.41908" lon="1.23298">
        <ele>82</ele>
        <time>2017-08-08T14:52:54Z</time>
      </trkpt>
      <trkpt lat="49.41911" lon="1.23302">
        <ele>82</ele>
        <time>2017-08-08T14:52:54Z</time>
      </trkpt>
      <trkpt lat="49.41916" lon="1.23305">
        <ele>82</ele>
        <time>2017-08-08T14:52:54Z</time>
      </trkpt>
      <trkpt lat="49.41923" lon="1.23308">
        <ele>82</ele>
        <time>2017-08-08T14:53:10Z</time>
      </trkpt>
      <trkpt lat="49.41927" lon="1.23309">
        <ele>82</ele>
        <time>2017-08-08T14:53:10Z</time>
      </trkpt>
      <trkpt lat="49.41932" lon="1.23313">
        <ele>82</ele>
        <time>2017-08-08T14:53:10Z</time>
      </trkpt>
      <trkpt lat="49.41937" lon="1.23316">
        <ele>82</ele>
        <time>2017-08-08T14:53:10Z</time>
      </trkpt>
      <trkpt lat="49.41943" lon="1.2332">
        <ele>82</ele>
        <time>2017-08-08T14:53:26Z</time>
      </trkpt>
      <trkpt lat="49.41946" lon="1.23321">
        <ele>82</ele>
        <time>2017-08-08T14:53:26Z</time>
      </trkpt>
      <trkpt lat="49.4195" lon="1.23327">
        <ele>82</ele>
        <time>2017-08-08T14:53:26Z</time>
      </trkpt>
      <trkpt lat="49.41954" lon="1.23328">
        <ele>82</ele>
        <time>2017-08-08T14:53:26Z</time>
      </trkpt>
      <trkpt lat="49.41958" lon="1.23334">
        <ele>82</ele>
        <time>2017-08-08T14:53:43Z</time>
      </trkpt>
      <trkpt lat="49.41961" lon="1.23338">
        <ele>82</ele>
        <time>2017-08-08T14:53:43Z</time>
      </trkpt>
      <trkpt lat="49.41968" lon="1.23343">
        <ele>82</ele>
        <time>2017-08-08T14:53:43Z</time>
      </trkpt>
      <trkpt lat="49.41974" lon="1.23347">
        <ele>82</ele>
        <time>2017-08-08T14:53:43Z</time>
      </trkpt>
      <trkpt lat="49.41978" lon="1.23352">
        <ele>82</ele>
        <time>2017-08-08T14:53:58Z</time>
      </trkpt>
      <trkpt lat="49.41985" lon="1.2336">
        <ele>82</ele>
        <time>2017-08-08T14:53:58Z</time>
      </trkpt>
      <trkpt lat="49.41991" lon="1.23365">
        <ele>82</ele>
        <time>2017-08-08T14:53:58Z</time>
      </trkpt>
      <trkpt lat="49.41994" lon="1.23368">
        <ele>82</ele>
        <time>2017-08-08T14:53:58Z</time>
      </trkpt>
      <trkpt lat="49.41999" lon="1.2337">
        <ele>82</ele>
        <time>2017-08-08T14:54:14Z</time>
      </trkpt>
      <trkpt lat="49.42005" lon="1.23374">
        <ele>82</ele>
        <time>2017-08-08T14:54:14Z</time>
      </trkpt>
      <trkpt lat="49.42008" lon="1.23372">
        <ele>82</ele>
        <time>2017-08-08T14:54:14Z</time>
      </trkpt>
      <trkpt lat="49.4201" lon="1.23369">
        <ele>82</ele>
        <time>2017-08-08T14:54:14Z</time>
      </trkpt>
      <trkpt lat="49.42016" lon="1.23372">
        <ele>82</ele>
        <time>2017-08-08T14:54:31Z</time>
      </trkpt>
      <trkpt lat="49.42019" lon="1.23376">
        <ele>83</ele>
        <time>2017-08-08T14:54:31Z</time>
      </trkpt>
      <trkpt lat="49.4202" lon="1.23377">
        <ele>83</ele>
        <time>2017-08-08T14:54:31Z</time>
      </trkpt>
      <trkpt lat="49.42026" lon="1.2338">
        <ele>83</ele>
        <time>2017-08-08T14:54:31Z</time>
      </trkpt>
      <trkpt lat="49.42032" lon="1.23385">
        <ele>83</ele>
        <time>2017-08-08T14:54:46Z</time>
      </trkpt>
      <trkpt lat="49.42039" lon="1.23389">
        <ele>83</ele>
        <time>2017-08-08T14:54:46Z</time>
      </trkpt>
      <trkpt lat="49.42044" lon="1.23393">
        <ele>85</ele>
        <time>2017-08-08T14:54:46Z</time>
      </trkpt>
      <trkpt lat="49.42049" lon="1.23397">
        <ele>85</ele>
        <time>2017-08-08T14:54:46Z</time>
      </trkpt>
      <trkpt lat="49.42053" lon="1.23401">
        <ele>85</ele>
        <time>2017-08-08T14:55:02Z</time>
      </trkpt>
      <trkpt lat="49.42059" lon="1.23404">
        <ele>85</ele>
        <time>2017-08-08T14:55:02Z</time>
      </trkpt>
      <trkpt lat="49.42062" lon="1.23407">
        <ele>85</ele>
        <time>2017-08-08T14:55:02Z</time>
      </trkpt>
      <trkpt lat="49.42068" lon="1.23409">
        <ele>85</ele>
        <time>2017-08-08T14:55:02Z</time>
      </trkpt>
      <trkpt lat="49.42071" lon="1.23412">
        <ele>85</ele>
        <time>2017-08-08T14:55:17Z</time>
      </trkpt>
      <trkpt lat="49.42079" lon="1.23418">
        <ele>85</ele>
        <time>2017-08-08T14:55:17Z</time>
      </trkpt>
      <trkpt lat="49.42082" lon="1.23421">
        <ele>85</ele>
        <time>2017-08-08T14:55:17Z</time>
      </trkpt>
      <trkpt lat="49.42087" lon="1.23425">
        <ele>85</ele>
        <time>2017-08-08T14:55:17Z</time>
      </trkpt>
      <trkpt lat="49.42091" lon="1.23431">
        <ele>85</ele>
        <time>2017-08-08T14:55:34Z</time>
      </trkpt>
      <trkpt lat="49.42095" lon="1.23438">
        <ele>85</ele>
        <time>2017-08-08T14:55:34Z</time>
      </trkpt>
      <trkpt lat="49.42098" lon="1.23441">
        <ele>85</ele>
        <time>2017-08-08T14:55:34Z</time>
      </trkpt>
      <trkpt lat="49.42101" lon="1.23443">
        <ele>85</ele>
        <time>2017-08-08T14:55:34Z</time>
      </trkpt>
      <trkpt lat="49.42095" lon="1.23455">
        <ele>85</ele>
        <time>2017-08-08T14:59:01Z</time>
      </trkpt>
      <trkpt lat="49.42095" lon="1.23455">
        <ele>85</ele>
        <time>2017-08-08T14:59:01Z</time>
      </trkpt>
      <trkpt lat="49.42093" lon="1.23458">
        <ele>88</ele>
        <time>2017-08-08T14:59:01Z</time>
      </trkpt>
      <trkpt lat="49.42093" lon="1.23459">
        <ele>88</ele>
        <time>2017-08-08T14:59:01Z</time>
      </trkpt>
      <trkpt lat="49.42093" lon="1.23459">
        <ele>88</ele>
        <time>2017-08-08T14:59:01Z</time>
      </trkpt>
      <trkpt lat="49.42093" lon="1.23459">
        <ele>88</ele>
        <time>2017-08-08T15:01:05Z</time>
      </trkpt>
      <trkpt lat="49.42093" lon="1.23459">
        <ele>88</ele>
        <time>2017-08-08T15:01:05Z</time>
      </trkpt>
      <trkpt lat="49.42093" lon="1.2346">
        <ele>88</ele>
        <time>2017-08-08T15:01:05Z</time>
      </trkpt>
      <trkpt lat="49.42102" lon="1.2346">
        <ele>88</ele>
        <time>2017-08-08T15:01:05Z</time>
      </trkpt>
      <trkpt lat="49.42104" lon="1.23462">
        <ele>88</ele>
        <time>2017-08-08T15:01:05Z</time>
      </trkpt>
      <trkpt lat="49.42108" lon="1.23458">
        <ele>85</ele>
        <time>2017-08-08T15:01:21Z</time>
      </trkpt>
      <trkpt lat="49.42113" lon="1.23456">
        <ele>85</ele>
        <time>2017-08-08T15:01:21Z</time>
      </trkpt>
      <trkpt lat="49.42117" lon="1.23454">
        <ele>85</ele>
        <time>2017-08-08T15:01:21Z</time>
      </trkpt>
      <trkpt lat="49.42122" lon="1.23454">
        <ele>85</ele>
        <time>2017-08-08T15:01:21Z</time>
      </trkpt>
      <trkpt lat="49.42127" lon="1.23453">
        <ele>90</ele>
        <time>2017-08-08T15:01:37Z</time>
      </trkpt>
      <trkpt lat="49.42134" lon="1.23452">
        <ele>90</ele>
        <time>2017-08-08T15:01:37Z</time>
      </trkpt>
      <trkpt lat="49.4214" lon="1.23459">
        <ele>90</ele>
        <time>2017-08-08T15:01:37Z</time>
      </trkpt>
      <trkpt lat="49.42144" lon="1.23462">
        <ele>90</ele>
        <time>2017-08-08T15:01:37Z</time>
      </trkpt>
      <trkpt lat="49.42148" lon="1.23463">
        <ele>90</ele>
        <time>2017-08-08T15:01:53Z</time>
      </trkpt>
      <trkpt lat="49.42153" lon="1.23467">
        <ele>90</ele>
        <time>2017-08-08T15:01:53Z</time>
      </trkpt>
      <trkpt lat="49.42158" lon="1.23466">
        <ele>90</ele>
        <time>2017-08-08T15:01:53Z</time>
      </trkpt>
      <trkpt lat="49.42163" lon="1.23468">
        <ele>90</ele>
        <time>2017-08-08T15:01:53Z</time>
      </trkpt>
      <trkpt lat="49.42167" lon="1.2347">
        <ele>90</ele>
        <time>2017-08-08T15:02:09Z</time>
      </trkpt>
      <trkpt lat="49.42171" lon="1.23471">
        <ele>90</ele>
        <time>2017-08-08T15:02:09Z</time>
      </trkpt>
      <trkpt lat="49.42174" lon="1.23471">
        <ele>90</ele>
        <time>2017-08-08T15:02:09Z</time>
      </trkpt>
      <trkpt lat="49.42178" lon="1.23471">
        <ele>90</ele>
        <time>2017-08-08T15:02:09Z</time>
      </trkpt>
      <trkpt lat="49.42182" lon="1.23471">
        <ele>90</ele>
        <time>2017-08-08T15:02:25Z</time>
      </trkpt>
      <trkpt lat="49.42186" lon="1.23473">
        <ele>90</ele>
        <time>2017-08-08T15:02:25Z</time>
      </trkpt>
      <trkpt lat="49.42191" lon="1.23474">
        <ele>90</ele>
        <time>2017-08-08T15:02:25Z</time>
      </trkpt>
      <trkpt lat="49.42196" lon="1.23477">
        <ele>90</ele>
        <time>2017-08-08T15:02:25Z</time>
      </trkpt>
      <trkpt lat="49.42201" lon="1.23477">
        <ele>90</ele>
        <time>2017-08-08T15:02:41Z</time>
      </trkpt>
      <trkpt lat="49.42206" lon="1.23476">
        <ele>90</ele>
        <time>2017-08-08T15:02:41Z</time>
      </trkpt>
      <trkpt lat="49.42211" lon="1.23475">
        <ele>92</ele>
        <time>2017-08-08T15:02:41Z</time>
      </trkpt>
      <trkpt lat="49.42216" lon="1.23475">
        <ele>92</ele>
        <time>2017-08-08T15:02:41Z</time>
      </trkpt>
      <trkpt lat="49.42221" lon="1.23474">
        <ele>92</ele>
        <time>2017-08-08T15:02:57Z</time>
      </trkpt>
      <trkpt lat="49.42226" lon="1.23473">
        <ele>92</ele>
        <time>2017-08-08T15:02:57Z</time>
      </trkpt>
      <trkpt lat="49.4223" lon="1.23472">
        <ele>92</ele>
        <time>2017-08-08T15:02:57Z</time>
      </trkpt>
      <trkpt lat="49.42235" lon="1.23471">
        <ele>92</ele>
        <time>2017-08-08T15:02:57Z</time>
      </trkpt>
      <trkpt lat="49.4224" lon="1.23471">
        <ele>92</ele>
        <time>2017-08-08T15:03:13Z</time>
      </trkpt>
      <trkpt lat="49.42246" lon="1.23469">
        <ele>92</ele>
        <time>2017-08-08T15:03:13Z</time>
      </trkpt>
      <trkpt lat="49.42251" lon="1.23465">
        <ele>92</ele>
        <time>2017-08-08T15:03:13Z</time>
      </trkpt>
      <trkpt lat="49.42256" lon="1.23463">
        <ele>92</ele>
        <time>2017-08-08T15:03:13Z</time>
      </trkpt>
      <trkpt lat="49.42262" lon="1.23461">
        <ele>92</ele>
        <time>2017-08-08T15:04:01Z</time>
      </trkpt>
      <trkpt lat="49.42263" lon="1.23461">
        <ele>92</ele>
        <time>2017-08-08T15:04:01Z</time>
      </trkpt>
      <trkpt lat="49.42307" lon="1.23435">
        <ele>88</ele>
        <time>2017-08-08T15:04:01Z</time>
      </trkpt>
      <trkpt lat="49.42318" lon="1.23444">
        <ele>88</ele>
        <time>2017-08-08T15:04:01Z</time>
      </trkpt>
      <trkpt lat="49.42321" lon="1.2344">
        <ele>88</ele>
        <time>2017-08-08T15:04:17Z</time>
      </trkpt>
      <trkpt lat="49.42325" lon="1.23438">
        <ele>88</ele>
        <time>2017-08-08T15:04:17Z</time>
      </trkpt>
      <trkpt lat="49.42329" lon="1.23436">
        <ele>88</ele>
        <time>2017-08-08T15:04:17Z</time>
      </trkpt>
      <trkpt lat="49.42335" lon="1.23432">
        <ele>88</ele>
        <time>2017-08-08T15:04:17Z</time>
      </trkpt>
      <trkpt lat="49.4234" lon="1.23429">
        <ele>88</ele>
        <time>2017-08-08T15:04:33Z</time>
      </trkpt>
      <trkpt lat="49.42344" lon="1.23425">
        <ele>88</ele>
        <time>2017-08-08T15:04:33Z</time>
      </trkpt>
      <trkpt lat="49.42347" lon="1.23422">
        <ele>88</ele>
        <time>2017-08-08T15:04:33Z</time>
      </trkpt>
      <trkpt lat="49.42352" lon="1.23421">
        <ele>88</ele>
        <time>2017-08-08T15:04:33Z</time>
      </trkpt>
      <trkpt lat="49.42357" lon="1.23422">
        <ele>88</ele>
        <time>2017-08-08T15:04:49Z</time>
      </trkpt>
      <trkpt lat="49.4236" lon="1.23424">
        <ele>88</ele>
        <time>2017-08-08T15:04:49Z</time>
      </trkpt>
      <trkpt lat="49.42364" lon="1.23425">
        <ele>88</ele>
        <time>2017-08-08T15:04:49Z</time>
      </trkpt>
      <trkpt lat="49.42369" lon="1.23427">
        <ele>88</ele>
        <time>2017-08-08T15:04:49Z</time>
      </trkpt>
      <trkpt lat="49.42377" lon="1.2343">
        <ele>83</ele>
        <time>2017-08-08T15:05:07Z</time>
      </trkpt>
      <trkpt lat="49.42379" lon="1.23431">
        <ele>83</ele>
        <time>2017-08-08T15:05:07Z</time>
      </trkpt>
      <trkpt lat="49.42383" lon="1.23434">
        <ele>83</ele>
        <time>2017-08-08T15:05:07Z</time>
      </trkpt>
      <trkpt lat="49.42392" lon="1.23443">
        <ele>83</ele>
        <time>2017-08-08T15:05:07Z</time>
      </trkpt>
      <trkpt lat="49.42397" lon="1.2345">
        <ele>83</ele>
        <time>2017-08-08T15:05:22Z</time>
      </trkpt>
      <trkpt lat="49.42402" lon="1.23456">
        <ele>83</ele>
        <time>2017-08-08T15:05:22Z</time>
      </trkpt>
      <trkpt lat="49.42406" lon="1.23461">
        <ele>92</ele>
        <time>2017-08-08T15:05:22Z</time>
      </trkpt>
      <trkpt lat="49.42411" lon="1.23465">
        <ele>92</ele>
        <time>2017-08-08T15:05:22Z</time>
      </trkpt>
      <trkpt lat="49.42415" lon="1.23469">
        <ele>92</ele>
        <time>2017-08-08T15:05:38Z</time>
      </trkpt>
      <trkpt lat="49.42421" lon="1.23475">
        <ele>92</ele>
        <time>2017-08-08T15:05:38Z</time>
      </trkpt>
      <trkpt lat="49.42424" lon="1.23477">
        <ele>92</ele>
        <time>2017-08-08T15:05:38Z</time>
      </trkpt>
      <trkpt lat="49.42429" lon="1.23482">
        <ele>92</ele>
        <time>2017-08-08T15:05:38Z</time>
      </trkpt>
      <trkpt lat="49.42433" lon="1.23488">
        <ele>92</ele>
        <time>2017-08-08T15:05:53Z</time>
      </trkpt>
      <trkpt lat="49.42437" lon="1.23493">
        <ele>92</ele>
        <time>2017-08-08T15:05:53Z</time>
      </trkpt>
      <trkpt lat="49.4244" lon="1.23497">
        <ele>92</ele>
        <time>2017-08-08T15:05:53Z</time>
      </trkpt>
      <trkpt lat="49.42441" lon="1.23504">
        <ele>92</ele>
        <time>2017-08-08T15:05:53Z</time>
      </trkpt>
      <trkpt lat="49.42444" lon="1.23511">
        <ele>92</ele>
        <time>2017-08-08T15:06:10Z</time>
      </trkpt>
      <trkpt lat="49.42448" lon="1.23518">
        <ele>92</ele>
        <time>2017-08-08T15:06:10Z</time>
      </trkpt>
      <trkpt lat="49.42452" lon="1.23526">
        <ele>92</ele>
        <time>2017-08-08T15:06:10Z</time>
      </trkpt>
      <trkpt lat="49.42453" lon="1.23531">
        <ele>92</ele>
        <time>2017-08-08T15:06:10Z</time>
      </trkpt>
      <trkpt lat="49.42456" lon="1.23542">
        <ele>92</ele>
        <time>2017-08-08T15:06:26Z</time>
      </trkpt>
      <trkpt lat="49.42457" lon="1.23549">
        <ele>108</ele>
        <time>2017-08-08T15:06:26Z</time>
      </trkpt>
      <trkpt lat="49.42457" lon="1.2356">
        <ele>108</ele>
        <time>2017-08-08T15:06:26Z</time>
      </trkpt>
      <trkpt lat="49.4246" lon="1.23567">
        <ele>95</ele>
        <time>2017-08-08T15:06:26Z</time>
      </trkpt>
      <trkpt lat="49.42462" lon="1.23573">
        <ele>95</ele>
        <time>2017-08-08T15:06:43Z</time>
      </trkpt>
      <trkpt lat="49.42465" lon="1.23584">
        <ele>95</ele>
        <time>2017-08-08T15:06:43Z</time>
      </trkpt>
      <trkpt lat="49.42468" lon="1.23589">
        <ele>95</ele>
        <time>2017-08-08T15:06:43Z</time>
      </trkpt>
      <trkpt lat="49.42471" lon="1.23598">
        <ele>95</ele>
        <time>2017-08-08T15:06:43Z</time>
      </trkpt>
      <trkpt lat="49.42474" lon="1.23604">
        <ele>95</ele>
        <time>2017-08-08T15:06:57Z</time>
      </trkpt>
      <trkpt lat="49.42478" lon="1.23611">
        <ele>95</ele>
        <time>2017-08-08T15:06:57Z</time>
      </trkpt>
      <trkpt lat="49.42482" lon="1.23619">
        <ele>95</ele>
        <time>2017-08-08T15:06:57Z</time>
      </trkpt>
      <trkpt lat="49.42485" lon="1.23624">
        <ele>95</ele>
        <time>2017-08-08T15:06:57Z</time>
      </trkpt>
      <trkpt lat="49.42489" lon="1.23635">
        <ele>101</ele>
        <time>2017-08-08T15:07:14Z</time>
      </trkpt>
      <trkpt lat="49.42491" lon="1.23643">
        <ele>101</ele>
        <time>2017-08-08T15:07:14Z</time>
      </trkpt>
      <trkpt lat="49.42493" lon="1.23648">
        <ele>101</ele>
        <time>2017-08-08T15:07:14Z</time>
      </trkpt>
      <trkpt lat="49.42496" lon="1.23654">
        <ele>101</ele>
        <time>2017-08-08T15:07:14Z</time>
      </trkpt>
      <trkpt lat="49.42501" lon="1.2366">
        <ele>101</ele>
        <time>2017-08-08T15:07:30Z</time>
      </trkpt>
      <trkpt lat="49.42506" lon="1.23666">
        <ele>101</ele>
        <time>2017-08-08T15:07:30Z</time>
      </trkpt>
      <trkpt lat="49.42509" lon="1.23671">
        <ele>101</ele>
        <time>2017-08-08T15:07:30Z</time>
      </trkpt>
      <trkpt lat="49.42511" lon="1.23675">
        <ele>101</ele>
        <time>2017-08-08T15:07:30Z</time>
      </trkpt>
      <trkpt lat="49.42515" lon="1.23682">
        <ele>101</ele>
        <time>2017-08-08T15:07:47Z</time>
      </trkpt>
      <trkpt lat="49.42519" lon="1.23687">
        <ele>101</ele>
        <time>2017-08-08T15:07:47Z</time>
      </trkpt>
      <trkpt lat="49.42523" lon="1.23692">
        <ele>101</ele>
        <time>2017-08-08T15:07:47Z</time>
      </trkpt>
      <trkpt lat="49.42527" lon="1.23696">
        <ele>101</ele>
        <time>2017-08-08T15:07:47Z</time>
      </trkpt>
      <trkpt lat="49.4253" lon="1.23699">
        <ele>101</ele>
        <time>2017-08-08T15:08:02Z</time>
      </trkpt>
      <trkpt lat="49.42535" lon="1.23702">
        <ele>101</ele>
        <time>2017-08-08T15:08:02Z</time>
      </trkpt>
      <trkpt lat="49.42541" lon="1.23707">
        <ele>101</ele>
        <time>2017-08-08T15:08:02Z</time>
      </trkpt>
      <trkpt lat="49.42544" lon="1.23709">
        <ele>97</ele>
        <time>2017-08-08T15:08:02Z</time>
      </trkpt>
      <trkpt lat="49.42552" lon="1.23715">
        <ele>97</ele>
        <time>2017-08-08T15:08:18Z</time>
      </trkpt>
      <trkpt lat="49.42556" lon="1.23718">
        <ele>97</ele>
        <time>2017-08-08T15:08:18Z</time>
      </trkpt>
      <trkpt lat="49.42561" lon="1.23719">
        <ele>97</ele>
        <time>2017-08-08T15:08:18Z</time>
      </trkpt>
      <trkpt lat="49.42566" lon="1.2372">
        <ele>97</ele>
        <time>2017-08-08T15:08:18Z</time>
      </trkpt>
      <trkpt lat="49.42571" lon="1.23721">
        <ele>97</ele>
        <time>2017-08-08T15:08:33Z</time>
      </trkpt>
      <trkpt lat="49.42575" lon="1.23721">
        <ele>97</ele>
        <time>2017-08-08T15:08:33Z</time>
      </trkpt>
      <trkpt lat="49.4258" lon="1.23722">
        <ele>97</ele>
        <time>2017-08-08T15:08:33Z</time>
      </trkpt>
      <trkpt lat="49.42585" lon="1.23722">
        <ele>97</ele>
        <time>2017-08-08T15:08:33Z</time>
      </trkpt>
      <trkpt lat="49.42591" lon="1.2372">
        <ele>97</ele>
        <time>2017-08-08T15:08:50Z</time>
      </trkpt>
      <trkpt lat="49.42596" lon="1.23719">
        <ele>97</ele>
        <time>2017-08-08T15:08:50Z</time>
      </trkpt>
      <trkpt lat="49.42599" lon="1.23719">
        <ele>97</ele>
        <time>2017-08-08T15:08:50Z</time>
      </trkpt>
      <trkpt lat="49.42601" lon="1.23719">
        <ele>97</ele>
        <time>2017-08-08T15:08:50Z</time>
      </trkpt>
      <trkpt lat="49.42603" lon="1.23728">
        <ele>97</ele>
        <time>2017-08-08T15:11:14Z</time>
      </trkpt>
      <trkpt lat="49.42603" lon="1.23728">
        <ele>97</ele>
        <time>2017-08-08T15:11:14Z</time>
      </trkpt>
      <trkpt lat="49.42603" lon="1.23728">
        <ele>97</ele>
        <time>2017-08-08T15:11:14Z</time>
      </trkpt>
      <trkpt lat="49.42603" lon="1.23728">
        <ele>97</ele>
        <time>2017-08-08T15:11:14Z</time>
      </trkpt>
      <trkpt lat="49.42618" lon="1.23717">
        <ele>97</ele>
        <time>2017-08-08T15:11:14Z</time>
      </trkpt>
      <trkpt lat="49.42618" lon="1.23717">
        <ele>97</ele>
        <time>2017-08-08T15:11:30Z</time>
      </trkpt>
      <trkpt lat="49.42619" lon="1.23715">
        <ele>97</ele>
        <time>2017-08-08T15:11:30Z</time>
      </trkpt>
      <trkpt lat="49.42614" lon="1.23718">
        <ele>97</ele>
        <time>2017-08-08T15:11:30Z</time>
      </trkpt>
      <trkpt lat="49.42606" lon="1.23718">
        <ele>97</ele>
        <time>2017-08-08T15:11:30Z</time>
      </trkpt>
      <trkpt lat="49.426" lon="1.23697">
        <ele>96</ele>
        <time>2017-08-08T15:12:26Z</time>
      </trkpt>
      <trkpt lat="49.42605" lon="1.23695">
        <ele>96</ele>
        <time>2017-08-08T15:12:26Z</time>
      </trkpt>
      <trkpt lat="49.42607" lon="1.23692">
        <ele>96</ele>
        <time>2017-08-08T15:12:26Z</time>
      </trkpt>
      <trkpt lat="49.42603" lon="1.23681">
        <ele>96</ele>
        <time>2017-08-08T15:12:26Z</time>
      </trkpt>
      <trkpt lat="49.42602" lon="1.23675">
        <ele>96</ele>
        <time>2017-08-08T15:12:26Z</time>
      </trkpt>
      <trkpt lat="49.42602" lon="1.23665">
        <ele>96</ele>
        <time>2017-08-08T15:12:42Z</time>
      </trkpt>
      <trkpt lat="49.42599" lon="1.23658">
        <ele>96</ele>
        <time>2017-08-08T15:12:43Z</time>
      </trkpt>
      <trkpt lat="49.42597" lon="1.2365">
        <ele>96</ele>
        <time>2017-08-08T15:12:43Z</time>
      </trkpt>
      <trkpt lat="49.426" lon="1.23644">
        <ele>96</ele>
        <time>2017-08-08T15:12:43Z</time>
      </trkpt>
      <trkpt lat="49.42597" lon="1.23636">
        <ele>96</ele>
        <time>2017-08-08T15:12:57Z</time>
      </trkpt>
      <trkpt lat="49.42595" lon="1.23628">
        <ele>96</ele>
        <time>2017-08-08T15:12:57Z</time>
      </trkpt>
      <trkpt lat="49.42594" lon="1.2362">
        <ele>101</ele>
        <time>2017-08-08T15:12:57Z</time>
      </trkpt>
      <trkpt lat="49.42593" lon="1.23615">
        <ele>101</ele>
        <time>2017-08-08T15:12:57Z</time>
      </trkpt>
      <trkpt lat="49.42592" lon="1.23606">
        <ele>101</ele>
        <time>2017-08-08T15:13:15Z</time>
      </trkpt>
      <trkpt lat="49.42591" lon="1.236">
        <ele>101</ele>
        <time>2017-08-08T15:13:15Z</time>
      </trkpt>
      <trkpt lat="49.42589" lon="1.23593">
        <ele>101</ele>
        <time>2017-08-08T15:13:15Z</time>
      </trkpt>
      <trkpt lat="49.42587" lon="1.23584">
        <ele>101</ele>
        <time>2017-08-08T15:13:15Z</time>
      </trkpt>
      <trkpt lat="49.42586" lon="1.23579">
        <ele>101</ele>
        <time>2017-08-08T15:13:30Z</time>
      </trkpt>
      <trkpt lat="49.42587" lon="1.23575">
        <ele>101</ele>
        <time>2017-08-08T15:13:31Z</time>
      </trkpt>
      <trkpt lat="49.42586" lon="1.23573">
        <ele>101</ele>
        <time>2017-08-08T15:13:31Z</time>
      </trkpt>
      <trkpt lat="49.42584" lon="1.23565">
        <ele>101</ele>
        <time>2017-08-08T15:13:31Z</time>
      </trkpt>
      <trkpt lat="49.42584" lon="1.23556">
        <ele>101</ele>
        <time>2017-08-08T15:13:46Z</time>
      </trkpt>
      <trkpt lat="49.42584" lon="1.23549">
        <ele>101</ele>
        <time>2017-08-08T15:13:46Z</time>
      </trkpt>
      <trkpt lat="49.42582" lon="1.23541">
        <ele>103</ele>
        <time>2017-08-08T15:13:46Z</time>
      </trkpt>
      <trkpt lat="49.42581" lon="1.23536">
        <ele>103</ele>
        <time>2017-08-08T15:13:46Z</time>
      </trkpt>
      <trkpt lat="49.42579" lon="1.23528">
        <ele>103</ele>
        <time>2017-08-08T15:14:03Z</time>
      </trkpt>
      <trkpt lat="49.42578" lon="1.23523">
        <ele>103</ele>
        <time>2017-08-08T15:14:03Z</time>
      </trkpt>
      <trkpt lat="49.42576" lon="1.23516">
        <ele>103</ele>
        <time>2017-08-08T15:14:03Z</time>
      </trkpt>
      <trkpt lat="49.42577" lon="1.23512">
        <ele>103</ele>
        <time>2017-08-08T15:14:03Z</time>
      </trkpt>
      <trkpt lat="49.42578" lon="1.23507">
        <ele>103</ele>
        <time>2017-08-08T15:14:18Z</time>
      </trkpt>
      <trkpt lat="49.4258" lon="1.23504">
        <ele>103</ele>
        <time>2017-08-08T15:14:18Z</time>
      </trkpt>
      <trkpt lat="49.4258" lon="1.23495">
        <ele>103</ele>
        <time>2017-08-08T15:14:18Z</time>
      </trkpt>
      <trkpt lat="49.42579" lon="1.23491">
        <ele>103</ele>
        <time>2017-08-08T15:14:18Z</time>
      </trkpt>
      <trkpt lat="49.42577" lon="1.23485">
        <ele>103</ele>
        <time>2017-08-08T15:14:34Z</time>
      </trkpt>
      <trkpt lat="49.42577" lon="1.2348">
        <ele>103</ele>
        <time>2017-08-08T15:14:34Z</time>
      </trkpt>
      <trkpt lat="49.42579" lon="1.2347">
        <ele>103</ele>
        <time>2017-08-08T15:14:34Z</time>
      </trkpt>
      <trkpt lat="49.42579" lon="1.23465">
        <ele>103</ele>
        <time>2017-08-08T15:14:34Z</time>
      </trkpt>
      <trkpt lat="49.42577" lon="1.23457">
        <ele>109</ele>
        <time>2017-08-08T15:14:51Z</time>
      </trkpt>
      <trkpt lat="49.42576" lon="1.2345">
        <ele>109</ele>
        <time>2017-08-08T15:14:51Z</time>
      </trkpt>
      <trkpt lat="49.42574" lon="1.23444">
        <ele>109</ele>
        <time>2017-08-08T15:14:51Z</time>
      </trkpt>
      <trkpt lat="49.42572" lon="1.23437">
        <ele>109</ele>
        <time>2017-08-08T15:14:51Z</time>
      </trkpt>
      <trkpt lat="49.42571" lon="1.23432">
        <ele>109</ele>
        <time>2017-08-08T15:15:07Z</time>
      </trkpt>
      <trkpt lat="49.42569" lon="1.23424">
        <ele>109</ele>
        <time>2017-08-08T15:15:07Z</time>
      </trkpt>
      <trkpt lat="49.42569" lon="1.23419">
        <ele>109</ele>
        <time>2017-08-08T15:15:07Z</time>
      </trkpt>
      <trkpt lat="49.42567" lon="1.2341">
        <ele>109</ele>
        <time>2017-08-08T15:15:07Z</time>
      </trkpt>
      <trkpt lat="49.42567" lon="1.23402">
        <ele>109</ele>
        <time>2017-08-08T15:15:23Z</time>
      </trkpt>
      <trkpt lat="49.42569" lon="1.23394">
        <ele>109</ele>
        <time>2017-08-08T15:15:23Z</time>
      </trkpt>
      <trkpt lat="49.4257" lon="1.2339">
        <ele>109</ele>
        <time>2017-08-08T15:15:23Z</time>
      </trkpt>
      <trkpt lat="49.42571" lon="1.23382">
        <ele>109</ele>
        <time>2017-08-08T15:15:23Z</time>
      </trkpt>
      <trkpt lat="49.42571" lon="1.23377">
        <ele>109</ele>
        <time>2017-08-08T15:15:39Z</time>
      </trkpt>
      <trkpt lat="49.42572" lon="1.2337">
        <ele>115</ele>
        <time>2017-08-08T15:15:39Z</time>
      </trkpt>
      <trkpt lat="49.42573" lon="1.23365">
        <ele>115</ele>
        <time>2017-08-08T15:15:39Z</time>
      </trkpt>
      <trkpt lat="49.42572" lon="1.23356">
        <ele>115</ele>
        <time>2017-08-08T15:15:39Z</time>
      </trkpt>
      <trkpt lat="49.42571" lon="1.23348">
        <ele>115</ele>
        <time>2017-08-08T15:15:54Z</time>
      </trkpt>
      <trkpt lat="49.4257" lon="1.23341">
        <ele>115</ele>
        <time>2017-08-08T15:15:54Z</time>
      </trkpt>
      <trkpt lat="49.42569" lon="1.23336">
        <ele>115</ele>
        <time>2017-08-08T15:15:54Z</time>
      </trkpt>
      <trkpt lat="49.42567" lon="1.23328">
        <ele>115</ele>
        <time>2017-08-08T15:15:54Z</time>
      </trkpt>
      <trkpt lat="49.42565" lon="1.23322">
        <ele>115</ele>
        <time>2017-08-08T15:16:10Z</time>
      </trkpt>
      <trkpt lat="49.42562" lon="1.23316">
        <ele>115</ele>
        <time>2017-08-08T15:16:10Z</time>
      </trkpt>
      <trkpt lat="49.4256" lon="1.2331">
        <ele>115</ele>
        <time>2017-08-08T15:16:10Z</time>
      </trkpt>
      <trkpt lat="49.42558" lon="1.23304">
        <ele>115</ele>
        <time>2017-08-08T15:16:10Z</time>
      </trkpt>
      <trkpt lat="49.42555" lon="1.23298">
        <ele>115</ele>
        <time>2017-08-08T15:16:26Z</time>
      </trkpt>
      <trkpt lat="49.42553" lon="1.23292">
        <ele>121</ele>
        <time>2017-08-08T15:16:26Z</time>
      </trkpt>
      <trkpt lat="49.42551" lon="1.23286">
        <ele>121</ele>
        <time>2017-08-08T15:16:26Z</time>
      </trkpt>
      <trkpt lat="49.42549" lon="1.23281">
        <ele>121</ele>
        <time>2017-08-08T15:16:26Z</time>
      </trkpt>
      <trkpt lat="49.42546" lon="1.23274">
        <ele>121</ele>
        <time>2017-08-08T15:16:42Z</time>
      </trkpt>
      <trkpt lat="49.42544" lon="1.23269">
        <ele>121</ele>
        <time>2017-08-08T15:16:42Z</time>
      </trkpt>
      <trkpt lat="49.42541" lon="1.23262">
        <ele>112</ele>
        <time>2017-08-08T15:16:42Z</time>
      </trkpt>
      <trkpt lat="49.42539" lon="1.23258">
        <ele>112</ele>
        <time>2017-08-08T15:16:42Z</time>
      </trkpt>
      <trkpt lat="49.42537" lon="1.23251">
        <ele>112</ele>
        <time>2017-08-08T15:16:58Z</time>
      </trkpt>
      <trkpt lat="49.42534" lon="1.23245">
        <ele>112</ele>
        <time>2017-08-08T15:16:58Z</time>
      </trkpt>
      <trkpt lat="49.42532" lon="1.23239">
        <ele>112</ele>
        <time>2017-08-08T15:16:58Z</time>
      </trkpt>
      <trkpt lat="49.42531" lon="1.23235">
        <ele>112</ele>
        <time>2017-08-08T15:16:58Z</time>
      </trkpt>
      <trkpt lat="49.42529" lon="1.23229">
        <ele>112</ele>
        <time>2017-08-08T15:17:14Z</time>
      </trkpt>
      <trkpt lat="49.42526" lon="1.23221">
        <ele>112</ele>
        <time>2017-08-08T15:17:14Z</time>
      </trkpt>
      <trkpt lat="49.42524" lon="1.23215">
        <ele>112</ele>
        <time>2017-08-08T15:17:14Z</time>
      </trkpt>
      <trkpt lat="49.42521" lon="1.2321">
        <ele>112</ele>
        <time>2017-08-08T15:17:14Z</time>
      </trkpt>
      <trkpt lat="49.42521" lon="1.23206">
        <ele>125</ele>
        <time>2017-08-08T15:17:37Z</time>
      </trkpt>
      <trkpt lat="49.42522" lon="1.23206">
        <ele>125</ele>
        <time>2017-08-08T15:17:37Z</time>
      </trkpt>
      <trkpt lat="49.42522" lon="1.23205">
        <ele>125</ele>
        <time>2017-08-08T15:17:37Z</time>
      </trkpt>
      <trkpt lat="49.42523" lon="1.23198">
        <ele>125</ele>
        <time>2017-08-08T15:17:37Z</time>
      </trkpt>
      <trkpt lat="49.42524" lon="1.23192">
        <ele>125</ele>
        <time>2017-08-08T15:17:37Z</time>
      </trkpt>
      <trkpt lat="49.42524" lon="1.23185">
        <ele>125</ele>
        <time>2017-08-08T15:17:53Z</time>
      </trkpt>
      <trkpt lat="49.42522" lon="1.23178">
        <ele>125</ele>
        <time>2017-08-08T15:17:53Z</time>
      </trkpt>
      <trkpt lat="49.4252" lon="1.23172">
        <ele>125</ele>
        <time>2017-08-08T15:17:53Z</time>
      </trkpt>
      <trkpt lat="49.42517" lon="1.23167">
        <ele>125</ele>
        <time>2017-08-08T15:17:53Z</time>
      </trkpt>
      <trkpt lat="49.42515" lon="1.23161">
        <ele>125</ele>
        <time>2017-08-08T15:18:09Z</time>
      </trkpt>
      <trkpt lat="49.42513" lon="1.23155">
        <ele>125</ele>
        <time>2017-08-08T15:18:09Z</time>
      </trkpt>
      <trkpt lat="49.42511" lon="1.23149">
        <ele>125</ele>
        <time>2017-08-08T15:18:09Z</time>
      </trkpt>
      <trkpt lat="49.42509" lon="1.23143">
        <ele>125</ele>
        <time>2017-08-08T15:18:09Z</time>
      </trkpt>
      <trkpt lat="49.42506" lon="1.23138">
        <ele>125</ele>
        <time>2017-08-08T15:18:25Z</time>
      </trkpt>
      <trkpt lat="49.42504" lon="1.23132">
        <ele>125</ele>
        <time>2017-08-08T15:18:25Z</time>
      </trkpt>
      <trkpt lat="49.42501" lon="1.23127">
        <ele>125</ele>
        <time>2017-08-08T15:18:25Z</time>
      </trkpt>
      <trkpt lat="49.42499" lon="1.23121">
        <ele>135</ele>
        <time>2017-08-08T15:18:25Z</time>
      </trkpt>
      <trkpt lat="49.42496" lon="1.23116">
        <ele>135</ele>
        <time>2017-08-08T15:18:41Z</time>
      </trkpt>
      <trkpt lat="49.42494" lon="1.2311">
        <ele>135</ele>
        <time>2017-08-08T15:18:41Z</time>
      </trkpt>
      <trkpt lat="49.42491" lon="1.23105">
        <ele>135</ele>
        <time>2017-08-08T15:18:41Z</time>
      </trkpt>
      <trkpt lat="49.42488" lon="1.231">
        <ele>135</ele>
        <time>2017-08-08T15:18:41Z</time>
      </trkpt>
      <trkpt lat="49.42484" lon="1.23096">
        <ele>135</ele>
        <time>2017-08-08T15:18:58Z</time>
      </trkpt>
      <trkpt lat="49.4248" lon="1.2309">
        <ele>135</ele>
        <time>2017-08-08T15:18:58Z</time>
      </trkpt>
      <trkpt lat="49.42478" lon="1.23087">
        <ele>135</ele>
        <time>2017-08-08T15:18:58Z</time>
      </trkpt>
      <trkpt lat="49.42474" lon="1.23083">
        <ele>135</ele>
        <time>2017-08-08T15:18:58Z</time>
      </trkpt>
      <trkpt lat="49.4247" lon="1.23077">
        <ele>135</ele>
        <time>2017-08-08T15:19:15Z</time>
      </trkpt>
      <trkpt lat="49.42468" lon="1.23074">
        <ele>135</ele>
        <time>2017-08-08T15:19:15Z</time>
      </trkpt>
      <trkpt lat="49.42465" lon="1.23069">
        <ele>135</ele>
        <time>2017-08-08T15:19:15Z</time>
      </trkpt>
      <trkpt lat="49.42463" lon="1.23067">
        <ele>135</ele>
        <time>2017-08-08T15:19:15Z</time>
      </trkpt>
      <trkpt lat="49.42462" lon="1.23063">
        <ele>135</ele>
        <time>2017-08-08T15:20:41Z</time>
      </trkpt>
      <trkpt lat="49.4248" lon="1.23068">
        <ele>135</ele>
        <time>2017-08-08T15:20:41Z</time>
      </trkpt>
      <trkpt lat="49.42478" lon="1.23082">
        <ele>135</ele>
        <time>2017-08-08T15:20:41Z</time>
      </trkpt>
      <trkpt lat="49.42477" lon="1.23083">
        <ele>135</ele>
        <time>2017-08-08T15:20:41Z</time>
      </trkpt>
      <trkpt lat="49.42478" lon="1.23083">
        <ele>135</ele>
        <time>2017-08-08T15:20:41Z</time>
      </trkpt>
      <trkpt lat="49.42457" lon="1.23094">
        <ele>133</ele>
        <time>2017-08-08T15:23:35Z</time>
      </trkpt>
      <trkpt lat="49.42446" lon="1.23079">
        <ele>133</ele>
        <time>2017-08-08T15:23:35Z</time>
      </trkpt>
      <trkpt lat="49.42441" lon="1.23076">
        <ele>133</ele>
        <time>2017-08-08T15:23:35Z</time>
      </trkpt>
      <trkpt lat="49.42437" lon="1.23072">
        <ele>133</ele>
        <time>2017-08-08T15:23:35Z</time>
      </trkpt>
      <trkpt lat="49.42437" lon="1.2307">
        <ele>133</ele>
        <time>2017-08-08T15:23:35Z</time>
      </trkpt>
      <trkpt lat="49.42437" lon="1.23068">
        <ele>133</ele>
        <time>2017-08-08T15:26:14Z</time>
      </trkpt>
      <trkpt lat="49.42323" lon="1.2288">
        <ele>151</ele>
        <time>2017-08-08T15:26:14Z</time>
      </trkpt>
      <trkpt lat="49.42321" lon="1.22875">
        <ele>151</ele>
        <time>2017-08-08T15:26:14Z</time>
      </trkpt>
      <trkpt lat="49.42317" lon="1.22869">
        <ele>150</ele>
        <time>2017-08-08T15:26:14Z</time>
      </trkpt>
      <trkpt lat="49.42313" lon="1.22863">
        <ele>150</ele>
        <time>2017-08-08T15:26:30Z</time>
      </trkpt>
      <trkpt lat="49.42309" lon="1.22855">
        <ele>150</ele>
        <time>2017-08-08T15:26:30Z</time>
      </trkpt>
      <trkpt lat="49.42306" lon="1.22848">
        <ele>150</ele>
        <time>2017-08-08T15:26:30Z</time>
      </trkpt>
      <trkpt lat="49.42302" lon="1.2284">
        <ele>150</ele>
        <time>2017-08-08T15:26:30Z</time>
      </trkpt>
      <trkpt lat="49.42302" lon="1.22822">
        <ele>150</ele>
        <time>2017-08-08T15:28:03Z</time>
      </trkpt>
      <trkpt lat="49.42301" lon="1.22822">
        <ele>150</ele>
        <time>2017-08-08T15:28:03Z</time>
      </trkpt>
      <trkpt lat="49.42301" lon="1.2282">
        <ele>150</ele>
        <time>2017-08-08T15:28:03Z</time>
      </trkpt>
      <trkpt lat="49.42263" lon="1.22753">
        <ele>148</ele>
        <time>2017-08-08T15:28:03Z</time>
      </trkpt>
      <trkpt lat="49.42257" lon="1.2274">
        <ele>148</ele>
        <time>2017-08-08T15:28:03Z</time>
      </trkpt>
      <trkpt lat="49.42254" lon="1.22734">
        <ele>148</ele>
        <time>2017-08-08T15:28:17Z</time>
      </trkpt>
      <trkpt lat="49.4225" lon="1.22727">
        <ele>148</ele>
        <time>2017-08-08T15:28:17Z</time>
      </trkpt>
      <trkpt lat="49.42247" lon="1.22723">
        <ele>148</ele>
        <time>2017-08-08T15:28:17Z</time>
      </trkpt>
      <trkpt lat="49.42245" lon="1.22717">
        <ele>148</ele>
        <time>2017-08-08T15:28:17Z</time>
      </trkpt>
      <trkpt lat="49.42236" lon="1.227">
        <ele>150</ele>
        <time>2017-08-08T15:28:39Z</time>
      </trkpt>
      <trkpt lat="49.42233" lon="1.22695">
        <ele>150</ele>
        <time>2017-08-08T15:28:39Z</time>
      </trkpt>
      <trkpt lat="49.4223" lon="1.22689">
        <ele>150</ele>
        <time>2017-08-08T15:28:39Z</time>
      </trkpt>
      <trkpt lat="49.42227" lon="1.22684">
        <ele>150</ele>
        <time>2017-08-08T15:28:39Z</time>
      </trkpt>
      <trkpt lat="49.42224" lon="1.2268">
        <ele>150</ele>
        <time>2017-08-08T15:28:54Z</time>
      </trkpt>
      <trkpt lat="49.42221" lon="1.22676">
        <ele>150</ele>
        <time>2017-08-08T15:28:54Z</time>
      </trkpt>
      <trkpt lat="49.42217" lon="1.22669">
        <ele>150</ele>
        <time>2017-08-08T15:28:54Z</time>
      </trkpt>
      <trkpt lat="49.42215" lon="1.22665">
        <ele>150</ele>
        <time>2017-08-08T15:28:54Z</time>
      </trkpt>
      <trkpt lat="49.42211" lon="1.22659">
        <ele>150</ele>
        <time>2017-08-08T15:29:11Z</time>
      </trkpt>
      <trkpt lat="49.42209" lon="1.22655">
        <ele>150</ele>
        <time>2017-08-08T15:29:11Z</time>
      </trkpt>
      <trkpt lat="49.42205" lon="1.22649">
        <ele>145</ele>
        <time>2017-08-08T15:29:11Z</time>
      </trkpt>
      <trkpt lat="49.42202" lon="1.22643">
        <ele>145</ele>
        <time>2017-08-08T15:29:11Z</time>
      </trkpt>
      <trkpt lat="49.422" lon="1.22639">
        <ele>145</ele>
        <time>2017-08-08T15:29:25Z</time>
      </trkpt>
      <trkpt lat="49.42196" lon="1.22633">
        <ele>145</ele>
        <time>2017-08-08T15:29:25Z</time>
      </trkpt>
      <trkpt lat="49.42193" lon="1.22627">
        <ele>145</ele>
        <time>2017-08-08T15:29:25Z</time>
      </trkpt>
      <trkpt lat="49.42191" lon="1.22623">
        <ele>148</ele>
        <time>2017-08-08T15:29:25Z</time>
      </trkpt>
      <trkpt lat="49.4219" lon="1.22619">
        <ele>148</ele>
        <time>2017-08-08T15:29:53Z</time>
      </trkpt>
      <trkpt lat="49.4219" lon="1.22619">
        <ele>148</ele>
        <time>2017-08-08T15:29:53Z</time>
      </trkpt>
      <trkpt lat="49.4219" lon="1.22619">
        <ele>148</ele>
        <time>2017-08-08T15:29:53Z</time>
      </trkpt>
      <trkpt lat="49.4219" lon="1.22619">
        <ele>148</ele>
        <time>2017-08-08T15:29:53Z</time>
      </trkpt>
      <trkpt lat="49.42188" lon="1.22604">
        <ele>148</ele>
        <time>2017-08-08T15:29:53Z</time>
      </trkpt>
      <trkpt lat="49.4219" lon="1.22603">
        <ele>148</ele>
        <time>2017-08-08T15:32:49Z</time>
      </trkpt>
      <trkpt lat="49.42151" lon="1.22498">
        <ele>150</ele>
        <time>2017-08-08T15:32:49Z</time>
      </trkpt>
      <trkpt lat="49.42147" lon="1.2249">
        <ele>150</ele>
        <time>2017-08-08T15:32:49Z</time>
      </trkpt>
      <trkpt lat="49.42142" lon="1.2248">
        <ele>150</ele>
        <time>2017-08-08T15:32:49Z</time>
      </trkpt>
      <trkpt lat="49.4214" lon="1.22472">
        <ele>150</ele>
        <time>2017-08-08T15:32:49Z</time>
      </trkpt>
      <trkpt lat="49.42137" lon="1.22465">
        <ele>150</ele>
        <time>2017-08-08T15:33:05Z</time>
      </trkpt>
      <trkpt lat="49.42135" lon="1.2246">
        <ele>150</ele>
        <time>2017-08-08T15:33:05Z</time>
      </trkpt>
      <trkpt lat="49.42132" lon="1.22453">
        <ele>148</ele>
        <time>2017-08-08T15:33:05Z</time>
      </trkpt>
      <trkpt lat="49.42129" lon="1.22442">
        <ele>148</ele>
        <time>2017-08-08T15:33:05Z</time>
      </trkpt>
      <trkpt lat="49.42125" lon="1.22431">
        <ele>148</ele>
        <time>2017-08-08T15:33:21Z</time>
      </trkpt>
      <trkpt lat="49.42123" lon="1.22423">
        <ele>148</ele>
        <time>2017-08-08T15:33:21Z</time>
      </trkpt>
      <trkpt lat="49.42121" lon="1.22416">
        <ele>148</ele>
        <time>2017-08-08T15:33:21Z</time>
      </trkpt>
      <trkpt lat="49.42109" lon="1.22399">
        <ele>148</ele>
        <time>2017-08-08T15:33:21Z</time>
      </trkpt>
      <trkpt lat="49.42102" lon="1.22384">
        <ele>148</ele>
        <time>2017-08-08T15:33:37Z</time>
      </trkpt>
      <trkpt lat="49.421" lon="1.22375">
        <ele>148</ele>
        <time>2017-08-08T15:33:37Z</time>
      </trkpt>
      <trkpt lat="49.42098" lon="1.22369">
        <ele>145</ele>
        <time>2017-08-08T15:33:37Z</time>
      </trkpt>
      <trkpt lat="49.42096" lon="1.22362">
        <ele>145</ele>
        <time>2017-08-08T15:33:37Z</time>
      </trkpt>
      <trkpt lat="49.42094" lon="1.22355">
        <ele>145</ele>
        <time>2017-08-08T15:33:53Z</time>
      </trkpt>
      <trkpt lat="49.42093" lon="1.22349">
        <ele>145</ele>
        <time>2017-08-08T15:33:53Z</time>
      </trkpt>
      <trkpt lat="49.42092" lon="1.22342">
        <ele>145</ele>
        <time>2017-08-08T15:33:53Z</time>
      </trkpt>
      <trkpt lat="49.4209" lon="1.22332">
        <ele>145</ele>
        <time>2017-08-08T15:33:53Z</time>
      </trkpt>
      <trkpt lat="49.42089" lon="1.22324">
        <ele>145</ele>
        <time>2017-08-08T15:34:09Z</time>
      </trkpt>
      <trkpt lat="49.42086" lon="1.22313">
        <ele>145</ele>
        <time>2017-08-08T15:34:09Z</time>
      </trkpt>
      <trkpt lat="49.42085" lon="1.22306">
        <ele>145</ele>
        <time>2017-08-08T15:34:09Z</time>
      </trkpt>
      <trkpt lat="49.42085" lon="1.223">
        <ele>145</ele>
        <time>2017-08-08T15:34:09Z</time>
      </trkpt>
      <trkpt lat="49.42085" lon="1.22295">
        <ele>145</ele>
        <time>2017-08-08T15:34:25Z</time>
      </trkpt>
      <trkpt lat="49.42083" lon="1.22287">
        <ele>146</ele>
        <time>2017-08-08T15:34:25Z</time>
      </trkpt>
      <trkpt lat="49.42081" lon="1.22278">
        <ele>146</ele>
        <time>2017-08-08T15:34:25Z</time>
      </trkpt>
      <trkpt lat="49.4208" lon="1.22269">
        <ele>146</ele>
        <time>2017-08-08T15:34:25Z</time>
      </trkpt>
      <trkpt lat="49.4208" lon="1.22262">
        <ele>146</ele>
        <time>2017-08-08T15:34:41Z</time>
      </trkpt>
      <trkpt lat="49.42081" lon="1.22256">
        <ele>146</ele>
        <time>2017-08-08T15:34:41Z</time>
      </trkpt>
      <trkpt lat="49.42081" lon="1.22249">
        <ele>146</ele>
        <time>2017-08-08T15:34:41Z</time>
      </trkpt>
      <trkpt lat="49.42078" lon="1.22246">
        <ele>146</ele>
        <time>2017-08-08T15:34:41Z</time>
      </trkpt>
      <trkpt lat="49.4208" lon="1.22263">
        <ele>146</ele>
        <time>2017-08-08T15:37:53Z</time>
      </trkpt>
      <trkpt lat="49.4208" lon="1.22263">
        <ele>146</ele>
        <time>2017-08-08T15:37:53Z</time>
      </trkpt>
      <trkpt lat="49.42081" lon="1.22263">
        <ele>146</ele>
        <time>2017-08-08T15:37:53Z</time>
      </trkpt>
      <trkpt lat="49.42082" lon="1.22265">
        <ele>146</ele>
        <time>2017-08-08T15:37:53Z</time>
      </trkpt>
      <trkpt lat="49.42082" lon="1.22265">
        <ele>146</ele>
        <time>2017-08-08T15:37:53Z</time>
      </trkpt>
      <trkpt lat="49.42083" lon="1.22266">
        <ele>146</ele>
        <time>2017-08-08T15:39:03Z</time>
      </trkpt>
      <trkpt lat="49.42081" lon="1.22265">
        <ele>146</ele>
        <time>2017-08-08T15:39:03Z</time>
      </trkpt>
      <trkpt lat="49.42082" lon="1.22257">
        <ele>146</ele>
        <time>2017-08-08T15:39:03Z</time>
      </trkpt>
      <trkpt lat="49.42092" lon="1.22245">
        <ele>146</ele>
        <time>2017-08-08T15:39:03Z</time>
      </trkpt>
      <trkpt lat="49.42097" lon="1.22231">
        <ele>146</ele>
        <time>2017-08-08T15:39:03Z</time>
      </trkpt>
      <trkpt lat="49.42092" lon="1.22223">
        <ele>146</ele>
        <time>2017-08-08T15:39:17Z</time>
      </trkpt>
      <trkpt lat="49.42089" lon="1.22219">
        <ele>146</ele>
        <time>2017-08-08T15:39:17Z</time>
      </trkpt>
      <trkpt lat="49.42087" lon="1.22217">
        <ele>146</ele>
        <time>2017-08-08T15:39:17Z</time>
      </trkpt>
      <trkpt lat="49.42085" lon="1.22212">
        <ele>146</ele>
        <time>2017-08-08T15:39:17Z</time>
      </trkpt>
      <trkpt lat="49.42082" lon="1.22206">
        <ele>151</ele>
        <time>2017-08-08T15:39:35Z</time>
      </trkpt>
      <trkpt lat="49.4208" lon="1.22197">
        <ele>151</ele>
        <time>2017-08-08T15:39:35Z</time>
      </trkpt>
      <trkpt lat="49.42081" lon="1.2219">
        <ele>151</ele>
        <time>2017-08-08T15:39:35Z</time>
      </trkpt>
      <trkpt lat="49.42079" lon="1.22184">
        <ele>151</ele>
        <time>2017-08-08T15:39:35Z</time>
      </trkpt>
      <trkpt lat="49.42079" lon="1.22178">
        <ele>151</ele>
        <time>2017-08-08T15:39:50Z</time>
      </trkpt>
      <trkpt lat="49.42078" lon="1.2217">
        <ele>151</ele>
        <time>2017-08-08T15:39:50Z</time>
      </trkpt>
      <trkpt lat="49.42076" lon="1.22164">
        <ele>151</ele>
        <time>2017-08-08T15:39:50Z</time>
      </trkpt>
      <trkpt lat="49.42076" lon="1.22159">
        <ele>151</ele>
        <time>2017-08-08T15:39:50Z</time>
      </trkpt>
      <trkpt lat="49.42076" lon="1.2216">
        <ele>151</ele>
        <time>2017-08-08T15:41:13Z</time>
      </trkpt>
      <trkpt lat="49.42076" lon="1.2216">
        <ele>151</ele>
        <time>2017-08-08T15:41:13Z</time>
      </trkpt>
      <trkpt lat="49.42076" lon="1.2216">
        <ele>151</ele>
        <time>2017-08-08T15:41:13Z</time>
      </trkpt>
      <trkpt lat="49.42076" lon="1.2216">
        <ele>151</ele>
        <time>2017-08-08T15:41:13Z</time>
      </trkpt>
      <trkpt lat="49.42086" lon="1.22137">
        <ele>151</ele>
        <time>2017-08-08T15:41:13Z</time>
      </trkpt>
      <trkpt lat="49.42149" lon="1.2197">
        <ele>142</ele>
        <time>2017-08-08T15:44:01Z</time>
      </trkpt>
      <trkpt lat="49.42149" lon="1.21969">
        <ele>142</ele>
        <time>2017-08-08T15:44:01Z</time>
      </trkpt>
      <trkpt lat="49.42157" lon="1.21973">
        <ele>142</ele>
        <time>2017-08-08T15:44:01Z</time>
      </trkpt>
      <trkpt lat="49.42162" lon="1.21975">
        <ele>142</ele>
        <time>2017-08-08T15:44:01Z</time>
      </trkpt>
      <trkpt lat="49.42165" lon="1.21974">
        <ele>142</ele>
        <time>2017-08-08T15:44:01Z</time>
      </trkpt>
      <trkpt lat="49.42166" lon="1.21974">
        <ele>142</ele>
        <time>2017-08-08T15:44:22Z</time>
      </trkpt>
      <trkpt lat="49.42166" lon="1.21974">
        <ele>142</ele>
        <time>2017-08-08T15:44:22Z</time>
      </trkpt>
      <trkpt lat="49.42169" lon="1.21976">
        <ele>142</ele>
        <time>2017-08-08T15:44:22Z</time>
      </trkpt>
      <trkpt lat="49.42174" lon="1.21978">
        <ele>142</ele>
        <time>2017-08-08T15:44:22Z</time>
      </trkpt>
      <trkpt lat="49.4218" lon="1.21979">
        <ele>142</ele>
        <time>2017-08-08T15:44:22Z</time>
      </trkpt>
      <trkpt lat="49.42183" lon="1.21979">
        <ele>142</ele>
        <time>2017-08-08T15:44:38Z</time>
      </trkpt>
      <trkpt lat="49.42189" lon="1.21976">
        <ele>142</ele>
        <time>2017-08-08T15:44:38Z</time>
      </trkpt>
      <trkpt lat="49.42192" lon="1.21973">
        <ele>142</ele>
        <time>2017-08-08T15:44:38Z</time>
      </trkpt>
      <trkpt lat="49.42198" lon="1.21971">
        <ele>142</ele>
        <time>2017-08-08T15:44:38Z</time>
      </trkpt>
      <trkpt lat="49.42203" lon="1.2197">
        <ele>142</ele>
        <time>2017-08-08T15:44:53Z</time>
      </trkpt>
      <trkpt lat="49.42207" lon="1.21969">
        <ele>142</ele>
        <time>2017-08-08T15:44:53Z</time>
      </trkpt>
      <trkpt lat="49.42211" lon="1.21966">
        <ele>140</ele>
        <time>2017-08-08T15:44:53Z</time>
      </trkpt>
      <trkpt lat="49.42214" lon="1.21965">
        <ele>140</ele>
        <time>2017-08-08T15:44:53Z</time>
      </trkpt>
      <trkpt lat="49.4222" lon="1.21963">
        <ele>140</ele>
        <time>2017-08-08T15:45:09Z</time>
      </trkpt>
      <trkpt lat="49.42224" lon="1.21961">
        <ele>140</ele>
        <time>2017-08-08T15:45:09Z</time>
      </trkpt>
      <trkpt lat="49.42227" lon="1.2196">
        <ele>140</ele>
        <time>2017-08-08T15:45:09Z</time>
      </trkpt>
      <trkpt lat="49.42231" lon="1.21958">
        <ele>146</ele>
        <time>2017-08-08T15:45:09Z</time>
      </trkpt>
      <trkpt lat="49.42263" lon="1.21943">
        <ele>146</ele>
        <time>2017-08-08T15:46:15Z</time>
      </trkpt>
      <trkpt lat="49.42268" lon="1.21942">
        <ele>146</ele>
        <time>2017-08-08T15:46:15Z</time>
      </trkpt>
      <trkpt lat="49.4227" lon="1.21939">
        <ele>146</ele>
        <time>2017-08-08T15:46:15Z</time>
      </trkpt>
      <trkpt lat="49.42286" lon="1.21929">
        <ele>146</ele>
        <time>2017-08-08T15:46:15Z</time>
      </trkpt>
      <trkpt lat="49.42304" lon="1.21928">
        <ele>144</ele>
        <time>2017-08-08T15:46:15Z</time>
      </trkpt>
      <trkpt lat="49.42308" lon="1.21925">
        <ele>144</ele>
        <time>2017-08-08T15:46:30Z</time>
      </trkpt>
      <trkpt lat="49.42314" lon="1.21923">
        <ele>144</ele>
        <time>2017-08-08T15:46:30Z</time>
      </trkpt>
      <trkpt lat="49.4232" lon="1.21919">
        <ele>144</ele>
        <time>2017-08-08T15:46:30Z</time>
      </trkpt>
      <trkpt lat="49.42329" lon="1.21912">
        <ele>144</ele>
        <time>2017-08-08T15:46:30Z</time>
      </trkpt>
      <trkpt lat="49.42335" lon="1.21907">
        <ele>144</ele>
        <time>2017-08-08T15:46:46Z</time>
      </trkpt>
      <trkpt lat="49.4234" lon="1.21903">
        <ele>144</ele>
        <time>2017-08-08T15:46:46Z</time>
      </trkpt>
      <trkpt lat="49.42346" lon="1.21897">
        <ele>144</ele>
        <time>2017-08-08T15:46:46Z</time>
      </trkpt>
      <trkpt lat="49.4235" lon="1.21894">
        <ele>144</ele>
        <time>2017-08-08T15:46:46Z</time>
      </trkpt>
      <trkpt lat="49.42354" lon="1.2189">
        <ele>144</ele>
        <time>2017-08-08T15:47:03Z</time>
      </trkpt>
      <trkpt lat="49.42359" lon="1.21887">
        <ele>144</ele>
        <time>2017-08-08T15:47:03Z</time>
      </trkpt>
      <trkpt lat="49.42363" lon="1.21883">
        <ele>144</ele>
        <time>2017-08-08T15:47:03Z</time>
      </trkpt>
      <trkpt lat="49.42368" lon="1.21879">
        <ele>144</ele>
        <time>2017-08-08T15:47:03Z</time>
      </trkpt>
      <trkpt lat="49.42369" lon="1.21875">
        <ele>146</ele>
        <time>2017-08-08T15:47:18Z</time>
      </trkpt>
      <trkpt lat="49.42376" lon="1.21871">
        <ele>147</ele>
        <time>2017-08-08T15:47:18Z</time>
      </trkpt>
      <trkpt lat="49.42385" lon="1.21867">
        <ele>147</ele>
        <time>2017-08-08T15:47:18Z</time>
      </trkpt>
      <trkpt lat="49.42392" lon="1.21864">
        <ele>147</ele>
        <time>2017-08-08T15:47:18Z</time>
      </trkpt>
      <trkpt lat="49.42398" lon="1.2186">
        <ele>147</ele>
        <time>2017-08-08T15:47:33Z</time>
      </trkpt>
      <trkpt lat="49.42401" lon="1.21854">
        <ele>147</ele>
        <time>2017-08-08T15:47:33Z</time>
      </trkpt>
      <trkpt lat="49.42405" lon="1.2185">
        <ele>147</ele>
        <time>2017-08-08T15:47:33Z</time>
      </trkpt>
      <trkpt lat="49.4241" lon="1.21848">
        <ele>147</ele>
        <time>2017-08-08T15:47:33Z</time>
      </trkpt>
      <trkpt lat="49.42411" lon="1.21846">
        <ele>147</ele>
        <time>2017-08-08T15:47:51Z</time>
      </trkpt>
      <trkpt lat="49.42416" lon="1.21839">
        <ele>147</ele>
        <time>2017-08-08T15:47:51Z</time>
      </trkpt>
      <trkpt lat="49.42422" lon="1.21832">
        <ele>147</ele>
        <time>2017-08-08T15:47:51Z</time>
      </trkpt>
      <trkpt lat="49.42429" lon="1.21826">
        <ele>147</ele>
        <time>2017-08-08T15:47:51Z</time>
      </trkpt>
      <trkpt lat="49.42431" lon="1.21825">
        <ele>147</ele>
        <time>2017-08-08T15:48:06Z</time>
      </trkpt>
      <trkpt lat="49.42435" lon="1.21819">
        <ele>147</ele>
        <time>2017-08-08T15:48:06Z</time>
      </trkpt>
      <trkpt lat="49.42439" lon="1.21819">
        <ele>147</ele>
        <time>2017-08-08T15:48:06Z</time>
      </trkpt>
      <trkpt lat="49.42445" lon="1.21818">
        <ele>147</ele>
        <time>2017-08-08T15:48:06Z</time>
      </trkpt>
      <trkpt lat="49.42451" lon="1.21812">
        <ele>147</ele>
        <time>2017-08-08T15:48:22Z</time>
      </trkpt>
      <trkpt lat="49.42454" lon="1.21807">
        <ele>147</ele>
        <time>2017-08-08T15:48:22Z</time>
      </trkpt>
      <trkpt lat="49.4246" lon="1.21805">
        <ele>150</ele>
        <time>2017-08-08T15:48:22Z</time>
      </trkpt>
      <trkpt lat="49.42463" lon="1.21805">
        <ele>150</ele>
        <time>2017-08-08T15:48:22Z</time>
      </trkpt>
      <trkpt lat="49.42459" lon="1.21811">
        <ele>150</ele>
        <time>2017-08-08T15:48:45Z</time>
      </trkpt>
      <trkpt lat="49.42461" lon="1.21806">
        <ele>150</ele>
        <time>2017-08-08T15:48:45Z</time>
      </trkpt>
      <trkpt lat="49.42461" lon="1.21806">
        <ele>150</ele>
        <time>2017-08-08T15:48:45Z</time>
      </trkpt>
      <trkpt lat="49.42462" lon="1.21801">
        <ele>150</ele>
        <time>2017-08-08T15:48:45Z</time>
      </trkpt>
      <trkpt lat="49.42463" lon="1.21798">
        <ele>150</ele>
        <time>2017-08-08T15:48:45Z</time>
      </trkpt>
      <trkpt lat="49.42463" lon="1.21796">
        <ele>150</ele>
        <time>2017-08-08T15:49:06Z</time>
      </trkpt>
      <trkpt lat="49.42463" lon="1.21794">
        <ele>150</ele>
        <time>2017-08-08T15:49:06Z</time>
      </trkpt>
      <trkpt lat="49.42466" lon="1.21791">
        <ele>152</ele>
        <time>2017-08-08T15:49:06Z</time>
      </trkpt>
      <trkpt lat="49.4247" lon="1.21787">
        <ele>152</ele>
        <time>2017-08-08T15:49:06Z</time>
      </trkpt>
      <trkpt lat="49.42468" lon="1.2178">
        <ele>152</ele>
        <time>2017-08-08T15:49:06Z</time>
      </trkpt>
      <trkpt lat="49.42473" lon="1.21774">
        <ele>152</ele>
        <time>2017-08-08T15:49:22Z</time>
      </trkpt>
      <trkpt lat="49.42479" lon="1.21773">
        <ele>152</ele>
        <time>2017-08-08T15:49:22Z</time>
      </trkpt>
      <trkpt lat="49.42484" lon="1.21767">
        <ele>152</ele>
        <time>2017-08-08T15:49:22Z</time>
      </trkpt>
      <trkpt lat="49.42489" lon="1.21764">
        <ele>152</ele>
        <time>2017-08-08T15:49:22Z</time>
      </trkpt>
      <trkpt lat="49.42494" lon="1.21762">
        <ele>152</ele>
        <time>2017-08-08T15:49:37Z</time>
      </trkpt>
      <trkpt lat="49.42499" lon="1.21761">
        <ele>152</ele>
        <time>2017-08-08T15:49:37Z</time>
      </trkpt>
      <trkpt lat="49.42504" lon="1.2176">
        <ele>152</ele>
        <time>2017-08-08T15:49:37Z</time>
      </trkpt>
      <trkpt lat="49.42508" lon="1.21758">
        <ele>152</ele>
        <time>2017-08-08T15:49:37Z</time>
      </trkpt>
      <trkpt lat="49.42513" lon="1.21757">
        <ele>152</ele>
        <time>2017-08-08T15:49:54Z</time>
      </trkpt>
      <trkpt lat="49.42518" lon="1.21755">
        <ele>152</ele>
        <time>2017-08-08T15:49:54Z</time>
      </trkpt>
      <trkpt lat="49.42524" lon="1.21755">
        <ele>152</ele>
        <time>2017-08-08T15:49:54Z</time>
      </trkpt>
      <trkpt lat="49.42529" lon="1.21755">
        <ele>152</ele>
        <time>2017-08-08T15:49:54Z</time>
      </trkpt>
      <trkpt lat="49.42534" lon="1.21754">
        <ele>152</ele>
        <time>2017-08-08T15:50:10Z</time>
      </trkpt>
      <trkpt lat="49.42539" lon="1.21754">
        <ele>152</ele>
        <time>2017-08-08T15:50:10Z</time>
      </trkpt>
      <trkpt lat="49.42544" lon="1.21754">
        <ele>153</ele>
        <time>2017-08-08T15:50:10Z</time>
      </trkpt>
      <trkpt lat="49.42548" lon="1.21752">
        <ele>153</ele>
        <time>2017-08-08T15:50:10Z</time>
      </trkpt>
      <trkpt lat="49.4267" lon="1.21781">
        <ele>159</ele>
        <time>2017-08-08T15:52:02Z</time>
      </trkpt>
      <trkpt lat="49.4267" lon="1.21781">
        <ele>159</ele>
        <time>2017-08-08T15:52:02Z</time>
      </trkpt>
      <trkpt lat="49.42696" lon="1.21753">
        <ele>159</ele>
        <time>2017-08-08T15:52:02Z</time>
      </trkpt>
      <trkpt lat="49.42704" lon="1.21755">
        <ele>159</ele>
        <time>2017-08-08T15:52:02Z</time>
      </trkpt>
      <trkpt lat="49.42709" lon="1.21755">
        <ele>156</ele>
        <time>2017-08-08T15:52:02Z</time>
      </trkpt>
      <trkpt lat="49.42714" lon="1.21754">
        <ele>156</ele>
        <time>2017-08-08T15:52:19Z</time>
      </trkpt>
      <trkpt lat="49.42715" lon="1.21754">
        <ele>156</ele>
        <time>2017-08-08T15:52:19Z</time>
      </trkpt>
      <trkpt lat="49.42718" lon="1.21755">
        <ele>156</ele>
        <time>2017-08-08T15:52:19Z</time>
      </trkpt>
      <trkpt lat="49.42724" lon="1.21757">
        <ele>156</ele>
        <time>2017-08-08T15:52:19Z</time>
      </trkpt>
      <trkpt lat="49.42728" lon="1.21755">
        <ele>156</ele>
        <time>2017-08-08T15:52:33Z</time>
      </trkpt>
      <trkpt lat="49.42733" lon="1.21753">
        <ele>156</ele>
        <time>2017-08-08T15:52:33Z</time>
      </trkpt>
      <trkpt lat="49.42736" lon="1.21751">
        <ele>156</ele>
        <time>2017-08-08T15:52:33Z</time>
      </trkpt>
      <trkpt lat="49.4274" lon="1.21749">
        <ele>156</ele>
        <time>2017-08-08T15:52:33Z</time>
      </trkpt>
      <trkpt lat="49.42744" lon="1.21746">
        <ele>156</ele>
        <time>2017-08-08T15:52:50Z</time>
      </trkpt>
      <trkpt lat="49.42748" lon="1.21743">
        <ele>156</ele>
        <time>2017-08-08T15:52:50Z</time>
      </trkpt>
      <trkpt lat="49.42753" lon="1.21741">
        <ele>156</ele>
        <time>2017-08-08T15:52:50Z</time>
      </trkpt>
      <trkpt lat="49.42757" lon="1.21738">
        <ele>156</ele>
        <time>2017-08-08T15:52:50Z</time>
      </trkpt>
      <trkpt lat="49.42761" lon="1.21736">
        <ele>156</ele>
        <time>2017-08-08T15:53:05Z</time>
      </trkpt>
      <trkpt lat="49.42765" lon="1.21734">
        <ele>156</ele>
        <time>2017-08-08T15:53:05Z</time>
      </trkpt>
      <trkpt lat="49.4277" lon="1.21733">
        <ele>156</ele>
        <time>2017-08-08T15:53:05Z</time>
      </trkpt>
      <trkpt lat="49.42774" lon="1.21732">
        <ele>156</ele>
        <time>2017-08-08T15:53:05Z</time>
      </trkpt>
      <trkpt lat="49.42779" lon="1.21731">
        <ele>156</ele>
        <time>2017-08-08T15:53:22Z</time>
      </trkpt>
      <trkpt lat="49.42788" lon="1.2173">
        <ele>156</ele>
        <time>2017-08-08T15:53:22Z</time>
      </trkpt>
      <trkpt lat="49.42791" lon="1.21718">
        <ele>156</ele>
        <time>2017-08-08T15:53:22Z</time>
      </trkpt>
      <trkpt lat="49.42795" lon="1.21718">
        <ele>156</ele>
        <time>2017-08-08T15:53:22Z</time>
      </trkpt>
      <trkpt lat="49.42802" lon="1.2172">
        <ele>156</ele>
        <time>2017-08-08T15:53:38Z</time>
      </trkpt>
      <trkpt lat="49.42809" lon="1.21722">
        <ele>156</ele>
        <time>2017-08-08T15:53:38Z</time>
      </trkpt>
      <trkpt lat="49.42815" lon="1.21722">
        <ele>156</ele>
        <time>2017-08-08T15:53:38Z</time>
      </trkpt>
      <trkpt lat="49.4282" lon="1.21719">
        <ele>156</ele>
        <time>2017-08-08T15:53:38Z</time>
      </trkpt>
      <trkpt lat="49.42826" lon="1.21716">
        <ele>156</ele>
        <time>2017-08-08T15:53:54Z</time>
      </trkpt>
      <trkpt lat="49.4283" lon="1.21713">
        <ele>156</ele>
        <time>2017-08-08T15:53:54Z</time>
      </trkpt>
      <trkpt lat="49.42835" lon="1.2171">
        <ele>156</ele>
        <time>2017-08-08T15:53:54Z</time>
      </trkpt>
      <trkpt lat="49.42839" lon="1.21706">
        <ele>158</ele>
        <time>2017-08-08T15:53:54Z</time>
      </trkpt>
      <trkpt lat="49.42844" lon="1.21702">
        <ele>158</ele>
        <time>2017-08-08T15:54:10Z</time>
      </trkpt>
      <trkpt lat="49.42847" lon="1.21696">
        <ele>158</ele>
        <time>2017-08-08T15:54:10Z</time>
      </trkpt>
      <trkpt lat="49.42856" lon="1.21692">
        <ele>158</ele>
        <time>2017-08-08T15:54:10Z</time>
      </trkpt>
      <trkpt lat="49.42864" lon="1.21686">
        <ele>158</ele>
        <time>2017-08-08T15:54:10Z</time>
      </trkpt>
      <trkpt lat="49.42871" lon="1.21678">
        <ele>158</ele>
        <time>2017-08-08T15:54:26Z</time>
      </trkpt>
      <trkpt lat="49.42874" lon="1.21672">
        <ele>158</ele>
        <time>2017-08-08T15:54:26Z</time>
      </trkpt>
      <trkpt lat="49.42877" lon="1.21667">
        <ele>154</ele>
        <time>2017-08-08T15:54:26Z</time>
      </trkpt>
      <trkpt lat="49.42879" lon="1.21663">
        <ele>154</ele>
        <time>2017-08-08T15:54:26Z</time>
      </trkpt>
      <trkpt lat="49.42883" lon="1.21656">
        <ele>154</ele>
        <time>2017-08-08T15:54:41Z</time>
      </trkpt>
      <trkpt lat="49.42886" lon="1.21652">
        <ele>154</ele>
        <time>2017-08-08T15:54:41Z</time>
      </trkpt>
      <trkpt lat="49.42889" lon="1.21647">
        <ele>154</ele>
        <time>2017-08-08T15:54:41Z</time>
      </trkpt>
      <trkpt lat="49.42891" lon="1.21641">
        <ele>154</ele>
        <time>2017-08-08T15:54:41Z</time>
      </trkpt>
      <trkpt lat="49.4289" lon="1.21639">
        <ele>154</ele>
        <time>2017-08-08T15:56:06Z</time>
      </trkpt>
      <trkpt lat="49.42908" lon="1.2162">
        <ele>155</ele>
        <time>2017-08-08T15:56:06Z</time>
      </trkpt>
      <trkpt lat="49.42914" lon="1.21616">
        <ele>155</ele>
        <time>2017-08-08T15:56:06Z</time>
      </trkpt>
      <trkpt lat="49.42918" lon="1.21609">
        <ele>155</ele>
        <time>2017-08-08T15:56:06Z</time>
      </trkpt>
      <trkpt lat="49.42919" lon="1.21606">
        <ele>155</ele>
        <time>2017-08-08T15:56:06Z</time>
      </trkpt>
      <trkpt lat="49.42931" lon="1.21578">
        <ele>155</ele>
        <time>2017-08-08T15:56:23Z</time>
      </trkpt>
      <trkpt lat="49.42937" lon="1.21568">
        <ele>155</ele>
        <time>2017-08-08T15:56:23Z</time>
      </trkpt>
      <trkpt lat="49.42941" lon="1.21565">
        <ele>155</ele>
        <time>2017-08-08T15:56:23Z</time>
      </trkpt>
      <trkpt lat="49.42946" lon="1.21569">
        <ele>155</ele>
        <time>2017-08-08T15:56:23Z</time>
      </trkpt>
      <trkpt lat="49.42951" lon="1.21563">
        <ele>155</ele>
        <time>2017-08-08T15:56:39Z</time>
      </trkpt>
      <trkpt lat="49.42957" lon="1.21556">
        <ele>155</ele>
        <time>2017-08-08T15:56:39Z</time>
      </trkpt>
      <trkpt lat="49.42962" lon="1.21549">
        <ele>151</ele>
        <time>2017-08-08T15:56:39Z</time>
      </trkpt>
      <trkpt lat="49.42967" lon="1.21543">
        <ele>151</ele>
        <time>2017-08-08T15:56:39Z</time>
      </trkpt>
      <trkpt lat="49.42971" lon="1.21538">
        <ele>152</ele>
        <time>2017-08-08T15:56:54Z</time>
      </trkpt>
      <trkpt lat="49.42975" lon="1.21531">
        <ele>152</ele>
        <time>2017-08-08T15:56:55Z</time>
      </trkpt>
      <trkpt lat="49.42979" lon="1.21526">
        <ele>152</ele>
        <time>2017-08-08T15:56:55Z</time>
      </trkpt>
      <trkpt lat="49.42985" lon="1.21519">
        <ele>152</ele>
        <time>2017-08-08T15:56:55Z</time>
      </trkpt>
      <trkpt lat="49.42987" lon="1.21516">
        <ele>152</ele>
        <time>2017-08-08T15:57:11Z</time>
      </trkpt>
      <trkpt lat="49.4299" lon="1.21509">
        <ele>152</ele>
        <time>2017-08-08T15:57:11Z</time>
      </trkpt>
      <trkpt lat="49.42993" lon="1.21503">
        <ele>152</ele>
        <time>2017-08-08T15:57:11Z</time>
      </trkpt>
      <trkpt lat="49.42998" lon="1.21497">
        <ele>152</ele>
        <time>2017-08-08T15:57:11Z</time>
      </trkpt>
      <trkpt lat="49.43" lon="1.21493">
        <ele>152</ele>
        <time>2017-08-08T15:57:26Z</time>
      </trkpt>
      <trkpt lat="49.43005" lon="1.21487">
        <ele>152</ele>
        <time>2017-08-08T15:57:26Z</time>
      </trkpt>
      <trkpt lat="49.4301" lon="1.21482">
        <ele>152</ele>
        <time>2017-08-08T15:57:26Z</time>
      </trkpt>
      <trkpt lat="49.43013" lon="1.21476">
        <ele>152</ele>
        <time>2017-08-08T15:57:26Z</time>
      </trkpt>
      <trkpt lat="49.43018" lon="1.2147">
        <ele>152</ele>
        <time>2017-08-08T15:57:42Z</time>
      </trkpt>
      <trkpt lat="49.43021" lon="1.21466">
        <ele>152</ele>
        <time>2017-08-08T15:57:42Z</time>
      </trkpt>
      <trkpt lat="49.43024" lon="1.21461">
        <ele>152</ele>
        <time>2017-08-08T15:57:42Z</time>
      </trkpt>
      <trkpt lat="49.43028" lon="1.21458">
        <ele>153</ele>
        <time>2017-08-08T15:57:42Z</time>
      </trkpt>
      <trkpt lat="49.43035" lon="1.2145">
        <ele>153</ele>
        <time>2017-08-08T15:57:58Z</time>
      </trkpt>
      <trkpt lat="49.43039" lon="1.21444">
        <ele>153</ele>
        <time>2017-08-08T15:57:58Z</time>
      </trkpt>
      <trkpt lat="49.43043" lon="1.21437">
        <ele>153</ele>
        <time>2017-08-08T15:57:58Z</time>
      </trkpt>
      <trkpt lat="49.43046" lon="1.21432">
        <ele>153</ele>
        <time>2017-08-08T15:57:58Z</time>
      </trkpt>
      <trkpt lat="49.4305" lon="1.21424">
        <ele>153</ele>
        <time>2017-08-08T15:58:14Z</time>
      </trkpt>
      <trkpt lat="49.43053" lon="1.21418">
        <ele>153</ele>
        <time>2017-08-08T15:58:14Z</time>
      </trkpt>
      <trkpt lat="49.43057" lon="1.21413">
        <ele>153</ele>
        <time>2017-08-08T15:58:14Z</time>
      </trkpt>
      <trkpt lat="49.4306" lon="1.21408">
        <ele>153</ele>
        <time>2017-08-08T15:58:14Z</time>
      </trkpt>
      <trkpt lat="49.43063" lon="1.21402">
        <ele>153</ele>
        <time>2017-08-08T15:58:31Z</time>
      </trkpt>
      <trkpt lat="49.43068" lon="1.21395">
        <ele>153</ele>
        <time>2017-08-08T15:58:31Z</time>
      </trkpt>
      <trkpt lat="49.43071" lon="1.2139">
        <ele>153</ele>
        <time>2017-08-08T15:58:31Z</time>
      </trkpt>
      <trkpt lat="49.43075" lon="1.21385">
        <ele>153</ele>
        <time>2017-08-08T15:58:31Z</time>
      </trkpt>
      <trkpt lat="49.43079" lon="1.2138">
        <ele>153</ele>
        <time>2017-08-08T15:58:47Z</time>
      </trkpt>
      <trkpt lat="49.43083" lon="1.21378">
        <ele>153</ele>
        <time>2017-08-08T15:58:47Z</time>
      </trkpt>
      <trkpt lat="49.43088" lon="1.21371">
        <ele>152</ele>
        <time>2017-08-08T15:58:47Z</time>
      </trkpt>
      <trkpt lat="49.43092" lon="1.21365">
        <ele>152</ele>
        <time>2017-08-08T15:58:47Z</time>
      </trkpt>
      <trkpt lat="49.43097" lon="1.21357">
        <ele>152</ele>
        <time>2017-08-08T15:59:02Z</time>
      </trkpt>
      <trkpt lat="49.43101" lon="1.21352">
        <ele>152</ele>
        <time>2017-08-08T15:59:02Z</time>
      </trkpt>
      <trkpt lat="49.43106" lon="1.21345">
        <ele>152</ele>
        <time>2017-08-08T15:59:02Z</time>
      </trkpt>
      <trkpt lat="49.4311" lon="1.21338">
        <ele>152</ele>
        <time>2017-08-08T15:59:02Z</time>
      </trkpt>
      <trkpt lat="49.43112" lon="1.21334">
        <ele>152</ele>
        <time>2017-08-08T15:59:19Z</time>
      </trkpt>
      <trkpt lat="49.43116" lon="1.21327">
        <ele>152</ele>
        <time>2017-08-08T15:59:19Z</time>
      </trkpt>
      <trkpt lat="49.43119" lon="1.21324">
        <ele>152</ele>
        <time>2017-08-08T15:59:19Z</time>
      </trkpt>
      <trkpt lat="49.43124" lon="1.21316">
        <ele>152</ele>
        <time>2017-08-08T15:59:19Z</time>
      </trkpt>
      <trkpt lat="49.43128" lon="1.2131">
        <ele>153</ele>
        <time>2017-08-08T15:59:34Z</time>
      </trkpt>
      <trkpt lat="49.43132" lon="1.21302">
        <ele>153</ele>
        <time>2017-08-08T15:59:34Z</time>
      </trkpt>
      <trkpt lat="49.43136" lon="1.21295">
        <ele>153</ele>
        <time>2017-08-08T15:59:34Z</time>
      </trkpt>
      <trkpt lat="49.4314" lon="1.21289">
        <ele>154</ele>
        <time>2017-08-08T15:59:34Z</time>
      </trkpt>
      <trkpt lat="49.43143" lon="1.21285">
        <ele>154</ele>
        <time>2017-08-08T15:59:50Z</time>
      </trkpt>
      <trkpt lat="49.43146" lon="1.21282">
        <ele>154</ele>
        <time>2017-08-08T15:59:50Z</time>
      </trkpt>
      <trkpt lat="49.43151" lon="1.21279">
        <ele>154</ele>
        <time>2017-08-08T15:59:50Z</time>
      </trkpt>
      <trkpt lat="49.43155" lon="1.21276">
        <ele>154</ele>
        <time>2017-08-08T15:59:50Z</time>
      </trkpt>
      <trkpt lat="49.4316" lon="1.21271">
        <ele>154</ele>
        <time>2017-08-08T16:00:05Z</time>
      </trkpt>
      <trkpt lat="49.43164" lon="1.21267">
        <ele>154</ele>
        <time>2017-08-08T16:00:05Z</time>
      </trkpt>
      <trkpt lat="49.43168" lon="1.21264">
        <ele>154</ele>
        <time>2017-08-08T16:00:05Z</time>
      </trkpt>
      <trkpt lat="49.43171" lon="1.21261">
        <ele>154</ele>
        <time>2017-08-08T16:00:05Z</time>
      </trkpt>
      <trkpt lat="49.43173" lon="1.21257">
        <ele>154</ele>
        <time>2017-08-08T16:00:55Z</time>
      </trkpt>
      <trkpt lat="49.43178" lon="1.2125">
        <ele>154</ele>
        <time>2017-08-08T16:00:55Z</time>
      </trkpt>
      <trkpt lat="49.43182" lon="1.21242">
        <ele>154</ele>
        <time>2017-08-08T16:00:55Z</time>
      </trkpt>
      <trkpt lat="49.4316" lon="1.21232">
        <ele>154</ele>
        <time>2017-08-08T16:00:55Z</time>
      </trkpt>
      <trkpt lat="49.4317" lon="1.21214">
        <ele>154</ele>
        <time>2017-08-08T16:01:31Z</time>
      </trkpt>
      <trkpt lat="49.43156" lon="1.21197">
        <ele>151</ele>
        <time>2017-08-08T16:01:31Z</time>
      </trkpt>
      <trkpt lat="49.43142" lon="1.21207">
        <ele>151</ele>
        <time>2017-08-08T16:01:31Z</time>
      </trkpt>
      <trkpt lat="49.43141" lon="1.21207">
        <ele>151</ele>
        <time>2017-08-08T16:01:31Z</time>
      </trkpt>
      <trkpt lat="49.43137" lon="1.21204">
        <ele>151</ele>
        <time>2017-08-08T16:01:31Z</time>
      </trkpt>
      <trkpt lat="49.43134" lon="1.21201">
        <ele>151</ele>
        <time>2017-08-08T16:01:47Z</time>
      </trkpt>
      <trkpt lat="49.43127" lon="1.21199">
        <ele>151</ele>
        <time>2017-08-08T16:01:47Z</time>
      </trkpt>
      <trkpt lat="49.43122" lon="1.21197">
        <ele>153</ele>
        <time>2017-08-08T16:01:47Z</time>
      </trkpt>
      <trkpt lat="49.43116" lon="1.21197">
        <ele>153</ele>
        <time>2017-08-08T16:01:47Z</time>
      </trkpt>
      <trkpt lat="49.43112" lon="1.21195">
        <ele>153</ele>
        <time>2017-08-08T16:02:02Z</time>
      </trkpt>
      <trkpt lat="49.43109" lon="1.21199">
        <ele>153</ele>
        <time>2017-08-08T16:02:02Z</time>
      </trkpt>
      <trkpt lat="49.43109" lon="1.2119">
        <ele>153</ele>
        <time>2017-08-08T16:02:02Z</time>
      </trkpt>
      <trkpt lat="49.43106" lon="1.21184">
        <ele>153</ele>
        <time>2017-08-08T16:02:02Z</time>
      </trkpt>
      <trkpt lat="49.43106" lon="1.21184">
        <ele>153</ele>
        <time>2017-08-08T16:02:27Z</time>
      </trkpt>
      <trkpt lat="49.43105" lon="1.21183">
        <ele>153</ele>
        <time>2017-08-08T16:02:27Z</time>
      </trkpt>
      <trkpt lat="49.43101" lon="1.2118">
        <ele>153</ele>
        <time>2017-08-08T16:02:27Z</time>
      </trkpt>
      <trkpt lat="49.43098" lon="1.21179">
        <ele>153</ele>
        <time>2017-08-08T16:02:27Z</time>
      </trkpt>
      <trkpt lat="49.43091" lon="1.21178">
        <ele>153</ele>
        <time>2017-08-08T16:02:27Z</time>
      </trkpt>
      <trkpt lat="49.43087" lon="1.21177">
        <ele>153</ele>
        <time>2017-08-08T16:02:42Z</time>
      </trkpt>
      <trkpt lat="49.43083" lon="1.21176">
        <ele>153</ele>
        <time>2017-08-08T16:02:42Z</time>
      </trkpt>
      <trkpt lat="49.43076" lon="1.21175">
        <ele>153</ele>
        <time>2017-08-08T16:02:42Z</time>
      </trkpt>
      <trkpt lat="49.4307" lon="1.21182">
        <ele>153</ele>
        <time>2017-08-08T16:02:42Z</time>
      </trkpt>
      <trkpt lat="49.43065" lon="1.21187">
        <ele>153</ele>
        <time>2017-08-08T16:02:58Z</time>
      </trkpt>
      <trkpt lat="49.43059" lon="1.2119">
        <ele>153</ele>
        <time>2017-08-08T16:02:58Z</time>
      </trkpt>
      <trkpt lat="49.43055" lon="1.21191">
        <ele>153</ele>
        <time>2017-08-08T16:02:58Z</time>
      </trkpt>
      <trkpt lat="49.4305" lon="1.21193">
        <ele>153</ele>
        <time>2017-08-08T16:02:58Z</time>
      </trkpt>
      <trkpt lat="49.43045" lon="1.21195">
        <ele>153</ele>
        <time>2017-08-08T16:03:15Z</time>
      </trkpt>
      <trkpt lat="49.43044" lon="1.21189">
        <ele>153</ele>
        <time>2017-08-08T16:03:15Z</time>
      </trkpt>
      <trkpt lat="49.43036" lon="1.21183">
        <ele>155</ele>
        <time>2017-08-08T16:03:15Z</time>
      </trkpt>
      <trkpt lat="49.43028" lon="1.21187">
        <ele>155</ele>
        <time>2017-08-08T16:03:15Z</time>
      </trkpt>
      <trkpt lat="49.43023" lon="1.21187">
        <ele>155</ele>
        <time>2017-08-08T16:03:31Z</time>
      </trkpt>
      <trkpt lat="49.43016" lon="1.2119">
        <ele>155</ele>
        <time>2017-08-08T16:03:31Z</time>
      </trkpt>
      <trkpt lat="49.43012" lon="1.21192">
        <ele>155</ele>
        <time>2017-08-08T16:03:31Z</time>
      </trkpt>
      <trkpt lat="49.43006" lon="1.21194">
        <ele>155</ele>
        <time>2017-08-08T16:03:31Z</time>
      </trkpt>
      <trkpt lat="49.43003" lon="1.21196">
        <ele>155</ele>
        <time>2017-08-08T16:03:47Z</time>
      </trkpt>
      <trkpt lat="49.42997" lon="1.21196">
        <ele>155</ele>
        <time>2017-08-08T16:03:47Z</time>
      </trkpt>
      <trkpt lat="49.42992" lon="1.21199">
        <ele>155</ele>
        <time>2017-08-08T16:03:47Z</time>
      </trkpt>
      <trkpt lat="49.42984" lon="1.21204">
        <ele>155</ele>
        <time>2017-08-08T16:03:47Z</time>
      </trkpt>
      <trkpt lat="49.42981" lon="1.21205">
        <ele>155</ele>
        <time>2017-08-08T16:04:02Z</time>
      </trkpt>
      <trkpt lat="49.42976" lon="1.21206">
        <ele>155</ele>
        <time>2017-08-08T16:04:02Z</time>
      </trkpt>
      <trkpt lat="49.42971" lon="1.21207">
        <ele>155</ele>
        <time>2017-08-08T16:04:02Z</time>
      </trkpt>
      <trkpt lat="49.42969" lon="1.21206">
        <ele>155</ele>
        <time>2017-08-08T16:04:02Z</time>
      </trkpt>
      <trkpt lat="49.42965" lon="1.21209">
        <ele>154</ele>
        <time>2017-08-08T16:04:18Z</time>
      </trkpt>
      <trkpt lat="49.42959" lon="1.21216">
        <ele>154</ele>
        <time>2017-08-08T16:04:18Z</time>
      </trkpt>
      <trkpt lat="49.4295" lon="1.21214">
        <ele>157</ele>
        <time>2017-08-08T16:04:18Z</time>
      </trkpt>
      <trkpt lat="49.42943" lon="1.21217">
        <ele>157</ele>
        <time>2017-08-08T16:04:18Z</time>
      </trkpt>
      <trkpt lat="49.42937" lon="1.21216">
        <ele>157</ele>
        <time>2017-08-08T16:04:35Z</time>
      </trkpt>
      <trkpt lat="49.42932" lon="1.21219">
        <ele>157</ele>
        <time>2017-08-08T16:04:35Z</time>
      </trkpt>
      <trkpt lat="49.42924" lon="1.21226">
        <ele>157</ele>
        <time>2017-08-08T16:04:35Z</time>
      </trkpt>
      <trkpt lat="49.42916" lon="1.21232">
        <ele>157</ele>
        <time>2017-08-08T16:04:35Z</time>
      </trkpt>
      <trkpt lat="49.4291" lon="1.21233">
        <ele>157</ele>
        <time>2017-08-08T16:04:51Z</time>
      </trkpt>
      <trkpt lat="49.42905" lon="1.21231">
        <ele>157</ele>
        <time>2017-08-08T16:04:51Z</time>
      </trkpt>
      <trkpt lat="49.42902" lon="1.21232">
        <ele>157</ele>
        <time>2017-08-08T16:04:51Z</time>
      </trkpt>
      <trkpt lat="49.42895" lon="1.21234">
        <ele>157</ele>
        <time>2017-08-08T16:04:51Z</time>
      </trkpt>
      <trkpt lat="49.4289" lon="1.21236">
        <ele>157</ele>
        <time>2017-08-08T16:05:05Z</time>
      </trkpt>
      <trkpt lat="49.42887" lon="1.21237">
        <ele>157</ele>
        <time>2017-08-08T16:05:05Z</time>
      </trkpt>
      <trkpt lat="49.42882" lon="1.2124">
        <ele>157</ele>
        <time>2017-08-08T16:05:05Z</time>
      </trkpt>
      <trkpt lat="49.4288" lon="1.21239">
        <ele>157</ele>
        <time>2017-08-08T16:05:05Z</time>
      </trkpt>
      <trkpt lat="49.42883" lon="1.2124">
        <ele>157</ele>
        <time>2017-08-08T16:05:21Z</time>
      </trkpt>
      <trkpt lat="49.42881" lon="1.21244">
        <ele>157</ele>
        <time>2017-08-08T16:05:21Z</time>
      </trkpt>
      <trkpt lat="49.4287" lon="1.21251">
        <ele>157</ele>
        <time>2017-08-08T16:05:21Z</time>
      </trkpt>
      <trkpt lat="49.42867" lon="1.21252">
        <ele>157</ele>
        <time>2017-08-08T16:05:21Z</time>
      </trkpt>
      <trkpt lat="49.42826" lon="1.21312">
        <ele>156</ele>
        <time>2017-08-08T16:06:09Z</time>
      </trkpt>
      <trkpt lat="49.42826" lon="1.21301">
        <ele>156</ele>
        <time>2017-08-08T16:06:09Z</time>
      </trkpt>
      <trkpt lat="49.42825" lon="1.21299">
        <ele>156</ele>
        <time>2017-08-08T16:06:09Z</time>
      </trkpt>
      <trkpt lat="49.42825" lon="1.21298">
        <ele>156</ele>
        <time>2017-08-08T16:06:09Z</time>
      </trkpt>
      <trkpt lat="49.42825" lon="1.21297">
        <ele>156</ele>
        <time>2017-08-08T16:06:26Z</time>
      </trkpt>
      <trkpt lat="49.42824" lon="1.21298">
        <ele>156</ele>
        <time>2017-08-08T16:06:26Z</time>
      </trkpt>
      <trkpt lat="49.42818" lon="1.21308">
        <ele>156</ele>
        <time>2017-08-08T16:06:26Z</time>
      </trkpt>
      <trkpt lat="49.42812" lon="1.21315">
        <ele>156</ele>
        <time>2017-08-08T16:06:26Z</time>
      </trkpt>
      <trkpt lat="49.42803" lon="1.21317">
        <ele>156</ele>
        <time>2017-08-08T16:08:54Z</time>
      </trkpt>
      <trkpt lat="49.42799" lon="1.21321">
        <ele>156</ele>
        <time>2017-08-08T16:08:54Z</time>
      </trkpt>
      <trkpt lat="49.42796" lon="1.21324">
        <ele>156</ele>
        <time>2017-08-08T16:08:54Z</time>
      </trkpt>
      <trkpt lat="49.42663" lon="1.21157">
        <ele>154</ele>
        <time>2017-08-08T16:08:54Z</time>
      </trkpt>
      <trkpt lat="49.42654" lon="1.21129">
        <ele>154</ele>
        <time>2017-08-08T16:09:21Z</time>
      </trkpt>
      <trkpt lat="49.4266" lon="1.21121">
        <ele>154</ele>
        <time>2017-08-08T16:09:21Z</time>
      </trkpt>
      <trkpt lat="49.42657" lon="1.21116">
        <ele>154</ele>
        <time>2017-08-08T16:09:21Z</time>
      </trkpt>
      <trkpt lat="49.42646" lon="1.21119">
        <ele>154</ele>
        <time>2017-08-08T16:09:21Z</time>
      </trkpt>
      <trkpt lat="49.42641" lon="1.21115">
        <ele>154</ele>
        <time>2017-08-08T16:09:39Z</time>
      </trkpt>
      <trkpt lat="49.42637" lon="1.21109">
        <ele>154</ele>
        <time>2017-08-08T16:09:39Z</time>
      </trkpt>
      <trkpt lat="49.42633" lon="1.21104">
        <ele>154</ele>
        <time>2017-08-08T16:09:39Z</time>
      </trkpt>
      <trkpt lat="49.4263" lon="1.21099">
        <ele>154</ele>
        <time>2017-08-08T16:09:39Z</time>
      </trkpt>
      <trkpt lat="49.42628" lon="1.21095">
        <ele>154</ele>
        <time>2017-08-08T16:09:55Z</time>
      </trkpt>
      <trkpt lat="49.42626" lon="1.21089">
        <ele>154</ele>
        <time>2017-08-08T16:09:55Z</time>
      </trkpt>
      <trkpt lat="49.42622" lon="1.21087">
        <ele>152</ele>
        <time>2017-08-08T16:09:55Z</time>
      </trkpt>
      <trkpt lat="49.42618" lon="1.21082">
        <ele>152</ele>
        <time>2017-08-08T16:09:55Z</time>
      </trkpt>
      <trkpt lat="49.42615" lon="1.2108">
        <ele>152</ele>
        <time>2017-08-08T16:10:10Z</time>
      </trkpt>
      <trkpt lat="49.4261" lon="1.21075">
        <ele>152</ele>
        <time>2017-08-08T16:10:10Z</time>
      </trkpt>
      <trkpt lat="49.42607" lon="1.2107">
        <ele>152</ele>
        <time>2017-08-08T16:10:10Z</time>
      </trkpt>
      <trkpt lat="49.42603" lon="1.21066">
        <ele>152</ele>
        <time>2017-08-08T16:10:10Z</time>
      </trkpt>
      <trkpt lat="49.42599" lon="1.21061">
        <ele>152</ele>
        <time>2017-08-08T16:10:58Z</time>
      </trkpt>
      <trkpt lat="49.42596" lon="1.21059">
        <ele>152</ele>
        <time>2017-08-08T16:10:58Z</time>
      </trkpt>
      <trkpt lat="49.42587" lon="1.21052">
        <ele>152</ele>
        <time>2017-08-08T16:10:58Z</time>
      </trkpt>
      <trkpt lat="49.4257" lon="1.21043">
        <ele>152</ele>
        <time>2017-08-08T16:10:58Z</time>
      </trkpt>
      <trkpt lat="49.4257" lon="1.21049">
        <ele>152</ele>
        <time>2017-08-08T16:19:57Z</time>
      </trkpt>
      <trkpt lat="49.42571" lon="1.2105">
        <ele>152</ele>
        <time>2017-08-08T16:19:57Z</time>
      </trkpt>
      <trkpt lat="49.42572" lon="1.2105">
        <ele>152</ele>
        <time>2017-08-08T16:19:57Z</time>
      </trkpt>
      <trkpt lat="49.42572" lon="1.2105">
        <ele>152</ele>
        <time>2017-08-08T16:19:57Z</time>
      </trkpt>
      <trkpt lat="49.42583" lon="1.2105">
        <ele>152</ele>
        <time>2017-08-08T16:19:57Z</time>
      </trkpt>
      <trkpt lat="49.42572" lon="1.2098">
        <ele>151</ele>
        <time>2017-08-08T16:22:01Z</time>
      </trkpt>
      <trkpt lat="49.4257" lon="1.20979">
        <ele>151</ele>
        <time>2017-08-08T16:22:01Z</time>
      </trkpt>
      <trkpt lat="49.42569" lon="1.20979">
        <ele>151</ele>
        <time>2017-08-08T16:22:01Z</time>
      </trkpt>
      <trkpt lat="49.42564" lon="1.20976">
        <ele>151</ele>
        <time>2017-08-08T16:22:01Z</time>
      </trkpt>
      <trkpt lat="49.42563" lon="1.20969">
        <ele>151</ele>
        <time>2017-08-08T16:22:01Z</time>
      </trkpt>
      <trkpt lat="49.42561" lon="1.20952">
        <ele>149</ele>
        <time>2017-08-08T16:22:18Z</time>
      </trkpt>
      <trkpt lat="49.42563" lon="1.20944">
        <ele>149</ele>
        <time>2017-08-08T16:22:18Z</time>
      </trkpt>
      <trkpt lat="49.42565" lon="1.20933">
        <ele>149</ele>
        <time>2017-08-08T16:22:18Z</time>
      </trkpt>
      <trkpt lat="49.42566" lon="1.20927">
        <ele>149</ele>
        <time>2017-08-08T16:22:18Z</time>
      </trkpt>
      <trkpt lat="49.42564" lon="1.20917">
        <ele>149</ele>
        <time>2017-08-08T16:22:35Z</time>
      </trkpt>
      <trkpt lat="49.42563" lon="1.20912">
        <ele>149</ele>
        <time>2017-08-08T16:22:35Z</time>
      </trkpt>
      <trkpt lat="49.42562" lon="1.20905">
        <ele>149</ele>
        <time>2017-08-08T16:22:35Z</time>
      </trkpt>
      <trkpt lat="49.42562" lon="1.20893">
        <ele>149</ele>
        <time>2017-08-08T16:22:35Z</time>
      </trkpt>
      <trkpt lat="49.42561" lon="1.20885">
        <ele>149</ele>
        <time>2017-08-08T16:22:51Z</time>
      </trkpt>
      <trkpt lat="49.42561" lon="1.20878">
        <ele>149</ele>
        <time>2017-08-08T16:22:51Z</time>
      </trkpt>
      <trkpt lat="49.42559" lon="1.20865">
        <ele>148</ele>
        <time>2017-08-08T16:22:51Z</time>
      </trkpt>
      <trkpt lat="49.42559" lon="1.20857">
        <ele>148</ele>
        <time>2017-08-08T16:22:51Z</time>
      </trkpt>
      <trkpt lat="49.42559" lon="1.20852">
        <ele>148</ele>
        <time>2017-08-08T16:23:07Z</time>
      </trkpt>
      <trkpt lat="49.42558" lon="1.20845">
        <ele>148</ele>
        <time>2017-08-08T16:23:07Z</time>
      </trkpt>
      <trkpt lat="49.42557" lon="1.20837">
        <ele>148</ele>
        <time>2017-08-08T16:23:07Z</time>
      </trkpt>
      <trkpt lat="49.42558" lon="1.20827">
        <ele>148</ele>
        <time>2017-08-08T16:23:07Z</time>
      </trkpt>
      <trkpt lat="49.42559" lon="1.2082">
        <ele>148</ele>
        <time>2017-08-08T16:23:22Z</time>
      </trkpt>
      <trkpt lat="49.42558" lon="1.20811">
        <ele>148</ele>
        <time>2017-08-08T16:23:22Z</time>
      </trkpt>
      <trkpt lat="49.42558" lon="1.20802">
        <ele>148</ele>
        <time>2017-08-08T16:23:22Z</time>
      </trkpt>
      <trkpt lat="49.42559" lon="1.20792">
        <ele>148</ele>
        <time>2017-08-08T16:23:22Z</time>
      </trkpt>
      <trkpt lat="49.42559" lon="1.20786">
        <ele>147</ele>
        <time>2017-08-08T16:23:38Z</time>
      </trkpt>
      <trkpt lat="49.4256" lon="1.20774">
        <ele>147</ele>
        <time>2017-08-08T16:23:38Z</time>
      </trkpt>
      <trkpt lat="49.42561" lon="1.20767">
        <ele>147</ele>
        <time>2017-08-08T16:23:38Z</time>
      </trkpt>
      <trkpt lat="49.4256" lon="1.20757">
        <ele>147</ele>
        <time>2017-08-08T16:23:38Z</time>
      </trkpt>
      <trkpt lat="49.42559" lon="1.20752">
        <ele>147</ele>
        <time>2017-08-08T16:23:55Z</time>
      </trkpt>
      <trkpt lat="49.42557" lon="1.20743">
        <ele>147</ele>
        <time>2017-08-08T16:23:55Z</time>
      </trkpt>
      <trkpt lat="49.42556" lon="1.20735">
        <ele>147</ele>
        <time>2017-08-08T16:23:55Z</time>
      </trkpt>
      <trkpt lat="49.42556" lon="1.20726">
        <ele>147</ele>
        <time>2017-08-08T16:23:55Z</time>
      </trkpt>
      <trkpt lat="49.42556" lon="1.20721">
        <ele>147</ele>
        <time>2017-08-08T16:24:11Z</time>
      </trkpt>
      <trkpt lat="49.42556" lon="1.20714">
        <ele>147</ele>
        <time>2017-08-08T16:24:11Z</time>
      </trkpt>
      <trkpt lat="49.42556" lon="1.20702">
        <ele>146</ele>
        <time>2017-08-08T16:24:11Z</time>
      </trkpt>
      <trkpt lat="49.42555" lon="1.2069">
        <ele>146</ele>
        <time>2017-08-08T16:24:11Z</time>
      </trkpt>
      <trkpt lat="49.42554" lon="1.20684">
        <ele>146</ele>
        <time>2017-08-08T16:24:27Z</time>
      </trkpt>
      <trkpt lat="49.42554" lon="1.20678">
        <ele>146</ele>
        <time>2017-08-08T16:24:27Z</time>
      </trkpt>
      <trkpt lat="49.42554" lon="1.20672">
        <ele>146</ele>
        <time>2017-08-08T16:24:27Z</time>
      </trkpt>
      <trkpt lat="49.42554" lon="1.20663">
        <ele>146</ele>
        <time>2017-08-08T16:24:27Z</time>
      </trkpt>
      <trkpt lat="49.42554" lon="1.20656">
        <ele>146</ele>
        <time>2017-08-08T16:24:42Z</time>
      </trkpt>
      <trkpt lat="49.42554" lon="1.20644">
        <ele>146</ele>
        <time>2017-08-08T16:24:42Z</time>
      </trkpt>
      <trkpt lat="49.42553" lon="1.20637">
        <ele>146</ele>
        <time>2017-08-08T16:24:42Z</time>
      </trkpt>
      <trkpt lat="49.42553" lon="1.20632">
        <ele>146</ele>
        <time>2017-08-08T16:24:42Z</time>
      </trkpt>
      <trkpt lat="49.42553" lon="1.20628">
        <ele>146</ele>
        <time>2017-08-08T16:24:58Z</time>
      </trkpt>
      <trkpt lat="49.42552" lon="1.20619">
        <ele>145</ele>
        <time>2017-08-08T16:24:58Z</time>
      </trkpt>
      <trkpt lat="49.42551" lon="1.20609">
        <ele>145</ele>
        <time>2017-08-08T16:24:58Z</time>
      </trkpt>
      <trkpt lat="49.42551" lon="1.20599">
        <ele>145</ele>
        <time>2017-08-08T16:24:58Z</time>
      </trkpt>
      <trkpt lat="49.42551" lon="1.20588">
        <ele>145</ele>
        <time>2017-08-08T16:25:14Z</time>
      </trkpt>
      <trkpt lat="49.4255" lon="1.2058">
        <ele>145</ele>
        <time>2017-08-08T16:25:14Z</time>
      </trkpt>
      <trkpt lat="49.4255" lon="1.20573">
        <ele>145</ele>
        <time>2017-08-08T16:25:14Z</time>
      </trkpt>
      <trkpt lat="49.4255" lon="1.20565">
        <ele>145</ele>
        <time>2017-08-08T16:25:14Z</time>
      </trkpt>
      <trkpt lat="49.4255" lon="1.20557">
        <ele>145</ele>
        <time>2017-08-08T16:26:02Z</time>
      </trkpt>
      <trkpt lat="49.42549" lon="1.20551">
        <ele>145</ele>
        <time>2017-08-08T16:26:02Z</time>
      </trkpt>
      <trkpt lat="49.42546" lon="1.20481">
        <ele>144</ele>
        <time>2017-08-08T16:26:02Z</time>
      </trkpt>
      <trkpt lat="49.42551" lon="1.20465">
        <ele>144</ele>
        <time>2017-08-08T16:26:02Z</time>
      </trkpt>
      <trkpt lat="49.42545" lon="1.20453">
        <ele>143</ele>
        <time>2017-08-08T16:26:18Z</time>
      </trkpt>
      <trkpt lat="49.42548" lon="1.20445">
        <ele>143</ele>
        <time>2017-08-08T16:26:18Z</time>
      </trkpt>
      <trkpt lat="49.42548" lon="1.20437">
        <ele>143</ele>
        <time>2017-08-08T16:26:18Z</time>
      </trkpt>
      <trkpt lat="49.42546" lon="1.20432">
        <ele>143</ele>
        <time>2017-08-08T16:26:18Z</time>
      </trkpt>
      <trkpt lat="49.42545" lon="1.20425">
        <ele>143</ele>
        <time>2017-08-08T16:26:35Z</time>
      </trkpt>
      <trkpt lat="49.42545" lon="1.20417">
        <ele>143</ele>
        <time>2017-08-08T16:26:35Z</time>
      </trkpt>
      <trkpt lat="49.42544" lon="1.20411">
        <ele>143</ele>
        <time>2017-08-08T16:26:35Z</time>
      </trkpt>
      <trkpt lat="49.42543" lon="1.20402">
        <ele>143</ele>
        <time>2017-08-08T16:26:35Z</time>
      </trkpt>
      <trkpt lat="49.42543" lon="1.20394">
        <ele>143</ele>
        <time>2017-08-08T16:26:49Z</time>
      </trkpt>
      <trkpt lat="49.42542" lon="1.20387">
        <ele>143</ele>
        <time>2017-08-08T16:26:49Z</time>
      </trkpt>
      <trkpt lat="49.42541" lon="1.20376">
        <ele>143</ele>
        <time>2017-08-08T16:26:49Z</time>
      </trkpt>
      <trkpt lat="49.4254" lon="1.20372">
        <ele>141</ele>
        <time>2017-08-08T16:26:49Z</time>
      </trkpt>
      <trkpt lat="49.4254" lon="1.20365">
        <ele>141</ele>
        <time>2017-08-08T16:27:05Z</time>
      </trkpt>
      <trkpt lat="49.4254" lon="1.20357">
        <ele>141</ele>
        <time>2017-08-08T16:27:05Z</time>
      </trkpt>
      <trkpt lat="49.42539" lon="1.20347">
        <ele>141</ele>
        <time>2017-08-08T16:27:05Z</time>
      </trkpt>
      <trkpt lat="49.42537" lon="1.20337">
        <ele>141</ele>
        <time>2017-08-08T16:27:05Z</time>
      </trkpt>
      <trkpt lat="49.42536" lon="1.20329">
        <ele>141</ele>
        <time>2017-08-08T16:27:21Z</time>
      </trkpt>
      <trkpt lat="49.42535" lon="1.20323">
        <ele>141</ele>
        <time>2017-08-08T16:27:21Z</time>
      </trkpt>
      <trkpt lat="49.42533" lon="1.20317">
        <ele>141</ele>
        <time>2017-08-08T16:27:21Z</time>
      </trkpt>
      <trkpt lat="49.42533" lon="1.20308">
        <ele>141</ele>
        <time>2017-08-08T16:27:21Z</time>
      </trkpt>
      <trkpt lat="49.42532" lon="1.203">
        <ele>141</ele>
        <time>2017-08-08T16:27:37Z</time>
      </trkpt>
      <trkpt lat="49.42531" lon="1.20291">
        <ele>141</ele>
        <time>2017-08-08T16:27:37Z</time>
      </trkpt>
      <trkpt lat="49.4253" lon="1.20283">
        <ele>141</ele>
        <time>2017-08-08T16:27:37Z</time>
      </trkpt>
      <trkpt lat="49.42529" lon="1.20274">
        <ele>141</ele>
        <time>2017-08-08T16:27:37Z</time>
      </trkpt>
      <trkpt lat="49.42528" lon="1.20266">
        <ele>141</ele>
        <time>2017-08-08T16:27:53Z</time>
      </trkpt>
      <trkpt lat="49.42526" lon="1.20259">
        <ele>141</ele>
        <time>2017-08-08T16:27:53Z</time>
      </trkpt>
      <trkpt lat="49.42526" lon="1.2025">
        <ele>141</ele>
        <time>2017-08-08T16:27:53Z</time>
      </trkpt>
      <trkpt lat="49.42526" lon="1.20241">
        <ele>141</ele>
        <time>2017-08-08T16:27:53Z</time>
      </trkpt>
      <trkpt lat="49.42525" lon="1.20232">
        <ele>141</ele>
        <time>2017-08-08T16:28:09Z</time>
      </trkpt>
      <trkpt lat="49.42524" lon="1.20224">
        <ele>141</ele>
        <time>2017-08-08T16:28:09Z</time>
      </trkpt>
      <trkpt lat="49.42523" lon="1.20215">
        <ele>141</ele>
        <time>2017-08-08T16:28:09Z</time>
      </trkpt>
      <trkpt lat="49.42522" lon="1.20208">
        <ele>140</ele>
        <time>2017-08-08T16:28:09Z</time>
      </trkpt>
      <trkpt lat="49.4252" lon="1.202">
        <ele>140</ele>
        <time>2017-08-08T16:28:25Z</time>
      </trkpt>
      <trkpt lat="49.42519" lon="1.20193">
        <ele>140</ele>
        <time>2017-08-08T16:28:25Z</time>
      </trkpt>
      <trkpt lat="49.42518" lon="1.20185">
        <ele>140</ele>
        <time>2017-08-08T16:28:25Z</time>
      </trkpt>
      <trkpt lat="49.42517" lon="1.20177">
        <ele>140</ele>
        <time>2017-08-08T16:28:25Z</time>
      </trkpt>
      <trkpt lat="49.42516" lon="1.2017">
        <ele>140</ele>
        <time>2017-08-08T16:28:41Z</time>
      </trkpt>
      <trkpt lat="49.42514" lon="1.20161">
        <ele>140</ele>
        <time>2017-08-08T16:28:41Z</time>
      </trkpt>
      <trkpt lat="49.42516" lon="1.20154">
        <ele>140</ele>
        <time>2017-08-08T16:28:41Z</time>
      </trkpt>
      <trkpt lat="49.42515" lon="1.20153">
        <ele>140</ele>
        <time>2017-08-08T16:28:41Z</time>
      </trkpt>
      <trkpt lat="49.42518" lon="1.20154">
        <ele>140</ele>
        <time>2017-08-08T16:31:57Z</time>
      </trkpt>
      <trkpt lat="49.42518" lon="1.20154">
        <ele>140</ele>
        <time>2017-08-08T16:31:57Z</time>
      </trkpt>
      <trkpt lat="49.42518" lon="1.20149">
        <ele>140</ele>
        <time>2017-08-08T16:31:57Z</time>
      </trkpt>
      <trkpt lat="49.42517" lon="1.2014">
        <ele>140</ele>
        <time>2017-08-08T16:31:57Z</time>
      </trkpt>
      <trkpt lat="49.42515" lon="1.20133">
        <ele>140</ele>
        <time>2017-08-08T16:31:57Z</time>
      </trkpt>
      <trkpt lat="49.42513" lon="1.20125">
        <ele>140</ele>
        <time>2017-08-08T16:32:13Z</time>
      </trkpt>
      <trkpt lat="49.42511" lon="1.20118">
        <ele>139</ele>
        <time>2017-08-08T16:32:13Z</time>
      </trkpt>
      <trkpt lat="49.4251" lon="1.2011">
        <ele>139</ele>
        <time>2017-08-08T16:32:13Z</time>
      </trkpt>
      <trkpt lat="49.42508" lon="1.20102">
        <ele>139</ele>
        <time>2017-08-08T16:32:13Z</time>
      </trkpt>
      <trkpt lat="49.42507" lon="1.20094">
        <ele>139</ele>
        <time>2017-08-08T16:32:29Z</time>
      </trkpt>
      <trkpt lat="49.42505" lon="1.20086">
        <ele>139</ele>
        <time>2017-08-08T16:32:29Z</time>
      </trkpt>
      <trkpt lat="49.42504" lon="1.20079">
        <ele>139</ele>
        <time>2017-08-08T16:32:29Z</time>
      </trkpt>
      <trkpt lat="49.42503" lon="1.20071">
        <ele>139</ele>
        <time>2017-08-08T16:32:29Z</time>
      </trkpt>
      <trkpt lat="49.42502" lon="1.20063">
        <ele>139</ele>
        <time>2017-08-08T16:32:45Z</time>
      </trkpt>
      <trkpt lat="49.42501" lon="1.20055">
        <ele>139</ele>
        <time>2017-08-08T16:32:45Z</time>
      </trkpt>
      <trkpt lat="49.42499" lon="1.20047">
        <ele>139</ele>
        <time>2017-08-08T16:32:45Z</time>
      </trkpt>
      <trkpt lat="49.42498" lon="1.20039">
        <ele>137</ele>
        <time>2017-08-08T16:32:45Z</time>
      </trkpt>
      <trkpt lat="49.42497" lon="1.20032">
        <ele>137</ele>
        <time>2017-08-08T16:33:45Z</time>
      </trkpt>
      <trkpt lat="49.42495" lon="1.20024">
        <ele>137</ele>
        <time>2017-08-08T16:33:45Z</time>
      </trkpt>
      <trkpt lat="49.42494" lon="1.20016">
        <ele>137</ele>
        <time>2017-08-08T16:33:45Z</time>
      </trkpt>
      <trkpt lat="49.42465" lon="1.19933">
        <ele>137</ele>
        <time>2017-08-08T16:33:45Z</time>
      </trkpt>
      <trkpt lat="49.42463" lon="1.19926">
        <ele>137</ele>
        <time>2017-08-08T16:34:01Z</time>
      </trkpt>
      <trkpt lat="49.4246" lon="1.1992">
        <ele>137</ele>
        <time>2017-08-08T16:34:01Z</time>
      </trkpt>
      <trkpt lat="49.42457" lon="1.19914">
        <ele>137</ele>
        <time>2017-08-08T16:34:01Z</time>
      </trkpt>
      <trkpt lat="49.42453" lon="1.19908">
        <ele>137</ele>
        <time>2017-08-08T16:34:01Z</time>
      </trkpt>
      <trkpt lat="49.4245" lon="1.19902">
        <ele>137</ele>
        <time>2017-08-08T16:34:17Z</time>
      </trkpt>
      <trkpt lat="49.42446" lon="1.19896">
        <ele>137</ele>
        <time>2017-08-08T16:34:17Z</time>
      </trkpt>
      <trkpt lat="49.42442" lon="1.19891">
        <ele>137</ele>
        <time>2017-08-08T16:34:17Z</time>
      </trkpt>
      <trkpt lat="49.42438" lon="1.19886">
        <ele>137</ele>
        <time>2017-08-08T16:34:17Z</time>
      </trkpt>
      <trkpt lat="49.42434" lon="1.19881">
        <ele>137</ele>
        <time>2017-08-08T16:34:33Z</time>
      </trkpt>
      <trkpt lat="49.42429" lon="1.19878">
        <ele>137</ele>
        <time>2017-08-08T16:34:33Z</time>
      </trkpt>
      <trkpt lat="49.42425" lon="1.19873">
        <ele>136</ele>
        <time>2017-08-08T16:34:33Z</time>
      </trkpt>
      <trkpt lat="49.42422" lon="1.19867">
        <ele>136</ele>
        <time>2017-08-08T16:34:33Z</time>
      </trkpt>
      <trkpt lat="49.42417" lon="1.19863">
        <ele>136</ele>
        <time>2017-08-08T16:34:49Z</time>
      </trkpt>
      <trkpt lat="49.42413" lon="1.19858">
        <ele>136</ele>
        <time>2017-08-08T16:34:49Z</time>
      </trkpt>
      <trkpt lat="49.42409" lon="1.19853">
        <ele>136</ele>
        <time>2017-08-08T16:34:49Z</time>
      </trkpt>
      <trkpt lat="49.42405" lon="1.19848">
        <ele>136</ele>
        <time>2017-08-08T16:34:49Z</time>
      </trkpt>
      <trkpt lat="49.42401" lon="1.19843">
        <ele>136</ele>
        <time>2017-08-08T16:35:05Z</time>
      </trkpt>
      <trkpt lat="49.42397" lon="1.19838">
        <ele>136</ele>
        <time>2017-08-08T16:35:05Z</time>
      </trkpt>
      <trkpt lat="49.42393" lon="1.19833">
        <ele>136</ele>
        <time>2017-08-08T16:35:05Z</time>
      </trkpt>
      <trkpt lat="49.42389" lon="1.19829">
        <ele>136</ele>
        <time>2017-08-08T16:35:05Z</time>
      </trkpt>
      <trkpt lat="49.42385" lon="1.19823">
        <ele>136</ele>
        <time>2017-08-08T16:35:21Z</time>
      </trkpt>
      <trkpt lat="49.42381" lon="1.19818">
        <ele>136</ele>
        <time>2017-08-08T16:35:21Z</time>
      </trkpt>
      <trkpt lat="49.42378" lon="1.19812">
        <ele>136</ele>
        <time>2017-08-08T16:35:21Z</time>
      </trkpt>
      <trkpt lat="49.42374" lon="1.19806">
        <ele>137</ele>
        <time>2017-08-08T16:35:21Z</time>
      </trkpt>
      <trkpt lat="49.42371" lon="1.19801">
        <ele>137</ele>
        <time>2017-08-08T16:35:37Z</time>
      </trkpt>
      <trkpt lat="49.42367" lon="1.19795">
        <ele>137</ele>
        <time>2017-08-08T16:35:37Z</time>
      </trkpt>
      <trkpt lat="49.42363" lon="1.1979">
        <ele>135</ele>
        <time>2017-08-08T16:35:37Z</time>
      </trkpt>
      <trkpt lat="49.4236" lon="1.19784">
        <ele>135</ele>
        <time>2017-08-08T16:35:37Z</time>
      </trkpt>
      <trkpt lat="49.42356" lon="1.19779">
        <ele>135</ele>
        <time>2017-08-08T16:35:53Z</time>
      </trkpt>
      <trkpt lat="49.42352" lon="1.19774">
        <ele>135</ele>
        <time>2017-08-08T16:35:53Z</time>
      </trkpt>
      <trkpt lat="49.4235" lon="1.19766">
        <ele>135</ele>
        <time>2017-08-08T16:35:53Z</time>
      </trkpt>
      <trkpt lat="49.42347" lon="1.1976">
        <ele>135</ele>
        <time>2017-08-08T16:35:53Z</time>
      </trkpt>
      <trkpt lat="49.42343" lon="1.19754">
        <ele>135</ele>
        <time>2017-08-08T16:36:46Z</time>
      </trkpt>
      <trkpt lat="49.42339" lon="1.19749">
        <ele>135</ele>
        <time>2017-08-08T16:36:46Z</time>
      </trkpt>
      <trkpt lat="49.42336" lon="1.19743">
        <ele>135</ele>
        <time>2017-08-08T16:36:46Z</time>
      </trkpt>
      <trkpt lat="49.42347" lon="1.19642">
        <ele>131</ele>
        <time>2017-08-08T16:36:46Z</time>
      </trkpt>
      <trkpt lat="49.42347" lon="1.19642">
        <ele>131</ele>
        <time>2017-08-08T16:37:03Z</time>
      </trkpt>
      <trkpt lat="49.42348" lon="1.1964">
        <ele>131</ele>
        <time>2017-08-08T16:37:03Z</time>
      </trkpt>
      <trkpt lat="49.42337" lon="1.19628">
        <ele>131</ele>
        <time>2017-08-08T16:37:03Z</time>
      </trkpt>
      <trkpt lat="49.42329" lon="1.19597">
        <ele>132</ele>
        <time>2017-08-08T16:37:03Z</time>
      </trkpt>
      <trkpt lat="49.42329" lon="1.19592">
        <ele>132</ele>
        <time>2017-08-08T16:37:18Z</time>
      </trkpt>
      <trkpt lat="49.42332" lon="1.19586">
        <ele>132</ele>
        <time>2017-08-08T16:37:18Z</time>
      </trkpt>
      <trkpt lat="49.42329" lon="1.19577">
        <ele>132</ele>
        <time>2017-08-08T16:37:18Z</time>
      </trkpt>
      <trkpt lat="49.42328" lon="1.19571">
        <ele>132</ele>
        <time>2017-08-08T16:37:18Z</time>
      </trkpt>
      <trkpt lat="49.4233" lon="1.19565">
        <ele>132</ele>
        <time>2017-08-08T16:37:34Z</time>
      </trkpt>
      <trkpt lat="49.42328" lon="1.19558">
        <ele>132</ele>
        <time>2017-08-08T16:37:34Z</time>
      </trkpt>
      <trkpt lat="49.42326" lon="1.19553">
        <ele>132</ele>
        <time>2017-08-08T16:37:34Z</time>
      </trkpt>
      <trkpt lat="49.42324" lon="1.19549">
        <ele>132</ele>
        <time>2017-08-08T16:37:34Z</time>
      </trkpt>
      <trkpt lat="49.42322" lon="1.19544">
        <ele>132</ele>
        <time>2017-08-08T16:37:59Z</time>
      </trkpt>
      <trkpt lat="49.4232" lon="1.19538">
        <ele>136</ele>
        <time>2017-08-08T16:37:59Z</time>
      </trkpt>
      <trkpt lat="49.42314" lon="1.19522">
        <ele>136</ele>
        <time>2017-08-08T16:37:59Z</time>
      </trkpt>
      <trkpt lat="49.4231" lon="1.19515">
        <ele>136</ele>
        <time>2017-08-08T16:37:59Z</time>
      </trkpt>
      <trkpt lat="49.42309" lon="1.19511">
        <ele>136</ele>
        <time>2017-08-08T16:38:15Z</time>
      </trkpt>
      <trkpt lat="49.42306" lon="1.19504">
        <ele>136</ele>
        <time>2017-08-08T16:38:15Z</time>
      </trkpt>
      <trkpt lat="49.42303" lon="1.19498">
        <ele>136</ele>
        <time>2017-08-08T16:38:15Z</time>
      </trkpt>
      <trkpt lat="49.42301" lon="1.19492">
        <ele>136</ele>
        <time>2017-08-08T16:38:15Z</time>
      </trkpt>
      <trkpt lat="49.42298" lon="1.19487">
        <ele>136</ele>
        <time>2017-08-08T16:38:30Z</time>
      </trkpt>
      <trkpt lat="49.42296" lon="1.19481">
        <ele>136</ele>
        <time>2017-08-08T16:38:30Z</time>
      </trkpt>
      <trkpt lat="49.42294" lon="1.19475">
        <ele>136</ele>
        <time>2017-08-08T16:38:30Z</time>
      </trkpt>
      <trkpt lat="49.42291" lon="1.1947">
        <ele>136</ele>
        <time>2017-08-08T16:38:30Z</time>
      </trkpt>
      <trkpt lat="49.42288" lon="1.19464">
        <ele>136</ele>
        <time>2017-08-08T16:38:46Z</time>
      </trkpt>
      <trkpt lat="49.42286" lon="1.19459">
        <ele>136</ele>
        <time>2017-08-08T16:38:46Z</time>
      </trkpt>
      <trkpt lat="49.42284" lon="1.19453">
        <ele>135</ele>
        <time>2017-08-08T16:38:46Z</time>
      </trkpt>
      <trkpt lat="49.4228" lon="1.19446">
        <ele>135</ele>
        <time>2017-08-08T16:38:46Z</time>
      </trkpt>
      <trkpt lat="49.42278" lon="1.19442">
        <ele>135</ele>
        <time>2017-08-08T16:39:02Z</time>
      </trkpt>
      <trkpt lat="49.42275" lon="1.19437">
        <ele>135</ele>
        <time>2017-08-08T16:39:02Z</time>
      </trkpt>
      <trkpt lat="49.42271" lon="1.1943">
        <ele>135</ele>
        <time>2017-08-08T16:39:02Z</time>
      </trkpt>
      <trkpt lat="49.42268" lon="1.19427">
        <ele>135</ele>
        <time>2017-08-08T16:39:02Z</time>
      </trkpt>
      <trkpt lat="49.42263" lon="1.19421">
        <ele>135</ele>
        <time>2017-08-08T16:39:19Z</time>
      </trkpt>
      <trkpt lat="49.4226" lon="1.19416">
        <ele>135</ele>
        <time>2017-08-08T16:39:19Z</time>
      </trkpt>
      <trkpt lat="49.42257" lon="1.19413">
        <ele>135</ele>
        <time>2017-08-08T16:39:19Z</time>
      </trkpt>
      <trkpt lat="49.42253" lon="1.19406">
        <ele>135</ele>
        <time>2017-08-08T16:39:19Z</time>
      </trkpt>
      <trkpt lat="49.4225" lon="1.19402">
        <ele>135</ele>
        <time>2017-08-08T16:39:33Z</time>
      </trkpt>
      <trkpt lat="49.42247" lon="1.19399">
        <ele>135</ele>
        <time>2017-08-08T16:39:33Z</time>
      </trkpt>
      <trkpt lat="49.42243" lon="1.19395">
        <ele>135</ele>
        <time>2017-08-08T16:39:33Z</time>
      </trkpt>
      <trkpt lat="49.42239" lon="1.19391">
        <ele>135</ele>
        <time>2017-08-08T16:39:33Z</time>
      </trkpt>
      <trkpt lat="49.42234" lon="1.19385">
        <ele>135</ele>
        <time>2017-08-08T16:39:50Z</time>
      </trkpt>
      <trkpt lat="49.4223" lon="1.19381">
        <ele>135</ele>
        <time>2017-08-08T16:39:50Z</time>
      </trkpt>
      <trkpt lat="49.42226" lon="1.19377">
        <ele>135</ele>
        <time>2017-08-08T16:39:50Z</time>
      </trkpt>
      <trkpt lat="49.42223" lon="1.19373">
        <ele>134</ele>
        <time>2017-08-08T16:39:50Z</time>
      </trkpt>
      <trkpt lat="49.42218" lon="1.19367">
        <ele>134</ele>
        <time>2017-08-08T16:40:06Z</time>
      </trkpt>
      <trkpt lat="49.42215" lon="1.19364">
        <ele>134</ele>
        <time>2017-08-08T16:40:06Z</time>
      </trkpt>
      <trkpt lat="49.42211" lon="1.19358">
        <ele>134</ele>
        <time>2017-08-08T16:40:06Z</time>
      </trkpt>
      <trkpt lat="49.42207" lon="1.19354">
        <ele>126</ele>
        <time>2017-08-08T16:40:06Z</time>
      </trkpt>
      <trkpt lat="49.42205" lon="1.19351">
        <ele>126</ele>
        <time>2017-08-08T16:40:22Z</time>
      </trkpt>
      <trkpt lat="49.42201" lon="1.19346">
        <ele>126</ele>
        <time>2017-08-08T16:40:22Z</time>
      </trkpt>
      <trkpt lat="49.42196" lon="1.1934">
        <ele>126</ele>
        <time>2017-08-08T16:40:22Z</time>
      </trkpt>
      <trkpt lat="49.42194" lon="1.19337">
        <ele>126</ele>
        <time>2017-08-08T16:40:22Z</time>
      </trkpt>
      <trkpt lat="49.4219" lon="1.1933">
        <ele>126</ele>
        <time>2017-08-08T16:40:39Z</time>
      </trkpt>
      <trkpt lat="49.42187" lon="1.19325">
        <ele>126</ele>
        <time>2017-08-08T16:40:39Z</time>
      </trkpt>
      <trkpt lat="49.42184" lon="1.19322">
        <ele>126</ele>
        <time>2017-08-08T16:40:39Z</time>
      </trkpt>
      <trkpt lat="49.4218" lon="1.19315">
        <ele>126</ele>
        <time>2017-08-08T16:40:39Z</time>
      </trkpt>
      <trkpt lat="49.42178" lon="1.19311">
        <ele>126</ele>
        <time>2017-08-08T16:40:53Z</time>
      </trkpt>
      <trkpt lat="49.42174" lon="1.19304">
        <ele>126</ele>
        <time>2017-08-08T16:40:53Z</time>
      </trkpt>
      <trkpt lat="49.42171" lon="1.19298">
        <ele>126</ele>
        <time>2017-08-08T16:40:53Z</time>
      </trkpt>
      <trkpt lat="49.42169" lon="1.19293">
        <ele>126</ele>
        <time>2017-08-08T16:40:53Z</time>
      </trkpt>
      <trkpt lat="49.42165" lon="1.19285">
        <ele>123</ele>
        <time>2017-08-08T16:41:45Z</time>
      </trkpt>
      <trkpt lat="49.42164" lon="1.19279">
        <ele>123</ele>
        <time>2017-08-08T16:41:45Z</time>
      </trkpt>
      <trkpt lat="49.42162" lon="1.19273">
        <ele>123</ele>
        <time>2017-08-08T16:41:45Z</time>
      </trkpt>
      <trkpt lat="49.421" lon="1.19202">
        <ele>110</ele>
        <time>2017-08-08T16:41:45Z</time>
      </trkpt>
      <trkpt lat="49.42068" lon="1.19216">
        <ele>111</ele>
        <time>2017-08-08T16:43:50Z</time>
      </trkpt>
      <trkpt lat="49.42067" lon="1.19216">
        <ele>111</ele>
        <time>2017-08-08T16:43:50Z</time>
      </trkpt>
      <trkpt lat="49.42066" lon="1.19215">
        <ele>111</ele>
        <time>2017-08-08T16:43:50Z</time>
      </trkpt>
      <trkpt lat="49.42065" lon="1.19214">
        <ele>111</ele>
        <time>2017-08-08T16:43:50Z</time>
      </trkpt>
      <trkpt lat="49.42065" lon="1.19214">
        <ele>111</ele>
        <time>2017-08-08T16:43:50Z</time>
      </trkpt>
      <trkpt lat="49.42065" lon="1.19203">
        <ele>110</ele>
        <time>2017-08-08T16:44:06Z</time>
      </trkpt>
      <trkpt lat="49.4205" lon="1.19189">
        <ele>110</ele>
        <time>2017-08-08T16:44:06Z</time>
      </trkpt>
      <trkpt lat="49.42038" lon="1.19182">
        <ele>97</ele>
        <time>2017-08-08T16:44:06Z</time>
      </trkpt>
      <trkpt lat="49.42034" lon="1.19185">
        <ele>97</ele>
        <time>2017-08-08T16:44:06Z</time>
      </trkpt>
      <trkpt lat="49.4203" lon="1.19189">
        <ele>97</ele>
        <time>2017-08-08T16:45:07Z</time>
      </trkpt>
      <trkpt lat="49.42026" lon="1.19191">
        <ele>97</ele>
        <time>2017-08-08T16:45:07Z</time>
      </trkpt>
      <trkpt lat="49.4198" lon="1.19036">
        <ele>89</ele>
        <time>2017-08-08T16:45:07Z</time>
      </trkpt>
      <trkpt lat="49.41978" lon="1.19028">
        <ele>89</ele>
        <time>2017-08-08T16:45:07Z</time>
      </trkpt>
      <trkpt lat="49.41976" lon="1.19018">
        <ele>89</ele>
        <time>2017-08-08T16:45:30Z</time>
      </trkpt>
      <trkpt lat="49.41975" lon="1.19013">
        <ele>89</ele>
        <time>2017-08-08T16:45:30Z</time>
      </trkpt>
      <trkpt lat="49.41974" lon="1.19011">
        <ele>89</ele>
        <time>2017-08-08T16:45:30Z</time>
      </trkpt>
      <trkpt lat="49.41973" lon="1.19008">
        <ele>89</ele>
        <time>2017-08-08T16:45:30Z</time>
      </trkpt>
      <trkpt lat="49.4197" lon="1.19005">
        <ele>89</ele>
        <time>2017-08-08T16:45:30Z</time>
      </trkpt>
      <trkpt lat="49.41964" lon="1.18996">
        <ele>89</ele>
        <time>2017-08-08T16:45:46Z</time>
      </trkpt>
      <trkpt lat="49.41962" lon="1.1899">
        <ele>89</ele>
        <time>2017-08-08T16:45:46Z</time>
      </trkpt>
      <trkpt lat="49.41958" lon="1.18982">
        <ele>66</ele>
        <time>2017-08-08T16:45:46Z</time>
      </trkpt>
      <trkpt lat="49.41955" lon="1.18977">
        <ele>66</ele>
        <time>2017-08-08T16:45:46Z</time>
      </trkpt>
      <trkpt lat="49.41952" lon="1.18975">
        <ele>66</ele>
        <time>2017-08-08T16:46:02Z</time>
      </trkpt>
      <trkpt lat="49.4195" lon="1.18972">
        <ele>66</ele>
        <time>2017-08-08T16:46:02Z</time>
      </trkpt>
      <trkpt lat="49.41946" lon="1.18967">
        <ele>66</ele>
        <time>2017-08-08T16:46:02Z</time>
      </trkpt>
      <trkpt lat="49.41941" lon="1.18961">
        <ele>66</ele>
        <time>2017-08-08T16:46:02Z</time>
      </trkpt>
      <trkpt lat="49.41937" lon="1.18958">
        <ele>69</ele>
        <time>2017-08-08T16:46:50Z</time>
      </trkpt>
      <trkpt lat="49.41882" lon="1.18932">
        <ele>69</ele>
        <time>2017-08-08T16:46:50Z</time>
      </trkpt>
      <trkpt lat="49.41882" lon="1.18932">
        <ele>69</ele>
        <time>2017-08-08T16:46:50Z</time>
      </trkpt>
      <trkpt lat="49.41881" lon="1.18931">
        <ele>69</ele>
        <time>2017-08-08T16:46:50Z</time>
      </trkpt>
      <trkpt lat="49.41881" lon="1.18931">
        <ele>69</ele>
        <time>2017-08-08T16:47:06Z</time>
      </trkpt>
      <trkpt lat="49.41875" lon="1.18914">
        <ele>69</ele>
        <time>2017-08-08T16:47:06Z</time>
      </trkpt>
      <trkpt lat="49.41869" lon="1.189">
        <ele>53</ele>
        <time>2017-08-08T16:47:06Z</time>
      </trkpt>
      <trkpt lat="49.41867" lon="1.18894">
        <ele>53</ele>
        <time>2017-08-08T16:47:06Z</time>
      </trkpt>
      <trkpt lat="49.41866" lon="1.18886">
        <ele>53</ele>
        <time>2017-08-08T16:47:22Z</time>
      </trkpt>
      <trkpt lat="49.41865" lon="1.18874">
        <ele>51</ele>
        <time>2017-08-08T16:47:22Z</time>
      </trkpt>
      <trkpt lat="49.41866" lon="1.18868">
        <ele>51</ele>
        <time>2017-08-08T16:47:22Z</time>
      </trkpt>
      <trkpt lat="49.41867" lon="1.18857">
        <ele>51</ele>
        <time>2017-08-08T16:47:22Z</time>
      </trkpt>
      <trkpt lat="49.41866" lon="1.18846">
        <ele>51</ele>
        <time>2017-08-08T16:47:38Z</time>
      </trkpt>
      <trkpt lat="49.41867" lon="1.18838">
        <ele>51</ele>
        <time>2017-08-08T16:47:38Z</time>
      </trkpt>
      <trkpt lat="49.41869" lon="1.18831">
        <ele>51</ele>
        <time>2017-08-08T16:47:38Z</time>
      </trkpt>
      <trkpt lat="49.41869" lon="1.18824">
        <ele>51</ele>
        <time>2017-08-08T16:47:38Z</time>
      </trkpt>
      <trkpt lat="49.41871" lon="1.18817">
        <ele>51</ele>
        <time>2017-08-08T16:47:54Z</time>
      </trkpt>
      <trkpt lat="49.41872" lon="1.18811">
        <ele>51</ele>
        <time>2017-08-08T16:47:54Z</time>
      </trkpt>
      <trkpt lat="49.41873" lon="1.18806">
        <ele>51</ele>
        <time>2017-08-08T16:47:54Z</time>
      </trkpt>
      <trkpt lat="49.41872" lon="1.18798">
        <ele>51</ele>
        <time>2017-08-08T16:47:54Z</time>
      </trkpt>
      <trkpt lat="49.41876" lon="1.18788">
        <ele>62</ele>
        <time>2017-08-08T16:48:11Z</time>
      </trkpt>
      <trkpt lat="49.41878" lon="1.1878">
        <ele>62</ele>
        <time>2017-08-08T16:48:11Z</time>
      </trkpt>
      <trkpt lat="49.41878" lon="1.18774">
        <ele>62</ele>
        <time>2017-08-08T16:48:11Z</time>
      </trkpt>
      <trkpt lat="49.4188" lon="1.18765">
        <ele>62</ele>
        <time>2017-08-08T16:48:11Z</time>
      </trkpt>
      <trkpt lat="49.41881" lon="1.1876">
        <ele>62</ele>
        <time>2017-08-08T16:48:27Z</time>
      </trkpt>
      <trkpt lat="49.41882" lon="1.18753">
        <ele>62</ele>
        <time>2017-08-08T16:48:27Z</time>
      </trkpt>
      <trkpt lat="49.41884" lon="1.18744">
        <ele>62</ele>
        <time>2017-08-08T16:48:27Z</time>
      </trkpt>
      <trkpt lat="49.41888" lon="1.18733">
        <ele>62</ele>
        <time>2017-08-08T16:48:27Z</time>
      </trkpt>
      <trkpt lat="49.41889" lon="1.18727">
        <ele>62</ele>
        <time>2017-08-08T16:48:43Z</time>
      </trkpt>
      <trkpt lat="49.41891" lon="1.18719">
        <ele>62</ele>
        <time>2017-08-08T16:48:43Z</time>
      </trkpt>
      <trkpt lat="49.41893" lon="1.18713">
        <ele>62</ele>
        <time>2017-08-08T16:48:43Z</time>
      </trkpt>
      <trkpt lat="49.41894" lon="1.18706">
        <ele>55</ele>
        <time>2017-08-08T16:48:43Z</time>
      </trkpt>
      <trkpt lat="49.41895" lon="1.18697">
        <ele>55</ele>
        <time>2017-08-08T16:48:58Z</time>
      </trkpt>
      <trkpt lat="49.41895" lon="1.1869">
        <ele>55</ele>
        <time>2017-08-08T16:48:58Z</time>
      </trkpt>
      <trkpt lat="49.41894" lon="1.18684">
        <ele>55</ele>
        <time>2017-08-08T16:48:58Z</time>
      </trkpt>
      <trkpt lat="49.41893" lon="1.18676">
        <ele>55</ele>
        <time>2017-08-08T16:48:58Z</time>
      </trkpt>
      <trkpt lat="49.41889" lon="1.18664">
        <ele>55</ele>
        <time>2017-08-08T16:49:54Z</time>
      </trkpt>
      <trkpt lat="49.41889" lon="1.18663">
        <ele>55</ele>
        <time>2017-08-08T16:49:54Z</time>
      </trkpt>
      <trkpt lat="49.41891" lon="1.18655">
        <ele>55</ele>
        <time>2017-08-08T16:49:54Z</time>
      </trkpt>
      <trkpt lat="49.41894" lon="1.18646">
        <ele>55</ele>
        <time>2017-08-08T16:49:54Z</time>
      </trkpt>
      <trkpt lat="49.41896" lon="1.18641">
        <ele>55</ele>
        <time>2017-08-08T16:49:54Z</time>
      </trkpt>
      <trkpt lat="49.41899" lon="1.18637">
        <ele>55</ele>
        <time>2017-08-08T16:50:10Z</time>
      </trkpt>
      <trkpt lat="49.419" lon="1.18632">
        <ele>55</ele>
        <time>2017-08-08T16:50:10Z</time>
      </trkpt>
      <trkpt lat="49.41903" lon="1.18626">
        <ele>55</ele>
        <time>2017-08-08T16:50:10Z</time>
      </trkpt>
      <trkpt lat="49.41905" lon="1.18622">
        <ele>48</ele>
        <time>2017-08-08T16:50:10Z</time>
      </trkpt>
      <trkpt lat="49.41908" lon="1.18618">
        <ele>48</ele>
        <time>2017-08-08T16:50:25Z</time>
      </trkpt>
      <trkpt lat="49.41912" lon="1.18613">
        <ele>48</ele>
        <time>2017-08-08T16:50:25Z</time>
      </trkpt>
      <trkpt lat="49.41914" lon="1.18607">
        <ele>48</ele>
        <time>2017-08-08T16:50:25Z</time>
      </trkpt>
      <trkpt lat="49.41912" lon="1.18602">
        <ele>48</ele>
        <time>2017-08-08T16:50:25Z</time>
      </trkpt>
      <trkpt lat="49.4191" lon="1.18597">
        <ele>48</ele>
        <time>2017-08-08T16:50:41Z</time>
      </trkpt>
      <trkpt lat="49.41912" lon="1.1859">
        <ele>48</ele>
        <time>2017-08-08T16:50:41Z</time>
      </trkpt>
      <trkpt lat="49.41915" lon="1.18582">
        <ele>48</ele>
        <time>2017-08-08T16:50:41Z</time>
      </trkpt>
      <trkpt lat="49.41917" lon="1.18578">
        <ele>48</ele>
        <time>2017-08-08T16:50:41Z</time>
      </trkpt>
      <trkpt lat="49.41919" lon="1.1857">
        <ele>48</ele>
        <time>2017-08-08T16:50:59Z</time>
      </trkpt>
      <trkpt lat="49.4192" lon="1.18564">
        <ele>48</ele>
        <time>2017-08-08T16:50:59Z</time>
      </trkpt>
      <trkpt lat="49.41918" lon="1.18557">
        <ele>48</ele>
        <time>2017-08-08T16:50:59Z</time>
      </trkpt>
      <trkpt lat="49.41912" lon="1.18551">
        <ele>48</ele>
        <time>2017-08-08T16:50:59Z</time>
      </trkpt>
      <trkpt lat="49.41855" lon="1.18514">
        <ele>47</ele>
        <time>2017-08-08T16:52:01Z</time>
      </trkpt>
      <trkpt lat="49.41852" lon="1.18505">
        <ele>47</ele>
        <time>2017-08-08T16:52:01Z</time>
      </trkpt>
      <trkpt lat="49.41851" lon="1.18497">
        <ele>47</ele>
        <time>2017-08-08T16:52:01Z</time>
      </trkpt>
      <trkpt lat="49.41849" lon="1.18486">
        <ele>47</ele>
        <time>2017-08-08T16:52:01Z</time>
      </trkpt>
      <trkpt lat="49.41849" lon="1.18481">
        <ele>47</ele>
        <time>2017-08-08T16:52:01Z</time>
      </trkpt>
      <trkpt lat="49.41851" lon="1.18474">
        <ele>47</ele>
        <time>2017-08-08T16:52:18Z</time>
      </trkpt>
      <trkpt lat="49.41855" lon="1.18466">
        <ele>47</ele>
        <time>2017-08-08T16:52:18Z</time>
      </trkpt>
      <trkpt lat="49.41858" lon="1.18459">
        <ele>47</ele>
        <time>2017-08-08T16:52:18Z</time>
      </trkpt>
      <trkpt lat="49.4186" lon="1.18453">
        <ele>48</ele>
        <time>2017-08-08T16:52:18Z</time>
      </trkpt>
      <trkpt lat="49.41863" lon="1.18448">
        <ele>48</ele>
        <time>2017-08-08T16:52:34Z</time>
      </trkpt>
      <trkpt lat="49.41867" lon="1.18441">
        <ele>48</ele>
        <time>2017-08-08T16:52:34Z</time>
      </trkpt>
      <trkpt lat="49.41873" lon="1.18434">
        <ele>48</ele>
        <time>2017-08-08T16:52:34Z</time>
      </trkpt>
      <trkpt lat="49.41877" lon="1.18429">
        <ele>45</ele>
        <time>2017-08-08T16:52:34Z</time>
      </trkpt>
      <trkpt lat="49.41879" lon="1.18424">
        <ele>45</ele>
        <time>2017-08-08T16:52:51Z</time>
      </trkpt>
      <trkpt lat="49.41883" lon="1.18415">
        <ele>45</ele>
        <time>2017-08-08T16:52:51Z</time>
      </trkpt>
      <trkpt lat="49.41885" lon="1.18411">
        <ele>45</ele>
        <time>2017-08-08T16:52:51Z</time>
      </trkpt>
      <trkpt lat="49.41886" lon="1.18403">
        <ele>45</ele>
        <time>2017-08-08T16:52:51Z</time>
      </trkpt>
      <trkpt lat="49.41885" lon="1.18394">
        <ele>45</ele>
        <time>2017-08-08T16:53:07Z</time>
      </trkpt>
      <trkpt lat="49.41884" lon="1.18388">
        <ele>45</ele>
        <time>2017-08-08T16:53:07Z</time>
      </trkpt>
      <trkpt lat="49.41883" lon="1.18384">
        <ele>45</ele>
        <time>2017-08-08T16:53:07Z</time>
      </trkpt>
      <trkpt lat="49.4188" lon="1.18376">
        <ele>45</ele>
        <time>2017-08-08T16:53:07Z</time>
      </trkpt>
      <trkpt lat="49.41878" lon="1.18371">
        <ele>45</ele>
        <time>2017-08-08T16:53:23Z</time>
      </trkpt>
      <trkpt lat="49.41875" lon="1.18365">
        <ele>51</ele>
        <time>2017-08-08T16:53:23Z</time>
      </trkpt>
      <trkpt lat="49.41874" lon="1.18358">
        <ele>51</ele>
        <time>2017-08-08T16:53:23Z</time>
      </trkpt>
      <trkpt lat="49.41871" lon="1.1835">
        <ele>51</ele>
        <time>2017-08-08T16:53:23Z</time>
      </trkpt>
      <trkpt lat="49.41867" lon="1.18343">
        <ele>51</ele>
        <time>2017-08-08T16:53:39Z</time>
      </trkpt>
      <trkpt lat="49.41865" lon="1.18338">
        <ele>51</ele>
        <time>2017-08-08T16:53:39Z</time>
      </trkpt>
      <trkpt lat="49.41862" lon="1.18332">
        <ele>51</ele>
        <time>2017-08-08T16:53:39Z</time>
      </trkpt>
      <trkpt lat="49.41859" lon="1.18324">
        <ele>51</ele>
        <time>2017-08-08T16:53:39Z</time>
      </trkpt>
      <trkpt lat="49.41855" lon="1.18322">
        <ele>51</ele>
        <time>2017-08-08T16:53:54Z</time>
      </trkpt>
      <trkpt lat="49.41852" lon="1.18315">
        <ele>51</ele>
        <time>2017-08-08T16:53:54Z</time>
      </trkpt>
      <trkpt lat="49.41849" lon="1.18311">
        <ele>51</ele>
        <time>2017-08-08T16:53:54Z</time>
      </trkpt>
      <trkpt lat="49.41847" lon="1.18307">
        <ele>51</ele>
        <time>2017-08-08T16:53:54Z</time>
      </trkpt>
      <trkpt lat="49.41842" lon="1.18301">
        <ele>51</ele>
        <time>2017-08-08T16:54:10Z</time>
      </trkpt>
      <trkpt lat="49.41838" lon="1.18296">
        <ele>51</ele>
        <time>2017-08-08T16:54:10Z</time>
      </trkpt>
      <trkpt lat="49.41834" lon="1.18291">
        <ele>58</ele>
        <time>2017-08-08T16:54:10Z</time>
      </trkpt>
      <trkpt lat="49.41832" lon="1.18288">
        <ele>58</ele>
        <time>2017-08-08T16:54:10Z</time>
      </trkpt>
      <trkpt lat="49.41827" lon="1.18283">
        <ele>58</ele>
        <time>2017-08-08T16:54:26Z</time>
      </trkpt>
      <trkpt lat="49.41823" lon="1.1828">
        <ele>58</ele>
        <time>2017-08-08T16:54:26Z</time>
      </trkpt>
      <trkpt lat="49.41819" lon="1.18277">
        <ele>58</ele>
        <time>2017-08-08T16:54:26Z</time>
      </trkpt>
      <trkpt lat="49.41815" lon="1.18272">
        <ele>58</ele>
        <time>2017-08-08T16:54:26Z</time>
      </trkpt>
      <trkpt lat="49.41813" lon="1.18269">
        <ele>58</ele>
        <time>2017-08-08T16:54:43Z</time>
      </trkpt>
      <trkpt lat="49.41808" lon="1.18263">
        <ele>58</ele>
        <time>2017-08-08T16:54:43Z</time>
      </trkpt>
      <trkpt lat="49.41805" lon="1.1826">
        <ele>58</ele>
        <time>2017-08-08T16:54:43Z</time>
      </trkpt>
      <trkpt lat="49.41801" lon="1.18256">
        <ele>58</ele>
        <time>2017-08-08T16:54:43Z</time>
      </trkpt>
      <trkpt lat="49.41798" lon="1.18251">
        <ele>58</ele>
        <time>2017-08-08T16:54:59Z</time>
      </trkpt>
      <trkpt lat="49.41795" lon="1.18247">
        <ele>58</ele>
        <time>2017-08-08T16:54:59Z</time>
      </trkpt>
      <trkpt lat="49.41792" lon="1.18244">
        <ele>58</ele>
        <time>2017-08-08T16:54:59Z</time>
      </trkpt>
      <trkpt lat="49.41788" lon="1.1824">
        <ele>78</ele>
        <time>2017-08-08T16:54:59Z</time>
      </trkpt>
      <trkpt lat="49.41784" lon="1.18236">
        <ele>78</ele>
        <time>2017-08-08T16:55:15Z</time>
      </trkpt>
      <trkpt lat="49.4178" lon="1.18234">
        <ele>78</ele>
        <time>2017-08-08T16:55:15Z</time>
      </trkpt>
      <trkpt lat="49.41777" lon="1.18232">
        <ele>78</ele>
        <time>2017-08-08T16:55:15Z</time>
      </trkpt>
      <trkpt lat="49.41773" lon="1.18229">
        <ele>78</ele>
        <time>2017-08-08T16:55:15Z</time>
      </trkpt>
      <trkpt lat="49.41769" lon="1.18229">
        <ele>78</ele>
        <time>2017-08-08T16:55:34Z</time>
      </trkpt>
      <trkpt lat="49.41766" lon="1.18228">
        <ele>78</ele>
        <time>2017-08-08T16:55:34Z</time>
      </trkpt>
      <trkpt lat="49.41764" lon="1.18226">
        <ele>78</ele>
        <time>2017-08-08T16:55:34Z</time>
      </trkpt>
      <trkpt lat="49.41762" lon="1.18223">
        <ele>78</ele>
        <time>2017-08-08T16:55:34Z</time>
      </trkpt>
      <trkpt lat="49.41758" lon="1.18219">
        <ele>78</ele>
        <time>2017-08-08T16:55:34Z</time>
      </trkpt>
      <trkpt lat="49.41755" lon="1.18216">
        <ele>78</ele>
        <time>2017-08-08T16:55:54Z</time>
      </trkpt>
      <trkpt lat="49.41753" lon="1.18213">
        <ele>78</ele>
        <time>2017-08-08T16:55:54Z</time>
      </trkpt>
      <trkpt lat="49.4175" lon="1.18211">
        <ele>78</ele>
        <time>2017-08-08T16:55:54Z</time>
      </trkpt>
      <trkpt lat="49.41749" lon="1.18209">
        <ele>78</ele>
        <time>2017-08-08T16:55:54Z</time>
      </trkpt>
      <trkpt lat="49.41746" lon="1.18206">
        <ele>85</ele>
        <time>2017-08-08T16:55:54Z</time>
      </trkpt>
      <trkpt lat="49.41743" lon="1.18203">
        <ele>85</ele>
        <time>2017-08-08T16:56:54Z</time>
      </trkpt>
      <trkpt lat="49.4174" lon="1.18199">
        <ele>85</ele>
        <time>2017-08-08T16:56:54Z</time>
      </trkpt>
      <trkpt lat="49.41737" lon="1.18196">
        <ele>85</ele>
        <time>2017-08-08T16:56:54Z</time>
      </trkpt>
      <trkpt lat="49.41792" lon="1.18269">
        <ele>58</ele>
        <time>2017-08-08T16:56:54Z</time>
      </trkpt>
      <trkpt lat="49.41784" lon="1.18257">
        <ele>78</ele>
        <time>2017-08-08T16:58:06Z</time>
      </trkpt>
      <trkpt lat="49.41784" lon="1.18257">
        <ele>78</ele>
        <time>2017-08-08T16:58:06Z</time>
      </trkpt>
      <trkpt lat="49.41784" lon="1.18257">
        <ele>78</ele>
        <time>2017-08-08T16:58:06Z</time>
      </trkpt>
      <trkpt lat="49.41784" lon="1.18256">
        <ele>78</ele>
        <time>2017-08-08T16:58:06Z</time>
      </trkpt>
      <trkpt lat="49.41773" lon="1.18237">
        <ele>78</ele>
        <time>2017-08-08T16:58:06Z</time>
      </trkpt>
      <trkpt lat="49.41775" lon="1.18243">
        <ele>78</ele>
        <time>2017-08-08T16:58:22Z</time>
      </trkpt>
      <trkpt lat="49.41772" lon="1.18244">
        <ele>78</ele>
        <time>2017-08-08T16:58:22Z</time>
      </trkpt>
      <trkpt lat="49.4176" lon="1.18234">
        <ele>78</ele>
        <time>2017-08-08T16:58:22Z</time>
      </trkpt>
      <trkpt lat="49.4176" lon="1.18232">
        <ele>78</ele>
        <time>2017-08-08T16:58:22Z</time>
      </trkpt>
      <trkpt lat="49.41763" lon="1.18235">
        <ele>78</ele>
        <time>2017-08-08T16:58:39Z</time>
      </trkpt>
      <trkpt lat="49.41763" lon="1.1824">
        <ele>78</ele>
        <time>2017-08-08T16:58:39Z</time>
      </trkpt>
      <trkpt lat="49.41762" lon="1.18245">
        <ele>78</ele>
        <time>2017-08-08T16:58:39Z</time>
      </trkpt>
      <trkpt lat="49.41759" lon="1.18249">
        <ele>78</ele>
        <time>2017-08-08T16:58:39Z</time>
      </trkpt>
      <trkpt lat="49.41754" lon="1.18263">
        <ele>78</ele>
        <time>2017-08-08T16:59:13Z</time>
      </trkpt>
      <trkpt lat="49.4175" lon="1.18261">
        <ele>78</ele>
        <time>2017-08-08T16:59:13Z</time>
      </trkpt>
      <trkpt lat="49.41747" lon="1.18262">
        <ele>78</ele>
        <time>2017-08-08T16:59:13Z</time>
      </trkpt>
      <trkpt lat="49.41744" lon="1.18264">
        <ele>78</ele>
        <time>2017-08-08T16:59:13Z</time>
      </trkpt>
      <trkpt lat="49.41741" lon="1.18266">
        <ele>78</ele>
        <time>2017-08-08T16:59:13Z</time>
      </trkpt>
      <trkpt lat="49.41738" lon="1.18267">
        <ele>78</ele>
        <time>2017-08-08T16:59:29Z</time>
      </trkpt>
      <trkpt lat="49.41734" lon="1.18266">
        <ele>78</ele>
        <time>2017-08-08T16:59:29Z</time>
      </trkpt>
      <trkpt lat="49.41731" lon="1.18266">
        <ele>78</ele>
        <time>2017-08-08T16:59:29Z</time>
      </trkpt>
      <trkpt lat="49.41727" lon="1.18266">
        <ele>78</ele>
        <time>2017-08-08T16:59:29Z</time>
      </trkpt>
      <trkpt lat="49.41724" lon="1.18266">
        <ele>78</ele>
        <time>2017-08-08T16:59:45Z</time>
      </trkpt>
      <trkpt lat="49.41721" lon="1.18266">
        <ele>78</ele>
        <time>2017-08-08T16:59:45Z</time>
      </trkpt>
      <trkpt lat="49.41718" lon="1.18266">
        <ele>78</ele>
        <time>2017-08-08T16:59:45Z</time>
      </trkpt>
      <trkpt lat="49.41715" lon="1.18266">
        <ele>78</ele>
        <time>2017-08-08T16:59:45Z</time>
      </trkpt>
      <trkpt lat="49.41711" lon="1.18262">
        <ele>78</ele>
        <time>2017-08-08T17:00:13Z</time>
      </trkpt>
      <trkpt lat="49.41709" lon="1.18262">
        <ele>78</ele>
        <time>2017-08-08T17:00:13Z</time>
      </trkpt>
      <trkpt lat="49.41704" lon="1.18262">
        <ele>97</ele>
        <time>2017-08-08T17:00:13Z</time>
      </trkpt>
      <trkpt lat="49.41701" lon="1.1826">
        <ele>97</ele>
        <time>2017-08-08T17:00:13Z</time>
      </trkpt>
      <trkpt lat="49.41698" lon="1.18259">
        <ele>97</ele>
        <time>2017-08-08T17:00:13Z</time>
      </trkpt>
      <trkpt lat="49.41695" lon="1.18259">
        <ele>97</ele>
        <time>2017-08-08T17:00:33Z</time>
      </trkpt>
      <trkpt lat="49.41692" lon="1.18259">
        <ele>97</ele>
        <time>2017-08-08T17:00:33Z</time>
      </trkpt>
      <trkpt lat="49.41689" lon="1.1826">
        <ele>97</ele>
        <time>2017-08-08T17:00:33Z</time>
      </trkpt>
      <trkpt lat="49.41686" lon="1.18259">
        <ele>97</ele>
        <time>2017-08-08T17:00:33Z</time>
      </trkpt>
      <trkpt lat="49.41683" lon="1.18259">
        <ele>97</ele>
        <time>2017-08-08T17:00:33Z</time>
      </trkpt>
      <trkpt lat="49.4168" lon="1.18258">
        <ele>97</ele>
        <time>2017-08-08T17:00:53Z</time>
      </trkpt>
      <trkpt lat="49.41677" lon="1.18258">
        <ele>97</ele>
        <time>2017-08-08T17:00:53Z</time>
      </trkpt>
      <trkpt lat="49.41675" lon="1.18258">
        <ele>97</ele>
        <time>2017-08-08T17:00:53Z</time>
      </trkpt>
      <trkpt lat="49.41672" lon="1.18257">
        <ele>97</ele>
        <time>2017-08-08T17:00:53Z</time>
      </trkpt>
      <trkpt lat="49.41669" lon="1.18257">
        <ele>97</ele>
        <time>2017-08-08T17:00:53Z</time>
      </trkpt>
      <trkpt lat="49.41666" lon="1.18257">
        <ele>97</ele>
        <time>2017-08-08T17:01:47Z</time>
      </trkpt>
      <trkpt lat="49.41663" lon="1.18256">
        <ele>97</ele>
        <time>2017-08-08T17:01:47Z</time>
      </trkpt>
      <trkpt lat="49.4166" lon="1.18255">
        <ele>97</ele>
        <time>2017-08-08T17:01:47Z</time>
      </trkpt>
      <trkpt lat="49.41658" lon="1.18255">
        <ele>97</ele>
        <time>2017-08-08T17:01:47Z</time>
      </trkpt>
      <trkpt lat="49.41631" lon="1.1826">
        <ele>97</ele>
        <time>2017-08-08T17:01:47Z</time>
      </trkpt>
      <trkpt lat="49.41629" lon="1.18255">
        <ele>97</ele>
        <time>2017-08-08T17:02:41Z</time>
      </trkpt>
      <trkpt lat="49.41629" lon="1.18255">
        <ele>97</ele>
        <time>2017-08-08T17:02:41Z</time>
      </trkpt>
      <trkpt lat="49.41629" lon="1.18255">
        <ele>97</ele>
        <time>2017-08-08T17:02:41Z</time>
      </trkpt>
      <trkpt lat="49.41629" lon="1.18255">
        <ele>97</ele>
        <time>2017-08-08T17:02:41Z</time>
      </trkpt>
      <trkpt lat="49.41619" lon="1.18239">
        <ele>111</ele>
        <time>2017-08-08T17:02:41Z</time>
      </trkpt>
      <trkpt lat="49.41615" lon="1.18239">
        <ele>111</ele>
        <time>2017-08-08T17:02:57Z</time>
      </trkpt>
      <trkpt lat="49.41606" lon="1.18238">
        <ele>111</ele>
        <time>2017-08-08T17:02:57Z</time>
      </trkpt>
      <trkpt lat="49.41602" lon="1.18235">
        <ele>111</ele>
        <time>2017-08-08T17:02:57Z</time>
      </trkpt>
      <trkpt lat="49.41597" lon="1.18231">
        <ele>111</ele>
        <time>2017-08-08T17:02:57Z</time>
      </trkpt>
      <trkpt lat="49.41592" lon="1.18233">
        <ele>111</ele>
        <time>2017-08-08T17:03:13Z</time>
      </trkpt>
      <trkpt lat="49.41588" lon="1.18232">
        <ele>111</ele>
        <time>2017-08-08T17:03:13Z</time>
      </trkpt>
      <trkpt lat="49.41581" lon="1.18235">
        <ele>111</ele>
        <time>2017-08-08T17:03:13Z</time>
      </trkpt>
      <trkpt lat="49.41577" lon="1.18229">
        <ele>111</ele>
        <time>2017-08-08T17:03:13Z</time>
      </trkpt>
      <trkpt lat="49.41575" lon="1.18225">
        <ele>111</ele>
        <time>2017-08-08T17:03:29Z</time>
      </trkpt>
      <trkpt lat="49.41572" lon="1.1822">
        <ele>111</ele>
        <time>2017-08-08T17:03:29Z</time>
      </trkpt>
      <trkpt lat="49.41563" lon="1.18211">
        <ele>111</ele>
        <time>2017-08-08T17:03:29Z</time>
      </trkpt>
      <trkpt lat="49.41551" lon="1.18211">
        <ele>111</ele>
        <time>2017-08-08T17:03:29Z</time>
      </trkpt>
      <trkpt lat="49.41545" lon="1.18195">
        <ele>128</ele>
        <time>2017-08-08T17:04:05Z</time>
      </trkpt>
      <trkpt lat="49.41543" lon="1.18195">
        <ele>128</ele>
        <time>2017-08-08T17:04:05Z</time>
      </trkpt>
      <trkpt lat="49.41542" lon="1.18193">
        <ele>133</ele>
        <time>2017-08-08T17:04:05Z</time>
      </trkpt>
      <trkpt lat="49.41539" lon="1.1819">
        <ele>133</ele>
        <time>2017-08-08T17:04:05Z</time>
      </trkpt>
      <trkpt lat="49.41537" lon="1.18187">
        <ele>133</ele>
        <time>2017-08-08T17:04:05Z</time>
      </trkpt>
      <trkpt lat="49.41534" lon="1.18184">
        <ele>133</ele>
        <time>2017-08-08T17:04:21Z</time>
      </trkpt>
      <trkpt lat="49.41531" lon="1.18181">
        <ele>133</ele>
        <time>2017-08-08T17:04:21Z</time>
      </trkpt>
      <trkpt lat="49.41528" lon="1.18179">
        <ele>133</ele>
        <time>2017-08-08T17:04:21Z</time>
      </trkpt>
      <trkpt lat="49.41526" lon="1.18175">
        <ele>133</ele>
        <time>2017-08-08T17:04:21Z</time>
      </trkpt>
      <trkpt lat="49.41524" lon="1.18172">
        <ele>133</ele>
        <time>2017-08-08T17:04:37Z</time>
      </trkpt>
      <trkpt lat="49.41521" lon="1.18169">
        <ele>133</ele>
        <time>2017-08-08T17:04:37Z</time>
      </trkpt>
      <trkpt lat="49.41518" lon="1.18166">
        <ele>133</ele>
        <time>2017-08-08T17:04:37Z</time>
      </trkpt>
      <trkpt lat="49.41516" lon="1.18164">
        <ele>133</ele>
        <time>2017-08-08T17:04:37Z</time>
      </trkpt>
      <trkpt lat="49.41513" lon="1.18161">
        <ele>133</ele>
        <time>2017-08-08T17:04:53Z</time>
      </trkpt>
      <trkpt lat="49.41511" lon="1.18158">
        <ele>133</ele>
        <time>2017-08-08T17:04:53Z</time>
      </trkpt>
      <trkpt lat="49.41508" lon="1.18154">
        <ele>133</ele>
        <time>2017-08-08T17:04:53Z</time>
      </trkpt>
      <trkpt lat="49.41506" lon="1.18151">
        <ele>133</ele>
        <time>2017-08-08T17:04:53Z</time>
      </trkpt>
      <trkpt lat="49.41503" lon="1.18148">
        <ele>133</ele>
        <time>2017-08-08T17:05:09Z</time>
      </trkpt>
      <trkpt lat="49.41501" lon="1.18145">
        <ele>133</ele>
        <time>2017-08-08T17:05:09Z</time>
      </trkpt>
      <trkpt lat="49.41498" lon="1.18142">
        <ele>133</ele>
        <time>2017-08-08T17:05:09Z</time>
      </trkpt>
      <trkpt lat="49.41496" lon="1.18139">
        <ele>133</ele>
        <time>2017-08-08T17:05:09Z</time>
      </trkpt>
      <trkpt lat="49.41493" lon="1.18137">
        <ele>133</ele>
        <time>2017-08-08T17:05:29Z</time>
      </trkpt>
      <trkpt lat="49.4149" lon="1.18134">
        <ele>133</ele>
        <time>2017-08-08T17:05:29Z</time>
      </trkpt>
      <trkpt lat="49.41488" lon="1.18132">
        <ele>133</ele>
        <time>2017-08-08T17:05:29Z</time>
      </trkpt>
      <trkpt lat="49.41486" lon="1.18129">
        <ele>133</ele>
        <time>2017-08-08T17:05:29Z</time>
      </trkpt>
      <trkpt lat="49.41484" lon="1.18126">
        <ele>133</ele>
        <time>2017-08-08T17:05:29Z</time>
      </trkpt>
      <trkpt lat="49.41482" lon="1.18123">
        <ele>140</ele>
        <time>2017-08-08T17:05:45Z</time>
      </trkpt>
      <trkpt lat="49.4148" lon="1.18119">
        <ele>140</ele>
        <time>2017-08-08T17:05:45Z</time>
      </trkpt>
      <trkpt lat="49.41478" lon="1.18115">
        <ele>140</ele>
        <time>2017-08-08T17:05:45Z</time>
      </trkpt>
      <trkpt lat="49.41476" lon="1.18111">
        <ele>140</ele>
        <time>2017-08-08T17:05:45Z</time>
      </trkpt>
      <trkpt lat="49.41473" lon="1.18108">
        <ele>140</ele>
        <time>2017-08-08T17:06:01Z</time>
      </trkpt>
      <trkpt lat="49.4147" lon="1.18107">
        <ele>140</ele>
        <time>2017-08-08T17:06:01Z</time>
      </trkpt>
      <trkpt lat="49.41467" lon="1.18105">
        <ele>140</ele>
        <time>2017-08-08T17:06:01Z</time>
      </trkpt>
      <trkpt lat="49.41464" lon="1.18103">
        <ele>140</ele>
        <time>2017-08-08T17:06:01Z</time>
      </trkpt>
      <trkpt lat="49.41462" lon="1.181">
        <ele>140</ele>
        <time>2017-08-08T17:06:49Z</time>
      </trkpt>
      <trkpt lat="49.4146" lon="1.18097">
        <ele>140</ele>
        <time>2017-08-08T17:06:49Z</time>
      </trkpt>
      <trkpt lat="49.41439" lon="1.18086">
        <ele>140</ele>
        <time>2017-08-08T17:06:49Z</time>
      </trkpt>
      <trkpt lat="49.41435" lon="1.18084">
        <ele>140</ele>
        <time>2017-08-08T17:06:49Z</time>
      </trkpt>
      <trkpt lat="49.41415" lon="1.18088">
        <ele>140</ele>
        <time>2017-08-08T17:07:53Z</time>
      </trkpt>
      <trkpt lat="49.414" lon="1.18072">
        <ele>140</ele>
        <time>2017-08-08T17:07:53Z</time>
      </trkpt>
      <trkpt lat="49.414" lon="1.18071">
        <ele>140</ele>
        <time>2017-08-08T17:07:53Z</time>
      </trkpt>
      <trkpt lat="49.41394" lon="1.18075">
        <ele>140</ele>
        <time>2017-08-08T17:07:53Z</time>
      </trkpt>
      <trkpt lat="49.41392" lon="1.18077">
        <ele>140</ele>
        <time>2017-08-08T17:07:53Z</time>
      </trkpt>
      <trkpt lat="49.41387" lon="1.18073">
        <ele>140</ele>
        <time>2017-08-08T17:09:21Z</time>
      </trkpt>
      <trkpt lat="49.41387" lon="1.18073">
        <ele>140</ele>
        <time>2017-08-08T17:09:21Z</time>
      </trkpt>
      <trkpt lat="49.41387" lon="1.18073">
        <ele>140</ele>
        <time>2017-08-08T17:09:21Z</time>
      </trkpt>
      <trkpt lat="49.41384" lon="1.18072">
        <ele>140</ele>
        <time>2017-08-08T17:09:21Z</time>
      </trkpt>
      <trkpt lat="49.4138" lon="1.1807">
        <ele>140</ele>
        <time>2017-08-08T17:09:21Z</time>
      </trkpt>
      <trkpt lat="49.41375" lon="1.18065">
        <ele>139</ele>
        <time>2017-08-08T17:09:38Z</time>
      </trkpt>
      <trkpt lat="49.41371" lon="1.18059">
        <ele>139</ele>
        <time>2017-08-08T17:09:38Z</time>
      </trkpt>
      <trkpt lat="49.41368" lon="1.18056">
        <ele>139</ele>
        <time>2017-08-08T17:09:38Z</time>
      </trkpt>
      <trkpt lat="49.41364" lon="1.1805">
        <ele>139</ele>
        <time>2017-08-08T17:09:38Z</time>
      </trkpt>
      <trkpt lat="49.4136" lon="1.18042">
        <ele>139</ele>
        <time>2017-08-08T17:09:54Z</time>
      </trkpt>
      <trkpt lat="49.41357" lon="1.18039">
        <ele>139</ele>
        <time>2017-08-08T17:09:54Z</time>
      </trkpt>
      <trkpt lat="49.41353" lon="1.18034">
        <ele>139</ele>
        <time>2017-08-08T17:09:54Z</time>
      </trkpt>
      <trkpt lat="49.41351" lon="1.18028">
        <ele>139</ele>
        <time>2017-08-08T17:09:54Z</time>
      </trkpt>
      <trkpt lat="49.41347" lon="1.18022">
        <ele>139</ele>
        <time>2017-08-08T17:10:10Z</time>
      </trkpt>
      <trkpt lat="49.41343" lon="1.18018">
        <ele>139</ele>
        <time>2017-08-08T17:10:10Z</time>
      </trkpt>
      <trkpt lat="49.4134" lon="1.18015">
        <ele>139</ele>
        <time>2017-08-08T17:10:10Z</time>
      </trkpt>
      <trkpt lat="49.41336" lon="1.18011">
        <ele>139</ele>
        <time>2017-08-08T17:10:10Z</time>
      </trkpt>
      <trkpt lat="49.41333" lon="1.18008">
        <ele>139</ele>
        <time>2017-08-08T17:10:25Z</time>
      </trkpt>
      <trkpt lat="49.41329" lon="1.18004">
        <ele>139</ele>
        <time>2017-08-08T17:10:25Z</time>
      </trkpt>
      <trkpt lat="49.41327" lon="1.18">
        <ele>139</ele>
        <time>2017-08-08T17:10:25Z</time>
      </trkpt>
      <trkpt lat="49.41325" lon="1.17996">
        <ele>139</ele>
        <time>2017-08-08T17:10:25Z</time>
      </trkpt>
      <trkpt lat="49.4132" lon="1.17991">
        <ele>139</ele>
        <time>2017-08-08T17:10:42Z</time>
      </trkpt>
      <trkpt lat="49.41316" lon="1.17987">
        <ele>139</ele>
        <time>2017-08-08T17:10:42Z</time>
      </trkpt>
      <trkpt lat="49.41313" lon="1.17985">
        <ele>139</ele>
        <time>2017-08-08T17:10:42Z</time>
      </trkpt>
      <trkpt lat="49.41309" lon="1.17983">
        <ele>139</ele>
        <time>2017-08-08T17:10:42Z</time>
      </trkpt>
      <trkpt lat="49.41304" lon="1.17979">
        <ele>139</ele>
        <time>2017-08-08T17:10:58Z</time>
      </trkpt>
      <trkpt lat="49.41301" lon="1.17976">
        <ele>139</ele>
        <time>2017-08-08T17:10:58Z</time>
      </trkpt>
      <trkpt lat="49.41296" lon="1.17972">
        <ele>139</ele>
        <time>2017-08-08T17:10:58Z</time>
      </trkpt>
      <trkpt lat="49.41294" lon="1.17969">
        <ele>139</ele>
        <time>2017-08-08T17:10:58Z</time>
      </trkpt>
      <trkpt lat="49.41289" lon="1.17962">
        <ele>141</ele>
        <time>2017-08-08T17:11:46Z</time>
      </trkpt>
      <trkpt lat="49.41287" lon="1.17959">
        <ele>141</ele>
        <time>2017-08-08T17:11:46Z</time>
      </trkpt>
      <trkpt lat="49.41259" lon="1.17916">
        <ele>142</ele>
        <time>2017-08-08T17:11:46Z</time>
      </trkpt>
      <trkpt lat="49.41253" lon="1.17914">
        <ele>142</ele>
        <time>2017-08-08T17:11:46Z</time>
      </trkpt>
      <trkpt lat="49.41251" lon="1.17914">
        <ele>142</ele>
        <time>2017-08-08T17:12:02Z</time>
      </trkpt>
      <trkpt lat="49.41251" lon="1.17913">
        <ele>142</ele>
        <time>2017-08-08T17:12:02Z</time>
      </trkpt>
      <trkpt lat="49.41244" lon="1.17907">
        <ele>142</ele>
        <time>2017-08-08T17:12:02Z</time>
      </trkpt>
      <trkpt lat="49.41241" lon="1.17904">
        <ele>142</ele>
        <time>2017-08-08T17:12:02Z</time>
      </trkpt>
      <trkpt lat="49.41234" lon="1.17902">
        <ele>142</ele>
        <time>2017-08-08T17:12:18Z</time>
      </trkpt>
      <trkpt lat="49.4123" lon="1.17897">
        <ele>142</ele>
        <time>2017-08-08T17:12:18Z</time>
      </trkpt>
      <trkpt lat="49.41226" lon="1.17891">
        <ele>142</ele>
        <time>2017-08-08T17:12:18Z</time>
      </trkpt>
      <trkpt lat="49.41224" lon="1.17887">
        <ele>142</ele>
        <time>2017-08-08T17:12:18Z</time>
      </trkpt>
      <trkpt lat="49.41219" lon="1.17883">
        <ele>142</ele>
        <time>2017-08-08T17:12:34Z</time>
      </trkpt>
      <trkpt lat="49.41216" lon="1.17881">
        <ele>142</ele>
        <time>2017-08-08T17:12:34Z</time>
      </trkpt>
      <trkpt lat="49.41212" lon="1.17877">
        <ele>142</ele>
        <time>2017-08-08T17:12:34Z</time>
      </trkpt>
      <trkpt lat="49.41207" lon="1.17874">
        <ele>144</ele>
        <time>2017-08-08T17:12:34Z</time>
      </trkpt>
      <trkpt lat="49.41206" lon="1.17873">
        <ele>144</ele>
        <time>2017-08-08T17:12:50Z</time>
      </trkpt>
      <trkpt lat="49.41203" lon="1.17869">
        <ele>144</ele>
        <time>2017-08-08T17:12:50Z</time>
      </trkpt>
      <trkpt lat="49.412" lon="1.17864">
        <ele>144</ele>
        <time>2017-08-08T17:12:50Z</time>
      </trkpt>
      <trkpt lat="49.41196" lon="1.1786">
        <ele>144</ele>
        <time>2017-08-08T17:12:50Z</time>
      </trkpt>
      <trkpt lat="49.41192" lon="1.17855">
        <ele>144</ele>
        <time>2017-08-08T17:13:07Z</time>
      </trkpt>
      <trkpt lat="49.41187" lon="1.17851">
        <ele>144</ele>
        <time>2017-08-08T17:13:07Z</time>
      </trkpt>
      <trkpt lat="49.41183" lon="1.17847">
        <ele>144</ele>
        <time>2017-08-08T17:13:07Z</time>
      </trkpt>
      <trkpt lat="49.41178" lon="1.17841">
        <ele>144</ele>
        <time>2017-08-08T17:13:07Z</time>
      </trkpt>
      <trkpt lat="49.41175" lon="1.17836">
        <ele>144</ele>
        <time>2017-08-08T17:13:22Z</time>
      </trkpt>
      <trkpt lat="49.41172" lon="1.17831">
        <ele>144</ele>
        <time>2017-08-08T17:13:22Z</time>
      </trkpt>
      <trkpt lat="49.4117" lon="1.17827">
        <ele>144</ele>
        <time>2017-08-08T17:13:22Z</time>
      </trkpt>
      <trkpt lat="49.41166" lon="1.17822">
        <ele>144</ele>
        <time>2017-08-08T17:13:23Z</time>
      </trkpt>
      <trkpt lat="49.41163" lon="1.17818">
        <ele>144</ele>
        <time>2017-08-08T17:13:39Z</time>
      </trkpt>
      <trkpt lat="49.41158" lon="1.17811">
        <ele>144</ele>
        <time>2017-08-08T17:13:39Z</time>
      </trkpt>
      <trkpt lat="49.41156" lon="1.17808">
        <ele>144</ele>
        <time>2017-08-08T17:13:39Z</time>
      </trkpt>
      <trkpt lat="49.41152" lon="1.17802">
        <ele>144</ele>
        <time>2017-08-08T17:13:39Z</time>
      </trkpt>
      <trkpt lat="49.4115" lon="1.17799">
        <ele>144</ele>
        <time>2017-08-08T17:13:54Z</time>
      </trkpt>
      <trkpt lat="49.41147" lon="1.17795">
        <ele>144</ele>
        <time>2017-08-08T17:13:54Z</time>
      </trkpt>
      <trkpt lat="49.41143" lon="1.1779">
        <ele>145</ele>
        <time>2017-08-08T17:13:54Z</time>
      </trkpt>
      <trkpt lat="49.4114" lon="1.17786">
        <ele>145</ele>
        <time>2017-08-08T17:13:54Z</time>
      </trkpt>
      <trkpt lat="49.41137" lon="1.17781">
        <ele>145</ele>
        <time>2017-08-08T17:14:10Z</time>
      </trkpt>
      <trkpt lat="49.41133" lon="1.17774">
        <ele>145</ele>
        <time>2017-08-08T17:14:10Z</time>
      </trkpt>
      <trkpt lat="49.41131" lon="1.1777">
        <ele>145</ele>
        <time>2017-08-08T17:14:10Z</time>
      </trkpt>
      <trkpt lat="49.41129" lon="1.17763">
        <ele>145</ele>
        <time>2017-08-08T17:14:10Z</time>
      </trkpt>
      <trkpt lat="49.41125" lon="1.17756">
        <ele>145</ele>
        <time>2017-08-08T17:14:25Z</time>
      </trkpt>
      <trkpt lat="49.41124" lon="1.17751">
        <ele>148</ele>
        <time>2017-08-08T17:14:25Z</time>
      </trkpt>
      <trkpt lat="49.41123" lon="1.17747">
        <ele>148</ele>
        <time>2017-08-08T17:14:25Z</time>
      </trkpt>
      <trkpt lat="49.41121" lon="1.17743">
        <ele>148</ele>
        <time>2017-08-08T17:14:25Z</time>
      </trkpt>
      <trkpt lat="49.41119" lon="1.17736">
        <ele>148</ele>
        <time>2017-08-08T17:14:43Z</time>
      </trkpt>
      <trkpt lat="49.41116" lon="1.17728">
        <ele>148</ele>
        <time>2017-08-08T17:14:43Z</time>
      </trkpt>
      <trkpt lat="49.41113" lon="1.17722">
        <ele>148</ele>
        <time>2017-08-08T17:14:43Z</time>
      </trkpt>
      <trkpt lat="49.41111" lon="1.17718">
        <ele>148</ele>
        <time>2017-08-08T17:14:43Z</time>
      </trkpt>
      <trkpt lat="49.41109" lon="1.17714">
        <ele>148</ele>
        <time>2017-08-08T17:14:58Z</time>
      </trkpt>
      <trkpt lat="49.41107" lon="1.17707">
        <ele>148</ele>
        <time>2017-08-08T17:14:59Z</time>
      </trkpt>
      <trkpt lat="49.41105" lon="1.17703">
        <ele>148</ele>
        <time>2017-08-08T17:14:59Z</time>
      </trkpt>
      <trkpt lat="49.41102" lon="1.17696">
        <ele>148</ele>
        <time>2017-08-08T17:14:59Z</time>
      </trkpt>
      <trkpt lat="49.41101" lon="1.17692">
        <ele>148</ele>
        <time>2017-08-08T17:15:13Z</time>
      </trkpt>
      <trkpt lat="49.41097" lon="1.17684">
        <ele>148</ele>
        <time>2017-08-08T17:15:13Z</time>
      </trkpt>
      <trkpt lat="49.41094" lon="1.17678">
        <ele>148</ele>
        <time>2017-08-08T17:15:13Z</time>
      </trkpt>
      <trkpt lat="49.41092" lon="1.17672">
        <ele>148</ele>
        <time>2017-08-08T17:15:13Z</time>
      </trkpt>
      <trkpt lat="49.41089" lon="1.17668">
        <ele>148</ele>
        <time>2017-08-08T17:15:32Z</time>
      </trkpt>
      <trkpt lat="49.41087" lon="1.17665">
        <ele>148</ele>
        <time>2017-08-08T17:15:32Z</time>
      </trkpt>
      <trkpt lat="49.41084" lon="1.17659">
        <ele>148</ele>
        <time>2017-08-08T17:15:32Z</time>
      </trkpt>
      <trkpt lat="49.41081" lon="1.17649">
        <ele>148</ele>
        <time>2017-08-08T17:15:32Z</time>
      </trkpt>
      <trkpt lat="49.4108" lon="1.17646">
        <ele>148</ele>
        <time>2017-08-08T17:15:46Z</time>
      </trkpt>
      <trkpt lat="49.41076" lon="1.17641">
        <ele>148</ele>
        <time>2017-08-08T17:15:46Z</time>
      </trkpt>
      <trkpt lat="49.41074" lon="1.17637">
        <ele>148</ele>
        <time>2017-08-08T17:15:46Z</time>
      </trkpt>
      <trkpt lat="49.41069" lon="1.17631">
        <ele>148</ele>
        <time>2017-08-08T17:15:46Z</time>
      </trkpt>
      <trkpt lat="49.41067" lon="1.17625">
        <ele>148</ele>
        <time>2017-08-08T17:16:03Z</time>
      </trkpt>
      <trkpt lat="49.41064" lon="1.1762">
        <ele>149</ele>
        <time>2017-08-08T17:16:03Z</time>
      </trkpt>
      <trkpt lat="49.41061" lon="1.17615">
        <ele>149</ele>
        <time>2017-08-08T17:16:03Z</time>
      </trkpt>
      <trkpt lat="49.41057" lon="1.17608">
        <ele>149</ele>
        <time>2017-08-08T17:16:03Z</time>
      </trkpt>
      <trkpt lat="49.41055" lon="1.17604">
        <ele>149</ele>
        <time>2017-08-08T17:16:50Z</time>
      </trkpt>
      <trkpt lat="49.41024" lon="1.17587">
        <ele>153</ele>
        <time>2017-08-08T17:16:50Z</time>
      </trkpt>
      <trkpt lat="49.41023" lon="1.17576">
        <ele>153</ele>
        <time>2017-08-08T17:16:50Z</time>
      </trkpt>
      <trkpt lat="49.41021" lon="1.17571">
        <ele>153</ele>
        <time>2017-08-08T17:16:50Z</time>
      </trkpt>
      <trkpt lat="49.41016" lon="1.17559">
        <ele>153</ele>
        <time>2017-08-08T17:17:06Z</time>
      </trkpt>
      <trkpt lat="49.41014" lon="1.17554">
        <ele>153</ele>
        <time>2017-08-08T17:17:06Z</time>
      </trkpt>
      <trkpt lat="49.4101" lon="1.17552">
        <ele>153</ele>
        <time>2017-08-08T17:17:06Z</time>
      </trkpt>
      <trkpt lat="49.41006" lon="1.17548">
        <ele>153</ele>
        <time>2017-08-08T17:17:06Z</time>
      </trkpt>
      <trkpt lat="49.41003" lon="1.17545">
        <ele>153</ele>
        <time>2017-08-08T17:17:23Z</time>
      </trkpt>
      <trkpt lat="49.41" lon="1.17542">
        <ele>153</ele>
        <time>2017-08-08T17:17:23Z</time>
      </trkpt>
      <trkpt lat="49.40997" lon="1.17538">
        <ele>154</ele>
        <time>2017-08-08T17:17:23Z</time>
      </trkpt>
      <trkpt lat="49.40994" lon="1.17534">
        <ele>154</ele>
        <time>2017-08-08T17:17:23Z</time>
      </trkpt>
      <trkpt lat="49.4099" lon="1.17529">
        <ele>154</ele>
        <time>2017-08-08T17:17:39Z</time>
      </trkpt>
      <trkpt lat="49.40987" lon="1.17525">
        <ele>154</ele>
        <time>2017-08-08T17:17:39Z</time>
      </trkpt>
      <trkpt lat="49.40984" lon="1.17522">
        <ele>154</ele>
        <time>2017-08-08T17:17:39Z</time>
      </trkpt>
      <trkpt lat="49.40981" lon="1.17518">
        <ele>154</ele>
        <time>2017-08-08T17:17:39Z</time>
      </trkpt>
      <trkpt lat="49.40977" lon="1.17514">
        <ele>154</ele>
        <time>2017-08-08T17:17:55Z</time>
      </trkpt>
      <trkpt lat="49.40975" lon="1.17512">
        <ele>154</ele>
        <time>2017-08-08T17:17:55Z</time>
      </trkpt>
      <trkpt lat="49.40972" lon="1.17509">
        <ele>154</ele>
        <time>2017-08-08T17:17:55Z</time>
      </trkpt>
      <trkpt lat="49.40968" lon="1.17504">
        <ele>154</ele>
        <time>2017-08-08T17:17:55Z</time>
      </trkpt>
      <trkpt lat="49.40965" lon="1.175">
        <ele>154</ele>
        <time>2017-08-08T17:18:10Z</time>
      </trkpt>
      <trkpt lat="49.40959" lon="1.17494">
        <ele>154</ele>
        <time>2017-08-08T17:18:10Z</time>
      </trkpt>
      <trkpt lat="49.40956" lon="1.17491">
        <ele>157</ele>
        <time>2017-08-08T17:18:10Z</time>
      </trkpt>
      <trkpt lat="49.40953" lon="1.17487">
        <ele>157</ele>
        <time>2017-08-08T17:18:10Z</time>
      </trkpt>
      <trkpt lat="49.4095" lon="1.17484">
        <ele>157</ele>
        <time>2017-08-08T17:18:26Z</time>
      </trkpt>
      <trkpt lat="49.40947" lon="1.17482">
        <ele>157</ele>
        <time>2017-08-08T17:18:26Z</time>
      </trkpt>
      <trkpt lat="49.40944" lon="1.17477">
        <ele>157</ele>
        <time>2017-08-08T17:18:26Z</time>
      </trkpt>
      <trkpt lat="49.40941" lon="1.17475">
        <ele>157</ele>
        <time>2017-08-08T17:18:26Z</time>
      </trkpt>
      <trkpt lat="49.40937" lon="1.17471">
        <ele>157</ele>
        <time>2017-08-08T17:18:42Z</time>
      </trkpt>
      <trkpt lat="49.40934" lon="1.17466">
        <ele>157</ele>
        <time>2017-08-08T17:18:42Z</time>
      </trkpt>
      <trkpt lat="49.40931" lon="1.17464">
        <ele>157</ele>
        <time>2017-08-08T17:18:42Z</time>
      </trkpt>
      <trkpt lat="49.40929" lon="1.17461">
        <ele>157</ele>
        <time>2017-08-08T17:18:42Z</time>
      </trkpt>
      <trkpt lat="49.40926" lon="1.17457">
        <ele>158</ele>
        <time>2017-08-08T17:19:03Z</time>
      </trkpt>
      <trkpt lat="49.40923" lon="1.17454">
        <ele>158</ele>
        <time>2017-08-08T17:19:03Z</time>
      </trkpt>
      <trkpt lat="49.4092" lon="1.17452">
        <ele>158</ele>
        <time>2017-08-08T17:19:03Z</time>
      </trkpt>
      <trkpt lat="49.40918" lon="1.17451">
        <ele>158</ele>
        <time>2017-08-08T17:19:03Z</time>
      </trkpt>
      <trkpt lat="49.40914" lon="1.17453">
        <ele>158</ele>
        <time>2017-08-08T17:19:03Z</time>
      </trkpt>
      <trkpt lat="49.40914" lon="1.17456">
        <ele>158</ele>
        <time>2017-08-08T17:19:18Z</time>
      </trkpt>
      <trkpt lat="49.40909" lon="1.17459">
        <ele>157</ele>
        <time>2017-08-08T17:19:18Z</time>
      </trkpt>
      <trkpt lat="49.40906" lon="1.1746">
        <ele>157</ele>
        <time>2017-08-08T17:19:18Z</time>
      </trkpt>
      <trkpt lat="49.40902" lon="1.17462">
        <ele>157</ele>
        <time>2017-08-08T17:19:18Z</time>
      </trkpt>
      <trkpt lat="49.40897" lon="1.17466">
        <ele>157</ele>
        <time>2017-08-08T17:19:34Z</time>
      </trkpt>
      <trkpt lat="49.40893" lon="1.1747">
        <ele>157</ele>
        <time>2017-08-08T17:19:34Z</time>
      </trkpt>
      <trkpt lat="49.40891" lon="1.17473">
        <ele>157</ele>
        <time>2017-08-08T17:19:34Z</time>
      </trkpt>
      <trkpt lat="49.40887" lon="1.17478">
        <ele>157</ele>
        <time>2017-08-08T17:19:34Z</time>
      </trkpt>
      <trkpt lat="49.40884" lon="1.17481">
        <ele>157</ele>
        <time>2017-08-08T17:19:51Z</time>
      </trkpt>
      <trkpt lat="49.4088" lon="1.17485">
        <ele>157</ele>
        <time>2017-08-08T17:19:51Z</time>
      </trkpt>
      <trkpt lat="49.40878" lon="1.17488">
        <ele>157</ele>
        <time>2017-08-08T17:19:51Z</time>
      </trkpt>
      <trkpt lat="49.40872" lon="1.17494">
        <ele>157</ele>
        <time>2017-08-08T17:19:51Z</time>
      </trkpt>
      <trkpt lat="49.40869" lon="1.17496">
        <ele>157</ele>
        <time>2017-08-08T17:20:07Z</time>
      </trkpt>
      <trkpt lat="49.40866" lon="1.17501">
        <ele>157</ele>
        <time>2017-08-08T17:20:07Z</time>
      </trkpt>
      <trkpt lat="49.40862" lon="1.17504">
        <ele>157</ele>
        <time>2017-08-08T17:20:07Z</time>
      </trkpt>
      <trkpt lat="49.40857" lon="1.1751">
        <ele>157</ele>
        <time>2017-08-08T17:20:07Z</time>
      </trkpt>
      <trkpt lat="49.40854" lon="1.17513">
        <ele>157</ele>
        <time>2017-08-08T17:20:22Z</time>
      </trkpt>
      <trkpt lat="49.4085" lon="1.17518">
        <ele>157</ele>
        <time>2017-08-08T17:20:22Z</time>
      </trkpt>
      <trkpt lat="49.40848" lon="1.17521">
        <ele>157</ele>
        <time>2017-08-08T17:20:22Z</time>
      </trkpt>
      <trkpt lat="49.40844" lon="1.17525">
        <ele>157</ele>
        <time>2017-08-08T17:20:22Z</time>
      </trkpt>
      <trkpt lat="49.40841" lon="1.17529">
        <ele>157</ele>
        <time>2017-08-08T17:20:39Z</time>
      </trkpt>
      <trkpt lat="49.40837" lon="1.17534">
        <ele>157</ele>
        <time>2017-08-08T17:20:39Z</time>
      </trkpt>
      <trkpt lat="49.40834" lon="1.17539">
        <ele>157</ele>
        <time>2017-08-08T17:20:39Z</time>
      </trkpt>
      <trkpt lat="49.40829" lon="1.17547">
        <ele>157</ele>
        <time>2017-08-08T17:20:39Z</time>
      </trkpt>
      <trkpt lat="49.40826" lon="1.1755">
        <ele>157</ele>
        <time>2017-08-08T17:20:53Z</time>
      </trkpt>
      <trkpt lat="49.40824" lon="1.17553">
        <ele>157</ele>
        <time>2017-08-08T17:20:53Z</time>
      </trkpt>
      <trkpt lat="49.40819" lon="1.1756">
        <ele>157</ele>
        <time>2017-08-08T17:20:53Z</time>
      </trkpt>
      <trkpt lat="49.40817" lon="1.17563">
        <ele>157</ele>
        <time>2017-08-08T17:20:53Z</time>
      </trkpt>
      <trkpt lat="49.40815" lon="1.17568">
        <ele>157</ele>
        <time>2017-08-08T17:21:42Z</time>
      </trkpt>
      <trkpt lat="49.40812" lon="1.17573">
        <ele>157</ele>
        <time>2017-08-08T17:21:42Z</time>
      </trkpt>
      <trkpt lat="49.40809" lon="1.17578">
        <ele>157</ele>
        <time>2017-08-08T17:21:42Z</time>
      </trkpt>
      <trkpt lat="49.40785" lon="1.17623">
        <ele>158</ele>
        <time>2017-08-08T17:21:42Z</time>
      </trkpt>
      <trkpt lat="49.40777" lon="1.17621">
        <ele>158</ele>
        <time>2017-08-08T17:21:59Z</time>
      </trkpt>
      <trkpt lat="49.40772" lon="1.17628">
        <ele>157</ele>
        <time>2017-08-08T17:21:59Z</time>
      </trkpt>
      <trkpt lat="49.40769" lon="1.17632">
        <ele>157</ele>
        <time>2017-08-08T17:21:59Z</time>
      </trkpt>
      <trkpt lat="49.40765" lon="1.17641">
        <ele>157</ele>
        <time>2017-08-08T17:21:59Z</time>
      </trkpt>
      <trkpt lat="49.40764" lon="1.17644">
        <ele>157</ele>
        <time>2017-08-08T17:22:14Z</time>
      </trkpt>
      <trkpt lat="49.4076" lon="1.17648">
        <ele>157</ele>
        <time>2017-08-08T17:22:14Z</time>
      </trkpt>
      <trkpt lat="49.40758" lon="1.17648">
        <ele>157</ele>
        <time>2017-08-08T17:22:14Z</time>
      </trkpt>
      <trkpt lat="49.40752" lon="1.17646">
        <ele>157</ele>
        <time>2017-08-08T17:22:14Z</time>
      </trkpt>
      <trkpt lat="49.40746" lon="1.17645">
        <ele>157</ele>
        <time>2017-08-08T17:22:30Z</time>
      </trkpt>
      <trkpt lat="49.4074" lon="1.17642">
        <ele>157</ele>
        <time>2017-08-08T17:22:30Z</time>
      </trkpt>
      <trkpt lat="49.40736" lon="1.17638">
        <ele>157</ele>
        <time>2017-08-08T17:22:30Z</time>
      </trkpt>
      <trkpt lat="49.40731" lon="1.17636">
        <ele>157</ele>
        <time>2017-08-08T17:22:30Z</time>
      </trkpt>
      <trkpt lat="49.40728" lon="1.17634">
        <ele>157</ele>
        <time>2017-08-08T17:22:46Z</time>
      </trkpt>
      <trkpt lat="49.40723" lon="1.17632">
        <ele>157</ele>
        <time>2017-08-08T17:22:46Z</time>
      </trkpt>
      <trkpt lat="49.40718" lon="1.17628">
        <ele>157</ele>
        <time>2017-08-08T17:22:46Z</time>
      </trkpt>
      <trkpt lat="49.40715" lon="1.17625">
        <ele>157</ele>
        <time>2017-08-08T17:22:46Z</time>
      </trkpt>
      <trkpt lat="49.40711" lon="1.17622">
        <ele>158</ele>
        <time>2017-08-08T17:23:02Z</time>
      </trkpt>
      <trkpt lat="49.40707" lon="1.17619">
        <ele>158</ele>
        <time>2017-08-08T17:23:02Z</time>
      </trkpt>
      <trkpt lat="49.40705" lon="1.17617">
        <ele>158</ele>
        <time>2017-08-08T17:23:02Z</time>
      </trkpt>
      <trkpt lat="49.40701" lon="1.17615">
        <ele>158</ele>
        <time>2017-08-08T17:23:02Z</time>
      </trkpt>
      <trkpt lat="49.40699" lon="1.17612">
        <ele>158</ele>
        <time>2017-08-08T17:23:18Z</time>
      </trkpt>
      <trkpt lat="49.40693" lon="1.17607">
        <ele>158</ele>
        <time>2017-08-08T17:23:18Z</time>
      </trkpt>
      <trkpt lat="49.4069" lon="1.17602">
        <ele>158</ele>
        <time>2017-08-08T17:23:18Z</time>
      </trkpt>
      <trkpt lat="49.40688" lon="1.17597">
        <ele>158</ele>
        <time>2017-08-08T17:23:18Z</time>
      </trkpt>
      <trkpt lat="49.40687" lon="1.1759">
        <ele>158</ele>
        <time>2017-08-08T17:23:34Z</time>
      </trkpt>
      <trkpt lat="49.40685" lon="1.17583">
        <ele>158</ele>
        <time>2017-08-08T17:23:34Z</time>
      </trkpt>
      <trkpt lat="49.40681" lon="1.17575">
        <ele>158</ele>
        <time>2017-08-08T17:23:34Z</time>
      </trkpt>
      <trkpt lat="49.40679" lon="1.17572">
        <ele>158</ele>
        <time>2017-08-08T17:23:34Z</time>
      </trkpt>
      <trkpt lat="49.40677" lon="1.17567">
        <ele>158</ele>
        <time>2017-08-08T17:23:50Z</time>
      </trkpt>
      <trkpt lat="49.40673" lon="1.17563">
        <ele>158</ele>
        <time>2017-08-08T17:23:50Z</time>
      </trkpt>
      <trkpt lat="49.4067" lon="1.17557">
        <ele>158</ele>
        <time>2017-08-08T17:23:50Z</time>
      </trkpt>
      <trkpt lat="49.40668" lon="1.17553">
        <ele>158</ele>
        <time>2017-08-08T17:23:50Z</time>
      </trkpt>
      <trkpt lat="49.40664" lon="1.17546">
        <ele>158</ele>
        <time>2017-08-08T17:24:07Z</time>
      </trkpt>
      <trkpt lat="49.4066" lon="1.17541">
        <ele>159</ele>
        <time>2017-08-08T17:24:07Z</time>
      </trkpt>
      <trkpt lat="49.40656" lon="1.17535">
        <ele>159</ele>
        <time>2017-08-08T17:24:07Z</time>
      </trkpt>
      <trkpt lat="49.40653" lon="1.1753">
        <ele>159</ele>
        <time>2017-08-08T17:24:07Z</time>
      </trkpt>
      <trkpt lat="49.40649" lon="1.17526">
        <ele>159</ele>
        <time>2017-08-08T17:24:23Z</time>
      </trkpt>
      <trkpt lat="49.40647" lon="1.17522">
        <ele>159</ele>
        <time>2017-08-08T17:24:23Z</time>
      </trkpt>
      <trkpt lat="49.40644" lon="1.1752">
        <ele>159</ele>
        <time>2017-08-08T17:24:23Z</time>
      </trkpt>
      <trkpt lat="49.40639" lon="1.17515">
        <ele>159</ele>
        <time>2017-08-08T17:24:23Z</time>
      </trkpt>
      <trkpt lat="49.40635" lon="1.17511">
        <ele>159</ele>
        <time>2017-08-08T17:24:38Z</time>
      </trkpt>
      <trkpt lat="49.40632" lon="1.17508">
        <ele>159</ele>
        <time>2017-08-08T17:24:38Z</time>
      </trkpt>
      <trkpt lat="49.40628" lon="1.17505">
        <ele>159</ele>
        <time>2017-08-08T17:24:38Z</time>
      </trkpt>
      <trkpt lat="49.40624" lon="1.17503">
        <ele>158</ele>
        <time>2017-08-08T17:24:38Z</time>
      </trkpt>
      <trkpt lat="49.40621" lon="1.17501">
        <ele>158</ele>
        <time>2017-08-08T17:24:54Z</time>
      </trkpt>
      <trkpt lat="49.40618" lon="1.17497">
        <ele>158</ele>
        <time>2017-08-08T17:24:54Z</time>
      </trkpt>
      <trkpt lat="49.40614" lon="1.17494">
        <ele>158</ele>
        <time>2017-08-08T17:24:54Z</time>
      </trkpt>
      <trkpt lat="49.4061" lon="1.17489">
        <ele>158</ele>
        <time>2017-08-08T17:24:54Z</time>
      </trkpt>
      <trkpt lat="49.40605" lon="1.17483">
        <ele>158</ele>
        <time>2017-08-08T17:25:10Z</time>
      </trkpt>
      <trkpt lat="49.40601" lon="1.17479">
        <ele>158</ele>
        <time>2017-08-08T17:25:10Z</time>
      </trkpt>
      <trkpt lat="49.40598" lon="1.17475">
        <ele>158</ele>
        <time>2017-08-08T17:25:10Z</time>
      </trkpt>
      <trkpt lat="49.40593" lon="1.1747">
        <ele>158</ele>
        <time>2017-08-08T17:25:10Z</time>
      </trkpt>
      <trkpt lat="49.4059" lon="1.17463">
        <ele>158</ele>
        <time>2017-08-08T17:25:26Z</time>
      </trkpt>
      <trkpt lat="49.40587" lon="1.1746">
        <ele>158</ele>
        <time>2017-08-08T17:25:26Z</time>
      </trkpt>
      <trkpt lat="49.40584" lon="1.17454">
        <ele>158</ele>
        <time>2017-08-08T17:25:26Z</time>
      </trkpt>
      <trkpt lat="49.40581" lon="1.17451">
        <ele>158</ele>
        <time>2017-08-08T17:25:26Z</time>
      </trkpt>
      <trkpt lat="49.40576" lon="1.17445">
        <ele>158</ele>
        <time>2017-08-08T17:25:41Z</time>
      </trkpt>
      <trkpt lat="49.40573" lon="1.17441">
        <ele>158</ele>
        <time>2017-08-08T17:25:41Z</time>
      </trkpt>
      <trkpt lat="49.40569" lon="1.17437">
        <ele>158</ele>
        <time>2017-08-08T17:25:41Z</time>
      </trkpt>
      <trkpt lat="49.40568" lon="1.17435">
        <ele>158</ele>
        <time>2017-08-08T17:25:41Z</time>
      </trkpt>
      <trkpt lat="49.40565" lon="1.17433">
        <ele>158</ele>
        <time>2017-08-08T17:25:59Z</time>
      </trkpt>
      <trkpt lat="49.40561" lon="1.17428">
        <ele>158</ele>
        <time>2017-08-08T17:25:59Z</time>
      </trkpt>
      <trkpt lat="49.40557" lon="1.17426">
        <ele>158</ele>
        <time>2017-08-08T17:25:59Z</time>
      </trkpt>
      <trkpt lat="49.40552" lon="1.17422">
        <ele>158</ele>
        <time>2017-08-08T17:25:59Z</time>
      </trkpt>
      <trkpt lat="49.40549" lon="1.17418">
        <ele>158</ele>
        <time>2017-08-08T17:26:41Z</time>
      </trkpt>
      <trkpt lat="49.40546" lon="1.17414">
        <ele>158</ele>
        <time>2017-08-08T17:26:41Z</time>
      </trkpt>
      <trkpt lat="49.40544" lon="1.17411">
        <ele>158</ele>
        <time>2017-08-08T17:26:41Z</time>
      </trkpt>
      <trkpt lat="49.40511" lon="1.17362">
        <ele>156</ele>
        <time>2017-08-08T17:26:41Z</time>
      </trkpt>
      <trkpt lat="49.40503" lon="1.17364">
        <ele>156</ele>
        <time>2017-08-08T17:27:03Z</time>
      </trkpt>
      <trkpt lat="49.405" lon="1.17364">
        <ele>156</ele>
        <time>2017-08-08T17:27:03Z</time>
      </trkpt>
      <trkpt lat="49.405" lon="1.17365">
        <ele>156</ele>
        <time>2017-08-08T17:27:03Z</time>
      </trkpt>
      <trkpt lat="49.40498" lon="1.17362">
        <ele>156</ele>
        <time>2017-08-08T17:27:03Z</time>
      </trkpt>
      <trkpt lat="49.40492" lon="1.17356">
        <ele>156</ele>
        <time>2017-08-08T17:27:03Z</time>
      </trkpt>
      <trkpt lat="49.40488" lon="1.17352">
        <ele>156</ele>
        <time>2017-08-08T17:27:18Z</time>
      </trkpt>
      <trkpt lat="49.40484" lon="1.17347">
        <ele>156</ele>
        <time>2017-08-08T17:27:18Z</time>
      </trkpt>
      <trkpt lat="49.40481" lon="1.17346">
        <ele>156</ele>
        <time>2017-08-08T17:27:18Z</time>
      </trkpt>
      <trkpt lat="49.40478" lon="1.17344">
        <ele>156</ele>
        <time>2017-08-08T17:27:18Z</time>
      </trkpt>
      <trkpt lat="49.40473" lon="1.17341">
        <ele>156</ele>
        <time>2017-08-08T17:27:34Z</time>
      </trkpt>
      <trkpt lat="49.4047" lon="1.17337">
        <ele>156</ele>
        <time>2017-08-08T17:27:34Z</time>
      </trkpt>
      <trkpt lat="49.40464" lon="1.17332">
        <ele>156</ele>
        <time>2017-08-08T17:27:34Z</time>
      </trkpt>
      <trkpt lat="49.40461" lon="1.17328">
        <ele>156</ele>
        <time>2017-08-08T17:27:34Z</time>
      </trkpt>
      <trkpt lat="49.40456" lon="1.17324">
        <ele>153</ele>
        <time>2017-08-08T17:27:51Z</time>
      </trkpt>
      <trkpt lat="49.40453" lon="1.17321">
        <ele>153</ele>
        <time>2017-08-08T17:27:51Z</time>
      </trkpt>
      <trkpt lat="49.4045" lon="1.17317">
        <ele>153</ele>
        <time>2017-08-08T17:27:51Z</time>
      </trkpt>
      <trkpt lat="49.40445" lon="1.17312">
        <ele>153</ele>
        <time>2017-08-08T17:27:51Z</time>
      </trkpt>
      <trkpt lat="49.40442" lon="1.17308">
        <ele>153</ele>
        <time>2017-08-08T17:28:07Z</time>
      </trkpt>
      <trkpt lat="49.40438" lon="1.17304">
        <ele>153</ele>
        <time>2017-08-08T17:28:07Z</time>
      </trkpt>
      <trkpt lat="49.40435" lon="1.17299">
        <ele>153</ele>
        <time>2017-08-08T17:28:07Z</time>
      </trkpt>
      <trkpt lat="49.4043" lon="1.17294">
        <ele>153</ele>
        <time>2017-08-08T17:28:07Z</time>
      </trkpt>
      <trkpt lat="49.40427" lon="1.17292">
        <ele>153</ele>
        <time>2017-08-08T17:28:22Z</time>
      </trkpt>
      <trkpt lat="49.40422" lon="1.17289">
        <ele>153</ele>
        <time>2017-08-08T17:28:22Z</time>
      </trkpt>
      <trkpt lat="49.40417" lon="1.17285">
        <ele>153</ele>
        <time>2017-08-08T17:28:22Z</time>
      </trkpt>
      <trkpt lat="49.40414" lon="1.17282">
        <ele>153</ele>
        <time>2017-08-08T17:28:22Z</time>
      </trkpt>
      <trkpt lat="49.40408" lon="1.17277">
        <ele>153</ele>
        <time>2017-08-08T17:28:39Z</time>
      </trkpt>
      <trkpt lat="49.40405" lon="1.17275">
        <ele>153</ele>
        <time>2017-08-08T17:28:39Z</time>
      </trkpt>
      <trkpt lat="49.40401" lon="1.17272">
        <ele>153</ele>
        <time>2017-08-08T17:28:39Z</time>
      </trkpt>
      <trkpt lat="49.40397" lon="1.1727">
        <ele>153</ele>
        <time>2017-08-08T17:28:39Z</time>
      </trkpt>
      <trkpt lat="49.40394" lon="1.17268">
        <ele>153</ele>
        <time>2017-08-08T17:28:55Z</time>
      </trkpt>
      <trkpt lat="49.4039" lon="1.17264">
        <ele>153</ele>
        <time>2017-08-08T17:28:55Z</time>
      </trkpt>
      <trkpt lat="49.40383" lon="1.17259">
        <ele>153</ele>
        <time>2017-08-08T17:28:55Z</time>
      </trkpt>
      <trkpt lat="49.40378" lon="1.17256">
        <ele>153</ele>
        <time>2017-08-08T17:28:55Z</time>
      </trkpt>
      <trkpt lat="49.40375" lon="1.17254">
        <ele>153</ele>
        <time>2017-08-08T17:29:10Z</time>
      </trkpt>
      <trkpt lat="49.40368" lon="1.17249">
        <ele>151</ele>
        <time>2017-08-08T17:29:10Z</time>
      </trkpt>
      <trkpt lat="49.40363" lon="1.17246">
        <ele>151</ele>
        <time>2017-08-08T17:29:10Z</time>
      </trkpt>
      <trkpt lat="49.40359" lon="1.17242">
        <ele>151</ele>
        <time>2017-08-08T17:29:10Z</time>
      </trkpt>
      <trkpt lat="49.40355" lon="1.17239">
        <ele>151</ele>
        <time>2017-08-08T17:29:26Z</time>
      </trkpt>
      <trkpt lat="49.40351" lon="1.17236">
        <ele>151</ele>
        <time>2017-08-08T17:29:26Z</time>
      </trkpt>
      <trkpt lat="49.40345" lon="1.17233">
        <ele>151</ele>
        <time>2017-08-08T17:29:26Z</time>
      </trkpt>
      <trkpt lat="49.40341" lon="1.1723">
        <ele>151</ele>
        <time>2017-08-08T17:29:26Z</time>
      </trkpt>
      <trkpt lat="49.40336" lon="1.17224">
        <ele>151</ele>
        <time>2017-08-08T17:29:41Z</time>
      </trkpt>
      <trkpt lat="49.40333" lon="1.17218">
        <ele>151</ele>
        <time>2017-08-08T17:29:41Z</time>
      </trkpt>
      <trkpt lat="49.4033" lon="1.17214">
        <ele>151</ele>
        <time>2017-08-08T17:29:41Z</time>
      </trkpt>
      <trkpt lat="49.40328" lon="1.17212">
        <ele>151</ele>
        <time>2017-08-08T17:29:41Z</time>
      </trkpt>
      <trkpt lat="49.40327" lon="1.1721">
        <ele>151</ele>
        <time>2017-08-08T17:29:58Z</time>
      </trkpt>
      <trkpt lat="49.40326" lon="1.17201">
        <ele>151</ele>
        <time>2017-08-08T17:29:58Z</time>
      </trkpt>
      <trkpt lat="49.40325" lon="1.17194">
        <ele>151</ele>
        <time>2017-08-08T17:29:58Z</time>
      </trkpt>
      <trkpt lat="49.40322" lon="1.17189">
        <ele>151</ele>
        <time>2017-08-08T17:29:58Z</time>
      </trkpt>
    </trkseg>
  </trk>
</gpx>